[[{"header":{"parameterUnit":"m.s-1","parameterCategory":1,"la1":30.6,"la2":28.766,"lo1":-90.7593,"lo2":-88.6598,"dy":0.0162,"dx":0.0183,"nx":116,"ny":114,"refTime":"2024-03-30T12:00:00:Z","depth":0,"parameterNumber":2,"parameterNumberName":"U-component_of_WINDS"},"data":[0.0,0.0,0.0,0.0,0.0,0.0,0.0,0.0,0.0,0.0,0.0,0.0,0.0,0.0,0.0,0.0,0.0,0.0,0.0,0.0,0.0,0.0,0.0,0.0,0.0,0.0,0.0,0.0,0.0,0.0,0.0,0.0,0.0,0.0,0.0,0.0,0.0,0.0,0.0,0.0,0.0,0.0,0.0,0.0,0.0,0.0,0.0,0.0,0.0,0.0,0.0,0.0,0.0,0.0,0.0,0.0,0.0,0.0,0.0,0.0,0.0,0.0,0.0,0.0,0.0,0.0,0.0,0.0,0.0,0.0,0.0,0.0,0.0,0.0,0.0,0.0,0.0,0.0,0.0,0.0,0.0,0.0,0.0,0.0,0.0,0.0,0.0,0.0,0.0,0.0,0.0,0.0,0.0,0.0,0.0,0.0,0.0,0.0,0.0,0.0,0.0,0.0,0.0,0.0,0.0,0.0,0.0,0.0,0.0,0.0,0.0,0.0,0.0,0.0,0.0,0.0,0.0,0.0,0.0,0.0,0.0,0.0,0.0,0.0,0.0,0.0,0.0,0.0,0.0,0.0,0.0,0.0,0.0,0.0,0.0,0.0,0.0,0.0,0.0,0.0,0.0,0.0,0.0,0.0,0.0,0.0,0.0,0.0,0.0,0.0,0.0,0.0,0.0,0.0,0.0,0.0,0.0,0.0,0.0,0.0,0.0,0.0,0.0,0.0,0.0,0.0,0.0,0.0,0.0,0.0,0.0,0.0,0.0,0.0,0.0,0.0,0.0,0.0,0.0,0.0,0.0,0.0,0.0,0.0,0.0,0.0,0.0,0.0,0.0,0.0,0.0,0.0,0.0,0.0,0.0,0.0,0.0,0.0,0.0,0.0,0.0,0.0,0.0,0.0,0.0,0.0,0.0,0.0,0.0,0.0,0.0,0.0,0.0,0.0,0.0,0.0,0.0,0.0,0.0,0.0,0.0,0.0,0.0,0.0,0.0,0.0,0.0,0.0,0.0,0.0,0.0,0.0,0.0,0.0,0.0,0.0,0.0,0.0,0.0,0.0,0.0,0.0,0.0,0.0,0.0,0.0,0.0,0.0,0.0,0.0,0.0,0.0,0.0,0.0,0.0,0.0,0.0,0.0,0.0,0.0,0.0,0.0,0.0,0.0,0.0,0.0,0.0,0.0,0.0,0.0,0.0,0.0,0.0,0.0,0.0,0.0,0.0,0.0,0.0,0.0,0.0,0.0,0.0,0.0,0.0,0.0,0.0,0.0,0.0,0.0,0.0,0.0,0.0,0.0,0.0,0.0,0.0,0.0,0.0,0.0,0.0,0.0,0.0,0.0,0.0,0.0,0.0,0.0,0.0,0.0,0.0,0.0,0.0,0.0,0.0,0.0,0.0,0.0,0.0,0.0,0.0,0.0,0.0,0.0,0.0,0.0,0.0,0.0,0.0,0.0,0.0,0.0,0.0,0.0,0.0,0.0,0.0,0.0,0.0,0.0,0.0,0.0,0.0,0.0,0.0,0.0,0.0,0.0,0.0,0.0,0.0,0.0,0.0,0.0,0.0,0.0,0.0,0.0,0.0,0.0,0.0,0.0,0.0,0.0,0.0,0.0,0.0,0.0,0.0,0.0,0.0,0.0,0.0,0.0,0.0,0.0,0.0,0.0,0.0,0.0,0.0,0.0,0.0,0.0,0.0,0.0,0.0,0.0,0.0,0.0,0.0,0.0,0.0,0.0,0.0,0.0,0.0,0.0,0.0,0.0,0.0,0.0,0.0,0.0,0.0,0.0,0.0,0.0,0.0,0.0,0.0,0.0,0.0,0.0,0.0,0.0,0.0,0.0,0.0,0.0,0.0,0.0,0.0,0.0,0.0,0.0,0.0,0.0,0.0,0.0,0.0,0.0,0.0,0.0,0.0,0.0,0.0,0.0,0.0,0.0,0.0,0.0,0.0,0.0,0.0,0.0,0.0,0.0,0.0,0.0,0.0,0.0,0.0,0.0,0.0,0.0,0.0,0.0,0.0,0.0,0.0,0.0,0.0,0.0,0.0,0.0,0.0,0.0,0.0,0.0,0.0,0.0,0.0,0.0,0.0,0.0,0.0,0.0,0.0,0.0,0.0,0.0,0.0,0.0,0.0,0.0,0.0,0.0,0.0,0.0,0.0,0.0,0.0,0.0,0.0,0.0,0.0,0.0,0.0,0.0,0.0,0.0,0.0,0.0,0.0,0.0,0.0,0.0,0.0,0.0,0.0,0.0,0.0,0.0,0.0,0.0,0.0,0.0,0.0,0.0,0.0,0.0,0.0,0.0,0.0,0.0,0.0,0.0,0.0,0.0,0.0,0.0,0.0,0.0,0.0,0.0,0.0,0.0,0.0,0.0,0.0,0.0,0.0,0.0,0.0,0.0,0.0,0.0,0.0,0.0,0.0,0.0,0.0,0.0,0.0,0.0,0.0,0.0,0.0,0.0,0.0,0.0,0.0,0.0,0.0,0.0,0.0,0.0,0.0,0.0,0.0,0.0,0.0,0.0,0.0,0.0,0.0,0.0,0.0,0.0,0.0,0.0,0.0,0.0,0.0,0.0,0.0,0.0,0.0,0.0,0.0,0.0,0.0,0.0,0.0,0.0,0.0,0.0,0.0,0.0,0.0,0.0,0.0,0.0,0.0,0.0,0.0,0.0,0.0,0.0,0.0,0.0,0.0,0.0,0.0,0.0,0.0,0.0,0.0,0.0,0.0,0.0,0.0,0.0,0.0,0.0,0.0,0.0,0.0,0.0,0.0,0.0,0.0,0.0,0.0,0.0,0.0,0.0,0.0,0.0,0.0,0.0,0.0,0.0,0.0,0.0,0.0,0.0,0.0,0.0,0.0,0.0,0.0,0.0,0.0,0.0,0.0,0.0,0.0,0.0,0.0,0.0,0.0,0.0,0.0,0.0,0.0,0.0,0.0,0.0,0.0,0.0,0.0,0.0,0.0,0.0,0.0,0.0,0.0,0.0,0.0,0.0,0.0,0.0,0.0,0.0,0.0,0.0,0.0,0.0,0.0,0.0,0.0,0.0,0.0,0.0,0.0,0.0,0.0,0.0,0.0,0.0,0.0,0.0,0.0,0.0,0.0,0.0,0.0,0.0,0.0,0.0,0.0,0.0,0.0,0.0,0.0,0.0,0.0,0.0,0.0,0.0,0.0,0.0,0.0,0.0,0.0,0.0,0.0,0.0,0.0,0.0,0.0,0.0,0.0,0.0,0.0,0.0,0.0,0.0,0.0,0.0,0.0,0.0,0.0,0.0,0.0,0.0,0.0,0.0,0.0,0.0,0.0,0.0,0.0,0.0,0.0,0.0,0.0,0.0,0.0,0.0,0.0,0.0,0.0,0.0,0.0,0.0,0.0,0.0,0.0,0.0,0.0,0.0,0.0,0.0,0.0,0.0,0.0,0.0,0.0,0.0,0.0,0.0,0.0,0.0,0.0,0.0,0.0,0.0,0.0,0.0,0.0,0.0,0.0,0.0,0.0,0.0,0.0,0.0,0.0,0.0,0.0,0.0,0.0,0.0,0.0,0.0,0.0,0.0,0.0,0.0,0.0,0.0,0.0,0.0,0.0,0.0,0.0,0.0,0.0,0.0,0.0,0.0,0.0,0.0,0.0,0.0,0.0,0.0,0.0,0.0,0.0,0.0,0.0,0.0,0.0,0.0,0.0,0.0,0.0,0.0,0.0,0.0,0.0,0.0,0.0,0.0,0.0,0.0,0.0,0.0,0.0,0.0,0.0,0.0,0.0,0.0,0.0,0.0,0.0,0.0,0.0,0.0,0.0,0.0,0.0,0.0,0.0,0.0,0.0,0.0,0.0,0.0,0.0,0.0,0.0,0.0,0.0,0.0,0.0,0.0,0.0,0.0,0.0,0.0,0.0,0.0,0.0,0.0,0.0,0.0,0.0,0.0,0.0,0.0,0.0,0.0,0.0,0.0,0.0,0.0,0.0,0.0,0.0,0.0,0.0,0.0,0.0,0.0,0.0,0.0,0.0,0.0,0.0,0.0,0.0,0.0,0.0,0.0,0.0,0.0,0.0,0.0,0.0,0.0,0.0,0.0,0.0,0.0,0.0,0.0,0.0,0.0,0.0,0.0,0.0,0.0,0.0,0.0,0.0,0.0,0.0,0.0,0.0,0.0,0.0,0.0,0.0,0.0,0.0,0.0,0.0,0.0,0.0,0.0,0.0,0.0,0.0,0.0,0.0,0.0,0.0,0.0,0.0,0.0,0.0,0.0,0.0,0.0,0.0,0.0,0.0,0.0,0.0,0.0,0.0,0.0,0.0,0.0,0.0,0.0,0.0,0.0,0.0,0.0,0.0,0.0,0.0,0.0,0.0,0.0,0.0,0.0,0.0,0.0,0.0,0.0,0.0,0.0,0.0,0.0,0.0,0.0,0.0,0.0,0.0,0.0,0.0,0.0,0.0,0.0,0.0,0.0,0.0,0.0,0.0,0.0,0.0,0.0,0.0,0.0,0.0,0.0,0.0,0.0,0.0,0.0,0.0,0.0,0.0,0.0,0.0,0.0,0.0,0.0,0.0,0.0,0.0,0.0,0.0,0.0,0.0,0.0,0.0,0.0,0.0,0.0,0.0,0.0,0.0,0.0,0.0,0.0,0.0,0.0,0.0,0.0,0.0,0.0,0.0,0.0,0.0,0.0,0.0,0.0,0.0,0.0,0.0,0.0,0.0,0.0,0.0,0.0,0.0,0.0,0.0,0.0,0.0,0.0,0.0,0.0,0.0,0.0,0.0,0.0,0.0,0.0,0.0,0.0,0.0,0.0,0.0,0.0,0.0,0.0,0.0,0.0,0.0,0.0,0.0,0.0,0.0,0.0,0.0,0.0,0.0,0.0,0.0,0.0,0.0,0.0,0.0,0.0,0.0,0.0,0.0,0.0,0.0,0.0,0.0,0.0,0.0,0.0,0.0,0.0,0.0,0.0,0.0,0.0,0.0,0.0,0.0,0.0,0.0,0.0,0.0,0.0,0.0,0.0,0.0,0.0,0.0,0.0,0.0,0.0,0.0,0.0,0.0,0.0,0.0,0.0,0.0,0.0,0.0,0.0,0.0,0.0,0.0,0.0,0.0,0.0,0.0,0.0,0.0,0.0,0.0,0.0,0.0,0.0,0.0,0.0,0.0,0.0,0.0,0.0,0.0,0.0,0.0,0.0,0.0,0.0,0.0,0.0,0.0,0.0,0.0,0.0,0.0,0.0,0.0,0.0,0.0,0.0,0.0,0.0,0.0,0.0,0.0,0.0,0.0,0.0,0.0,0.0,0.0,0.0,0.0,0.0,0.0,0.0,0.0,0.0,0.0,0.0,0.0,0.0,0.0,0.0,0.0,0.0,0.0,0.0,0.0,0.0,0.0,0.0,0.0,0.0,0.0,0.0,0.0,0.0,0.0,0.0,0.0,0.0,0.0,0.0,0.0,0.0,0.0,0.0,0.0,0.0,0.0,0.0,0.0,0.0,0.0,0.0,0.0,0.0,0.0,0.0,0.0,0.0,0.0,0.0,0.0,0.0,0.0,0.0,0.0,0.0,0.0,0.0,0.0,0.0,0.0,0.0,0.0,0.0,0.0,0.0,0.0,0.0,0.0,0.0,0.0,0.0,0.0,0.0,0.0,0.0,0.0,0.0,0.0,0.0,0.0,0.0,0.0,0.0,0.0,0.0,0.0,0.0,0.0,0.0,0.0,0.0,0.0,0.0,0.0,0.0,0.0,0.0,0.0,0.0,0.0,0.0,0.0,0.0,0.0,0.0,0.0,0.0,0.0,0.0,0.0,0.0,0.0,0.0,0.0,0.0,0.0,0.0,0.0,0.0,0.0,0.0,0.0,0.0,0.0,0.0,0.0,0.0,0.0,0.0,0.0,0.0,0.0,0.0,0.0,0.0,0.0,0.0,0.0,0.0,0.0,0.0,0.0,0.0,0.0,0.0,0.0,0.0,0.0,0.0,0.0,0.0,0.0,0.0,0.0,0.0,0.0,0.0,0.0,0.0,0.0,0.0,0.0,0.0,0.0,0.0,0.0,0.0,0.0,0.0,0.0,0.0,-3.0812,-3.0575,0.0,0.0,0.0,0.0,0.0,0.0,0.0,0.0,0.0,0.0,0.0,0.0,0.0,0.0,0.0,0.0,0.0,0.0,0.0,0.0,0.0,0.0,0.0,-3.2791,-3.3209,-3.3645,-3.4037,-3.4041,-3.3482,0.0,0.0,0.0,0.0,0.0,-3.2332,-3.2437,-3.2247,-3.1721,-3.1721,-3.1321,-3.055,-3.0858,-3.1789,-3.3212,0.0,0.0,0.0,0.0,0.0,0.0,0.0,0.0,0.0,0.0,0.0,0.0,0.0,0.0,0.0,0.0,0.0,0.0,0.0,0.0,0.0,0.0,0.0,0.0,0.0,0.0,0.0,0.0,0.0,0.0,0.0,0.0,0.0,0.0,0.0,0.0,0.0,0.0,0.0,0.0,0.0,0.0,0.0,0.0,0.0,0.0,0.0,0.0,0.0,0.0,0.0,0.0,0.0,0.0,0.0,0.0,0.0,0.0,0.0,0.0,0.0,0.0,0.0,0.0,0.0,0.0,0.0,0.0,0.0,0.0,-3.0907,-3.0685,0.0,0.0,0.0,0.0,0.0,0.0,0.0,0.0,0.0,0.0,0.0,0.0,0.0,0.0,0.0,0.0,0.0,0.0,0.0,0.0,0.0,-3.0387,-3.1205,-3.1944,-3.2434,-3.2579,-3.3181,-3.3286,-3.2634,-3.2897,0.0,0.0,-3.1957,-3.2083,-3.1481,-3.1897,-3.1632,-3.0631,-3.0399,-2.9946,-2.9264,-2.9487,-3.0577,-3.2395,-3.3672,0.0,0.0,0.0,0.0,0.0,0.0,0.0,0.0,0.0,0.0,0.0,0.0,0.0,0.0,0.0,0.0,0.0,0.0,0.0,0.0,0.0,0.0,0.0,0.0,0.0,0.0,0.0,0.0,0.0,0.0,0.0,0.0,0.0,0.0,0.0,0.0,0.0,0.0,0.0,0.0,0.0,0.0,0.0,0.0,0.0,0.0,0.0,0.0,0.0,0.0,0.0,0.0,0.0,0.0,0.0,0.0,0.0,0.0,0.0,0.0,0.0,0.0,0.0,-3.0048,-3.0391,-3.0872,-3.1006,-3.1398,-3.1849,-3.0647,-3.0654,-3.1446,-2.9861,0.0,0.0,0.0,0.0,0.0,0.0,0.0,0.0,0.0,0.0,0.0,0.0,0.0,0.0,0.0,0.0,0.0,0.0,0.0,-2.9981,-3.0794,-3.1243,-3.1742,-3.2451,-3.2611,-3.2627,-3.2522,-3.2563,-3.2511,-3.2299,-3.2039,-3.1845,-3.1758,-3.0985,-3.0231,-2.9499,-2.8452,-2.8176,-2.8661,-2.9877,-3.0588,-3.0924,-3.1967,0.0,0.0,0.0,0.0,0.0,0.0,0.0,0.0,0.0,0.0,0.0,0.0,0.0,0.0,0.0,0.0,0.0,0.0,0.0,0.0,0.0,0.0,0.0,0.0,0.0,0.0,0.0,0.0,0.0,0.0,0.0,0.0,0.0,0.0,0.0,0.0,0.0,0.0,0.0,0.0,0.0,0.0,0.0,-3.418,-3.3611,0.0,0.0,0.0,0.0,0.0,0.0,0.0,0.0,0.0,0.0,0.0,0.0,0.0,-2.8565,-2.8915,-2.8606,-2.8598,-2.89,-2.9547,-2.9873,-2.9913,-3.0424,-3.0741,-3.0774,-3.0069,0.0,-3.0889,-2.9457,0.0,0.0,0.0,0.0,0.0,0.0,0.0,0.0,0.0,0.0,0.0,0.0,0.0,0.0,0.0,0.0,0.0,0.0,0.0,0.0,0.0,-3.0023,-3.0485,-3.1253,-3.1742,-3.1794,-3.1341,-3.1812,-3.1707,-3.0851,-3.123,-3.1096,-3.0369,-2.9932,-2.9053,-2.7673,-2.7167,-2.7091,-2.7403,-2.8394,-2.9247,-3.0033,-3.1262,-3.2613,-3.3916,-3.3451,0.0,0.0,0.0,0.0,0.0,0.0,0.0,0.0,0.0,0.0,0.0,0.0,0.0,0.0,0.0,0.0,0.0,0.0,0.0,0.0,0.0,0.0,0.0,0.0,0.0,0.0,0.0,0.0,0.0,0.0,0.0,0.0,0.0,0.0,0.0,0.0,0.0,0.0,0.0,-3.2904,-3.2967,-3.1978,-3.2006,-3.1709,0.0,0.0,0.0,0.0,0.0,0.0,0.0,0.0,0.0,-2.876,-2.8853,-2.9021,-2.9254,-2.9385,-2.9323,-2.9093,-2.9888,-3.0188,-3.0108,-3.0856,-3.1206,-3.1253,-3.0592,-3.0133,-2.9714,-2.8308,-2.785,-2.7962,0.0,0.0,0.0,0.0,-2.6856,-2.6031,0.0,0.0,0.0,0.0,0.0,0.0,0.0,0.0,0.0,0.0,0.0,0.0,-2.8823,-2.8991,-2.9355,-3.0083,-3.0683,-3.0787,-3.0168,-3.08,-3.0672,-2.9467,-3.0258,-3.0268,-2.9206,-2.8786,-2.7767,-2.6153,-2.6155,-2.6247,-2.6432,-2.7242,-2.817,-2.917,-3.0615,-3.2209,-3.3717,-3.294,-3.2937,0.0,0.0,0.0,0.0,0.0,0.0,0.0,0.0,0.0,0.0,0.0,0.0,0.0,0.0,0.0,0.0,0.0,0.0,0.0,0.0,0.0,0.0,0.0,0.0,0.0,0.0,0.0,0.0,0.0,0.0,0.0,0.0,0.0,0.0,0.0,0.0,0.0,0.0,-3.2117,-3.199,-3.0586,-3.1036,-3.0888,0.0,0.0,0.0,0.0,0.0,0.0,-2.931,-2.8862,-2.8595,-2.8558,-2.902,-2.9349,-2.9496,-2.9812,-2.9807,-2.9496,-2.9954,-3.0193,-3.027,-3.0872,-3.1123,-3.1005,-3.0389,-2.9504,-2.8454,-2.7214,-2.6715,-2.6688,-2.6226,-2.5625,-2.5185,-2.6396,-2.5972,-2.4912,0.0,0.0,0.0,0.0,0.0,0.0,0.0,0.0,0.0,0.0,0.0,-2.7876,-2.8549,-2.8516,-2.8716,-2.9374,-2.9492,-2.9492,-2.9438,-2.9486,-2.9426,-2.9233,-2.9399,-2.9399,-2.9185,-2.7455,-2.6186,-2.5453,-2.5329,-2.5576,-2.6253,-2.7426,-2.8008,-2.8144,-2.9698,-3.1183,-3.2535,-3.1871,-3.2128,-3.2912,0.0,0.0,0.0,0.0,0.0,0.0,0.0,0.0,0.0,0.0,0.0,0.0,0.0,0.0,0.0,0.0,0.0,0.0,0.0,0.0,0.0,0.0,0.0,0.0,0.0,0.0,0.0,0.0,0.0,0.0,0.0,0.0,0.0,0.0,0.0,0.0,0.0,0.0,0.0,-3.0706,-3.1139,0.0,0.0,0.0,0.0,-2.8815,-2.8761,-2.8663,-2.8481,-2.8418,-2.8347,-2.8142,-2.8143,-2.842,-2.895,-2.8458,-2.8748,-2.9768,-2.9252,-2.929,-2.9819,-2.9857,-2.9593,-2.9,-2.8482,-2.7915,-2.7335,-2.6556,-2.624,-2.6116,-2.4967,-2.4856,-2.5301,-2.4772,-2.451,-2.4347,0.0,0.0,0.0,0.0,0.0,-2.8791,-2.817,-2.8075,-2.7877,-2.7335,-2.7185,-2.7467,-2.8315,-2.8029,-2.8035,-2.8763,-2.8826,-2.8638,-2.8213,-2.8948,-2.9197,-2.8709,-2.9155,-2.8776,-2.7425,-2.5938,-2.4975,-2.4568,-2.4956,-2.5437,-2.6042,-2.689,-2.7737,-2.8546,-2.9561,-3.0466,-3.127,-3.1386,-3.1913,-3.2588,-3.1445,-3.1453,0.0,0.0,0.0,0.0,0.0,0.0,0.0,0.0,0.0,0.0,0.0,0.0,0.0,0.0,0.0,0.0,0.0,0.0,0.0,0.0,0.0,0.0,0.0,0.0,0.0,0.0,0.0,0.0,0.0,0.0,0.0,0.0,0.0,0.0,0.0,0.0,0.0,-3.0111,-3.0549,0.0,-2.8962,-2.9344,-2.9498,-2.9044,-2.9417,-2.9556,-2.9322,-2.9323,-2.9276,-2.9189,-2.9189,-2.9289,-2.9478,-2.9289,-2.9402,-2.9792,-2.9578,-2.9591,-2.9792,-2.9792,-2.9277,-2.8386,-2.8185,-2.7595,-2.6722,-2.6084,-2.561,-2.5231,-2.4598,-2.4167,-2.3962,-2.4228,-2.4006,-2.3521,0.0,0.0,0.0,0.0,-2.8893,-2.8596,-2.7996,-2.7779,-2.7442,-2.6697,-2.6637,-2.6909,-2.7591,-2.7333,-2.743,-2.8128,-2.8213,-2.8014,-2.7563,-2.8326,-2.8566,-2.8066,-2.8259,-2.752,-2.5744,-2.5037,-2.4568,-2.4335,-2.4965,-2.5553,-2.6123,-2.6739,-2.7584,-2.8592,-2.9329,-2.9855,-3.0242,-3.0839,-3.1457,-3.1925,-3.1374,-3.1502,-3.1863,0.0,0.0,0.0,0.0,0.0,0.0,0.0,0.0,0.0,0.0,0.0,0.0,0.0,0.0,0.0,0.0,0.0,0.0,0.0,0.0,0.0,0.0,0.0,0.0,0.0,0.0,0.0,0.0,0.0,0.0,0.0,0.0,0.0,0.0,-3.075,-3.0337,-2.9686,-3.0186,-3.0202,-2.9175,-2.9635,-2.9891,-2.9693,-2.9923,-2.9983,-2.9805,-2.9792,-2.9792,-2.9792,-2.9792,-2.9792,-2.9792,-2.9792,-2.9792,-2.9792,-2.9792,-2.9792,-2.9792,-2.9792,-2.9176,-2.8109,-2.8109,-2.7482,-2.6449,-2.5837,-2.5385,-2.5028,-2.463,-2.4149,-2.3708,-2.4082,-2.3867,-2.3371,0.0,0.0,0.0,-2.9005,-2.867,-2.829,-2.7954,-2.756,-2.6986,-2.6119,-2.6112,-2.6255,-2.6375,-2.6516,-2.6881,-2.754,-2.757,-2.757,-2.757,-2.757,-2.7518,-2.7388,-2.6606,-2.5601,-2.435,-2.4787,-2.4965,-2.4813,-2.5347,-2.5921,-2.6499,-2.7065,-2.7582,-2.8133,-2.8996,-2.9386,-2.9482,-3.0289,-3.0757,-3.1012,-3.1271,-3.1758,-3.2158,0.0,0.0,0.0,0.0,0.0,0.0,0.0,0.0,0.0,0.0,0.0,0.0,0.0,0.0,0.0,0.0,0.0,0.0,0.0,0.0,0.0,0.0,0.0,0.0,0.0,0.0,0.0,0.0,0.0,0.0,0.0,0.0,0.0,-3.0495,-3.0426,-2.9981,-2.9504,-3.0126,-3.0407,-2.9892,-3.0306,-3.062,-3.062,-3.0105,-2.9792,-2.9792,-2.9792,-2.9792,-2.9792,-2.9792,-2.9792,-2.9792,-2.9792,-2.9792,-2.9792,-2.9792,-2.9792,-2.9792,-2.9792,-2.9176,-2.8109,-2.8109,-2.7482,-2.6449,-2.585,-2.5624,-2.5573,-2.5034,-2.4788,-2.4725,-2.4205,-2.3991,-2.3891,0.0,0.0,-2.9005,-2.9005,-2.867,-2.829,-2.7954,-2.756,-2.7026,-2.6254,-2.6178,-2.6299,-2.6524,-2.6579,-2.6881,-2.754,-2.7165,-2.6881,-2.6881,-2.6881,-2.6827,-2.6751,-2.4749,-2.4014,-2.4856,-2.4069,-2.4234,-2.5385,-2.5523,-2.5921,-2.6499,-2.7065,-2.7582,-2.8122,-2.877,-2.9287,-2.9757,-3.0645,-3.0815,-3.0474,-3.0998,-3.1248,-3.1346,0.0,0.0,0.0,0.0,0.0,0.0,0.0,0.0,0.0,0.0,0.0,0.0,0.0,0.0,0.0,0.0,0.0,0.0,0.0,0.0,0.0,0.0,0.0,0.0,0.0,0.0,0.0,0.0,0.0,0.0,0.0,-2.8659,-2.9685,-3.0269,-2.9751,-2.9529,-3.0203,-3.0489,-3.0708,-3.0934,-3.0746,-3.062,-3.062,-3.0105,-2.9792,-2.9792,-2.9792,-2.9792,-2.9792,-2.9792,-2.9792,-2.9792,-2.9792,-2.9792,-2.9792,-2.9792,-2.9792,-2.9792,-2.9792,-2.9176,-2.8109,-2.8109,-2.7482,-2.6487,-2.6323,-2.626,-2.6172,-2.5197,-2.4788,-2.4725,-2.4205,-2.3728,-2.3384,0.0,-2.9005,-2.9005,-2.9005,-2.867,-2.829,-2.7954,-2.756,-2.6926,-2.5918,-2.6019,-2.6094,-2.5792,-2.6019,-2.6333,-2.6746,-2.6647,-2.6587,-2.6587,-2.6569,-2.6057,-2.4932,0.0,-2.3964,-2.4606,-2.431,-2.4757,-2.5996,-2.5996,-2.6399,-2.719,-2.7482,-2.8059,-2.8825,-2.9151,-2.9478,-2.983,-3.0381,-3.0401,-3.0088,-3.0582,-3.1087,-3.1379,-3.0766,-3.0906,-3.1394,-3.0959,-3.1438,-3.2239,-3.1749,0.0,0.0,0.0,0.0,0.0,0.0,0.0,0.0,0.0,0.0,0.0,0.0,0.0,0.0,0.0,0.0,0.0,0.0,0.0,0.0,0.0,0.0,0.0,0.0,-2.8837,-2.9823,-3.0313,-2.9923,-2.9955,-3.0834,-3.1135,-3.1499,-3.2051,-3.1599,-3.1185,-3.0959,-3.0444,-3.0043,-2.9804,-2.9792,-2.9792,-2.9792,-2.9792,-2.9792,-2.9792,-2.9792,-2.9792,-2.9792,-2.9792,-2.9792,-2.9779,-2.9541,-2.895,-2.8097,-2.7858,-2.7268,-2.6499,-2.6499,-2.6499,-2.6436,0.0,0.0,0.0,0.0,-2.3797,-2.3158,0.0,-2.9005,-2.9005,-2.9005,-2.867,-2.8303,-2.7992,-2.7619,-2.687,-2.5512,-2.5863,-2.5855,-2.4887,-2.5236,-2.5567,-2.5627,-2.6133,-2.6447,-2.6452,-2.6287,-2.5164,-2.2897,-2.4126,-2.4624,-2.4092,-2.5084,-2.5912,-2.6587,-2.6524,-2.7065,-2.8109,-2.8109,-2.8674,-2.9691,-2.9767,-2.9792,-2.9792,-2.9792,-2.9792,-2.9819,-3.0099,-3.0847,-3.1618,-3.0106,-3.028,-3.1287,-3.0708,-3.0924,-3.1478,-3.1426,0.0,0.0,0.0,0.0,0.0,0.0,0.0,0.0,0.0,0.0,0.0,0.0,0.0,0.0,0.0,0.0,0.0,0.0,0.0,0.0,0.0,0.0,0.0,0.0,-2.9132,-2.9477,-3.0633,-3.0859,-3.1072,-3.1524,-3.2014,-3.2541,-3.3119,-3.2591,-3.1989,-3.1436,-3.0909,-3.0382,-2.9829,-2.9792,0.0,0.0,0.0,-2.9792,-2.9792,-2.9792,-2.9792,-2.9792,-2.9792,-2.9792,-2.9779,-2.9202,-2.8624,-2.8072,-2.7519,-2.7002,-2.6499,-2.6499,-2.6461,-2.6399,-2.6399,-2.6361,-2.6197,-2.5184,-2.4073,-2.3108,0.0,-2.9005,-2.9005,-2.9005,-2.867,-2.8381,-2.8316,-2.8006,-2.7402,-2.6371,-2.6368,-2.631,-2.5928,-2.5485,-2.5381,-2.5879,-2.5601,-2.5443,-2.5538,-2.468,-2.4093,-2.3966,-2.3666,-2.3838,-2.4644,-2.5272,-2.6101,-2.7165,-2.6713,-2.7065,-2.8109,-2.8109,-2.8461,-2.9076,-2.9578,-2.9792,-2.9792,-2.9792,-2.9792,-2.9741,-2.934,-2.9489,-3.0003,-3.0584,-3.0707,-3.0542,-3.0526,-3.1115,-3.1934,-3.1581,-3.2113,-3.2883,-3.2992,0.0,0.0,0.0,0.0,0.0,0.0,0.0,0.0,0.0,0.0,0.0,0.0,0.0,0.0,0.0,0.0,0.0,0.0,0.0,0.0,-2.881,-2.9693,-3.067,-3.175,-3.2303,-3.2629,-3.2742,-3.2842,-3.3131,-3.3684,-3.2817,-3.1989,-3.1436,-3.0909,-3.0382,-2.9829,-2.9792,-2.9792,-2.9792,-2.9792,-2.9792,-2.9792,-2.9792,-2.9792,-2.9792,-2.9792,0.0,-2.9779,-2.9202,-2.8624,-2.8072,-2.7519,-2.7002,-2.6499,-2.6499,-2.6223,-2.5762,-2.5762,-2.5511,-2.5109,-2.4863,-2.4073,-2.317,0.0,-2.8784,-2.9005,-2.9005,-2.8839,-2.8633,-2.8433,-2.8264,-2.7841,-2.6927,-2.6798,-2.6673,-2.6275,-2.5923,-2.5822,-2.6114,-2.5779,-2.5337,-2.4837,-2.4284,-2.3798,-2.3328,-2.371,-2.4211,-2.4775,-2.5611,-2.6336,-2.6901,-2.6625,-2.6914,-2.7695,-2.7695,-2.8134,-2.89,-2.9239,-2.9528,-2.9792,-2.9792,-2.9628,-2.9315,-2.875,-2.8428,-2.8459,-2.9455,-3.0041,-3.0316,-3.0397,-3.1122,-3.2011,-3.1476,-3.1756,-3.227,-3.2065,-3.2317,-3.2617,0.0,0.0,0.0,0.0,0.0,0.0,0.0,0.0,0.0,0.0,0.0,0.0,0.0,0.0,-2.6647,-2.7592,0.0,-2.8631,-2.9938,-3.0859,-3.17,-3.2528,-3.337,-3.3796,-3.352,-3.3483,-3.3596,-3.3872,-3.3144,-3.229,-3.1449,-3.1148,-3.0645,-2.9829,-2.9792,-2.9792,-2.9792,-2.9792,-2.9792,-2.9792,-2.9792,-2.9792,-2.9792,-2.9792,-2.9792,-2.9767,-2.8913,-2.836,-2.8059,-2.7231,-2.6751,-2.6499,-2.6499,-2.6147,-2.5573,-2.531,-2.4883,-2.4406,-2.4406,-2.3835,-2.3145,0.0,-2.8695,-2.9104,-2.9028,-2.9005,-2.8893,-2.8565,-2.8527,-2.8236,-2.7461,-2.7355,-2.7154,-2.6664,-2.6479,-2.6361,-2.6298,-2.5937,-2.5347,-2.4467,-2.4425,-2.3906,-2.2738,-2.4223,-2.5128,-2.5262,-2.6261,-2.682,-2.69,-2.6798,-2.7,-2.7444,-2.7444,-2.7971,-2.89,-2.9013,-2.9352,-2.9792,-2.9792,-2.9453,-2.885,-2.8448,-2.7871,-2.7374,-2.8191,-2.9143,-3.0072,-3.0419,-3.1127,-3.185,-3.1471,-3.1476,-3.1544,-3.1197,-3.1597,-3.208,-3.1422,-3.2033,0.0,0.0,0.0,0.0,0.0,0.0,0.0,0.0,0.0,-2.6084,-2.5561,-2.58,-2.6561,-2.7957,-2.871,-2.9784,-3.1751,-3.2331,-3.2852,-3.3779,-3.4445,-3.4763,-3.4412,-3.4186,-3.406,-3.406,-3.3357,-3.2478,-3.1461,-3.1298,-3.0821,-2.9842,-2.9792,-2.9792,-2.9792,-2.9792,-2.9792,-2.9792,-2.9573,-2.9573,-2.9792,-2.9585,-2.9585,-2.9754,-2.8624,-2.8109,-2.8047,-2.6977,-2.6499,-2.6499,-2.6499,-2.6147,-2.5548,-2.4988,-2.4481,-2.3979,-2.3866,-2.354,-2.3108,0.0,-2.9077,-2.9485,-2.9078,-2.9005,-2.8975,-2.894,-2.8929,-2.8773,-2.8306,-2.8254,-2.8121,-2.7759,-2.713,-2.6598,-2.6234,-2.533,-2.4792,-2.4836,-2.4621,-2.4377,-2.4089,-2.5358,-2.6333,-2.6925,-2.752,-2.7983,-2.8292,-2.782,-2.7704,-2.8009,-2.8009,-2.8348,-2.8913,-2.9465,-2.9729,-2.9792,-2.9792,-2.9453,-2.8888,-2.8825,-2.821,-2.7374,-2.8191,-2.875,-2.9348,-3.0837,-3.1291,-3.1337,-3.2077,-3.2008,-3.173,-3.2553,-3.269,-3.2479,-3.2076,0.0,-3.1385,-3.1555,-3.1545,-3.1154,-2.9788,-2.8769,-2.8143,0.0,0.0,-2.6497,-2.7236,-2.7536,-2.8,-2.9199,-2.9969,-3.1296,-3.399,-3.4037,-3.4444,-3.6564,-3.6012,-3.5617,-3.6078,-3.5228,-3.4625,-3.4625,-3.3219,-3.2051,-3.1436,-3.0959,-3.0432,-2.9829,-2.9792,-2.9792,-2.9792,-2.9792,-2.9792,-2.9792,-2.8806,-2.8806,-2.9792,-2.8767,-2.8806,-2.9754,-2.8624,-2.8109,-2.8047,-2.6977,-2.6499,-2.6499,-2.6499,-2.6147,-2.5548,-2.4988,-2.4481,-2.3941,-2.3396,-2.3158,-2.3108,0.0,0.0,-2.9643,-2.9446,-2.9312,-2.9171,-2.901,-2.9005,-2.894,-2.8773,-2.8749,-2.87,-2.8563,-2.8274,-2.7931,-2.7522,-2.6615,-2.5854,-2.5329,-2.5098,-2.4787,-2.4381,-2.553,-2.6527,-2.7193,-2.774,-2.8255,-2.8779,-2.8582,-2.8696,-2.9225,-2.9225,-2.9416,-2.9768,-3.0051,-3.0023,-2.9792,-2.9792,-2.9453,-2.8863,-2.8549,-2.8272,-2.8075,-2.8585,-2.921,-2.9801,-3.0103,-3.0349,0.0,0.0,-3.0824,-3.0614,-3.1391,-3.1668,-3.1702,-3.1561,-3.1963,0.0,-3.2869,-3.1508,-2.9801,0.0,-2.8101,-2.7162,-2.6378,-2.5738,-2.5477,-2.6069,-2.7045,-2.8225,-2.9703,-3.1057,-3.2532,0.0,-3.4787,-3.5138,-3.6115,-3.6117,-3.5994,-3.5893,-3.5203,-3.468,-3.468,-3.3508,-3.2353,-3.1461,-3.1185,-3.0696,-2.9842,-2.9792,-2.9792,-2.9792,-2.9792,-2.9792,-2.9792,-2.9326,-2.8988,-2.8806,-2.8347,-2.7862,-2.7447,-2.6653,-2.6304,-2.6298,-2.6445,-2.6499,-2.6499,-2.6499,-2.5806,-2.4798,-2.4793,-2.4105,-2.3113,-2.3113,-2.3108,-2.3108,0.0,0.0,0.0,-2.9807,-2.9661,-2.9475,-2.9238,-2.9071,-2.9044,-2.9174,-2.9138,-2.9112,-2.9112,-2.9033,-2.8839,-2.8433,-2.7695,-2.6856,-2.5872,-2.5742,-2.5535,-2.5194,-2.6203,-2.7187,-2.8049,-2.8454,-2.8957,-2.9595,-2.9426,-2.9566,-3.0013,-3.0165,-3.033,-3.0539,-3.0664,-3.0453,-2.9948,-2.9783,-2.9338,-2.8778,-2.8359,-2.8386,-2.8685,-2.8975,-2.9466,-2.9982,-2.9726,-2.9886,0.0,0.0,-2.9759,-2.9614,-3.0044,-3.0293,-3.0495,-3.0759,-3.1664,-3.2526,-3.2143,-3.0454,0.0,-2.7648,-2.7171,-2.656,-2.5126,-2.504,-2.5441,-2.5946,-2.7454,-2.9068,-3.0465,-3.2334,-3.402,-3.5231,-3.5575,-3.586,-3.6146,-3.6408,-3.6421,-3.5968,-3.5213,-3.4742,-3.4895,-3.3518,-3.2277,-3.1449,-3.111,-3.0608,-2.9829,-2.9792,-2.9792,-2.9792,-2.9792,-2.9792,-2.9792,-2.9495,-2.9067,-2.8557,-2.8112,-2.7443,-2.6623,-2.5935,-2.5542,-2.5441,-2.6164,-2.6499,-2.6499,-2.6198,-2.5571,-2.48,-2.4501,-2.3876,-2.3115,-2.3102,-2.3108,-2.3108,0.0,0.0,0.0,0.0,-2.9991,-2.9916,-2.9713,-2.9293,-2.9152,-2.9625,-2.9513,-2.9392,-2.9392,-2.9167,-2.8839,-2.8433,-2.7964,-2.7319,-2.644,-2.6547,-2.6796,-2.7103,-2.7841,-2.8882,-3.0267,-3.033,-3.0579,-3.1116,-3.0478,-3.0102,-3.0007,-3.0541,-3.0798,-3.0819,-3.1344,-3.1108,-3.0349,-2.9697,-2.9057,-2.8505,-2.8478,-2.8705,-2.9024,-2.922,-2.9303,-2.9435,-3.0183,0.0,0.0,0.0,-2.9372,-2.911,-2.9124,-2.8977,0.0,-2.9856,-3.0251,-2.9922,-2.7709,0.0,-2.7175,-2.4754,-2.5324,-2.6335,-2.5548,-2.6238,-2.7286,-2.8288,-2.9869,-3.1288,-3.1936,-3.3885,-3.5813,-3.7001,-3.6752,-3.6777,-3.7867,-3.7485,-3.7054,-3.7041,-3.5673,-3.4899,0.0,-3.3046,-3.1424,-3.1386,-3.0432,-2.9829,-2.9792,-2.9792,-2.9792,-2.9792,-2.9792,-2.9792,-2.9792,-2.8688,-2.8688,-2.974,-2.8116,-2.7849,-2.8775,-2.7723,-2.6957,-2.6452,-2.6499,-2.6499,-2.6418,-2.5441,-2.5581,-2.6211,-2.4131,-2.3899,-2.4593,-2.3509,-2.3108,-2.3108,0.0,0.0,0.0,0.0,0.0,-3.0047,-3.0148,-2.9765,-2.9514,-2.9678,-2.9532,0.0,0.0,0.0,0.0,0.0,-2.8415,-2.7911,-2.7289,-2.7485,-2.7531,-2.7279,-2.7934,-2.8969,-3.0426,-3.0459,-3.1034,-3.2213,-3.216,-3.2346,-3.2725,-3.3128,-3.3213,-3.2987,-3.2708,-3.2072,-3.1137,-3.048,-3.0353,-3.0489,-2.9588,-3.0218,-3.1544,-2.9876,-2.9918,-3.0688,0.0,0.0,0.0,0.0,0.0,0.0,-2.9761,0.0,-2.9435,-3.0054,-3.0111,-2.9868,-2.9368,0.0,-2.7325,-2.6846,-2.6594,-2.6512,-2.6537,-2.6806,-2.7394,-2.8377,-2.9692,-3.0822,-3.1389,-3.3391,-3.508,-3.5506,-3.602,-3.6534,-3.693,-3.6764,-3.6241,-3.513,-3.4492,0.0,0.0,0.0,0.0,-3.1411,-3.106,-3.0545,-2.9829,-2.9792,-2.9792,-2.9792,-2.9792,-2.9792,-2.9792,-2.9032,-2.8476,-2.8104,-2.6158,-2.5447,-2.5777,-2.5768,-2.5681,-2.5546,-2.6198,-2.6499,-2.6452,-2.6129,-2.5595,-2.4917,-2.4467,-2.3867,-2.326,-2.3145,-2.3108,-2.3108,0.0,0.0,0.0,0.0,0.0,0.0,0.0,0.0,0.0,0.0,0.0,0.0,0.0,0.0,0.0,0.0,0.0,-2.8428,-2.7977,-2.8108,-2.8117,-2.7925,-2.8322,-2.9109,-3.0324,-3.0358,-3.1093,-3.2581,-3.253,-3.3139,-3.4391,-3.4595,-3.4736,-3.4792,-3.407,-3.3218,-3.2244,-3.1272,-3.0983,-3.1063,-3.0464,-3.1062,-3.2097,-3.0468,-3.0258,0.0,0.0,0.0,0.0,0.0,0.0,0.0,0.0,-2.9657,-2.953,-2.9697,-2.9577,-2.9315,-2.9308,-2.8297,-2.743,-2.7905,-2.7785,-2.7747,-2.8364,-2.8799,-2.9282,-3.0126,-3.0807,-3.1445,-3.2,-3.3196,-3.4135,-3.4135,-3.4726,-3.5361,-3.5717,-3.5783,-3.5532,-3.4855,-3.4063,-3.3219,0.0,0.0,0.0,-3.1135,-3.0934,-3.052,-2.9829,-2.9792,-2.9792,-2.9792,-2.9792,-2.9792,-2.9792,-2.9176,-2.8375,-2.7256,-2.5938,-2.5218,-2.5031,-2.5373,-2.5558,-2.5546,-2.5987,-2.6185,-2.6138,-2.5586,-2.4985,-2.4396,-2.4092,-2.3587,-2.305,-2.3083,-2.3108,-2.3108,0.0,0.0,0.0,0.0,0.0,0.0,0.0,0.0,0.0,0.0,0.0,0.0,0.0,0.0,0.0,0.0,0.0,0.0,-2.8458,-2.8433,0.0,-2.8986,-2.9006,-2.9364,-3.0097,-3.013,-3.0871,-3.2359,-3.1795,-3.2673,-3.4822,-3.4887,-3.5296,-3.6005,-3.52,-3.4374,-3.3541,-3.2073,-3.1062,-3.0468,-3.1166,-3.1286,-3.1002,-3.1024,0.0,0.0,0.0,0.0,0.0,0.0,0.0,0.0,0.0,-2.8962,-2.931,-2.8955,-2.8756,-2.8491,-2.7698,-2.7553,-2.7711,-2.8131,-2.8973,-2.9974,-3.0924,-3.1893,-3.2737,-3.3307,-3.3046,-3.2922,0.0,-3.3319,-3.3043,-3.3111,-3.3156,-3.3571,-3.4613,-3.4766,-3.5081,0.0,0.0,0.0,0.0,0.0,0.0,-3.057,-3.0118,-2.9829,-2.9792,-2.9792,-2.9792,-2.9792,-2.9792,-2.9792,-2.9792,-2.9176,-2.8373,-2.7281,-2.7281,-2.7027,-2.6499,-2.6499,-2.6474,-2.6411,-2.5837,-2.5573,-2.5444,-2.3993,-2.3919,-2.4623,-2.3144,-2.313,-2.3891,-2.3308,-2.3083,-2.3058,0.0,0.0,0.0,0.0,0.0,0.0,0.0,0.0,0.0,0.0,0.0,0.0,0.0,0.0,0.0,0.0,0.0,0.0,-2.8851,0.0,0.0,0.0,0.0,0.0,0.0,0.0,0.0,-3.1961,-3.2792,-3.3393,-3.3787,-3.4655,-3.5044,-3.5041,-3.4332,-3.3971,-3.3829,-3.2758,-3.2579,-3.2967,0.0,-3.2816,-3.3573,0.0,0.0,0.0,0.0,0.0,0.0,0.0,0.0,0.0,0.0,-2.9457,-3.0135,-2.9463,-2.9989,-3.0734,-3.0388,-3.1108,-3.2142,-3.2718,-3.2731,-3.263,-3.2901,-3.2753,-3.2737,-3.3307,-3.2425,-3.18,-3.2342,-3.2433,-3.2579,-3.3048,-3.411,0.0,-3.5257,-3.5305,0.0,-3.3407,0.0,-3.197,-3.0916,-3.0312,0.0,0.0,-3.0256,-3.0231,-2.9817,-2.9792,-2.9792,-2.9792,-2.9792,-2.9792,-2.9792,-2.9176,-2.8373,-2.7281,-2.7281,-2.7027,-2.6499,-2.6499,-2.626,-2.5812,-2.5661,-2.5372,-2.4976,-2.4598,-2.4332,-2.4161,-2.3778,-2.3499,-2.3308,-2.3158,-2.2844,-2.2556,0.0,0.0,0.0,0.0,0.0,0.0,0.0,0.0,0.0,0.0,0.0,0.0,0.0,0.0,0.0,0.0,0.0,0.0,0.0,0.0,0.0,0.0,0.0,0.0,0.0,0.0,0.0,0.0,0.0,0.0,-3.3071,-3.4062,-3.4452,-3.4289,-3.3904,-3.3799,-3.3851,-3.2965,0.0,0.0,0.0,0.0,0.0,0.0,0.0,0.0,0.0,0.0,0.0,0.0,0.0,-2.9543,-2.9545,-2.9937,-3.0513,-3.1003,0.0,-3.2001,-3.2597,-3.3362,-3.4154,-3.4641,-3.4496,-3.4172,-3.4017,-3.3914,-3.3885,-3.3874,-3.2791,0.0,-3.2209,-3.1418,-3.107,0.0,0.0,0.0,-3.466,-3.4613,-3.3997,0.0,-3.2152,0.0,-3.0269,-2.993,-2.9792,0.0,-3.008,-3.0118,-2.9817,-2.9792,-2.9792,-2.9792,-2.9792,-2.9666,-2.9415,-2.9051,-2.8373,-2.7281,-2.7281,-2.7027,-2.6499,-2.6499,-2.6311,-2.5996,-2.5699,-2.531,-2.4775,-2.4556,-2.413,-2.3615,-2.3615,-2.3396,-2.3108,-2.3108,-2.2757,-2.2347,0.0,0.0,0.0,0.0,0.0,0.0,0.0,0.0,0.0,0.0,-3.0373,0.0,0.0,0.0,0.0,0.0,0.0,0.0,0.0,0.0,0.0,0.0,0.0,0.0,0.0,0.0,0.0,0.0,0.0,0.0,0.0,0.0,0.0,0.0,0.0,0.0,0.0,0.0,0.0,0.0,0.0,0.0,0.0,0.0,0.0,0.0,0.0,0.0,0.0,0.0,-2.9364,-2.9481,-3.0181,-3.0588,-3.1106,-3.2849,-3.3064,-3.3025,-3.4515,-3.5018,-3.515,-3.5387,-3.536,-3.519,-3.4731,-3.507,-3.531,-3.4653,0.0,-3.2624,-3.2518,-3.0573,-2.9505,-3.1151,0.0,-3.1397,-3.3602,-3.3483,-3.3106,-3.288,-3.1989,-3.116,-3.0557,-3.0068,-2.9792,-2.9792,-2.9792,-2.9792,-2.9792,-2.9792,-2.9792,-2.9792,-2.9792,-2.9553,-2.9013,-2.9001,-2.8486,-2.7394,-2.7394,-2.7102,-2.6499,-2.6499,-2.6449,-2.6348,-2.5812,-2.531,-2.475,-2.423,-2.3703,-2.3208,-2.3133,-2.3108,-2.3108,-2.3108,-2.2757,-2.2309,0.0,0.0,0.0,0.0,0.0,0.0,0.0,0.0,0.0,0.0,-3.026,-3.0215,0.0,0.0,0.0,0.0,0.0,0.0,0.0,0.0,0.0,0.0,0.0,0.0,0.0,0.0,0.0,0.0,0.0,0.0,0.0,0.0,0.0,0.0,0.0,0.0,0.0,0.0,0.0,0.0,0.0,0.0,0.0,0.0,0.0,0.0,0.0,0.0,0.0,0.0,-3.2353,-3.2069,-3.0424,-3.1717,-3.3755,-3.3214,-3.4152,-3.551,-3.6364,-3.7135,-3.773,-3.7803,-3.7372,-3.6677,-3.5591,-3.5415,0.0,0.0,-3.3714,-3.2794,-3.2069,-3.0832,-3.0265,-3.1228,0.0,0.0,0.0,0.0,-3.3244,0.0,0.0,0.0,0.0,-2.9842,0.0,0.0,-2.9792,-2.9792,-2.9792,-2.9792,-2.9792,-2.9792,-2.9792,-2.9741,-2.9641,-2.9641,-2.9076,-2.7959,-2.7959,-2.7444,-2.6499,-2.6499,-2.6235,-2.5737,-2.5636,-2.531,-2.475,-2.423,-2.3941,-2.3803,-2.3296,-2.3108,-2.3108,-2.3108,-2.2757,-2.2309,0.0,0.0,0.0,0.0,0.0,0.0,0.0,-2.9853,-2.9893,-2.9991,-3.0222,-3.0215,-2.9756,-2.9705,-2.9504,0.0,0.0,0.0,0.0,0.0,0.0,0.0,0.0,0.0,0.0,0.0,-2.9925,-3.017,0.0,0.0,0.0,-3.2924,-3.2853,-3.1565,0.0,0.0,0.0,0.0,0.0,0.0,0.0,0.0,0.0,0.0,0.0,0.0,0.0,0.0,0.0,0.0,-3.4187,-3.4598,-3.2363,-3.2968,-3.456,-3.4879,-3.5916,-3.7126,-3.8004,-3.8593,-3.8841,-3.8482,-3.7898,-3.6985,-3.534,0.0,0.0,0.0,-3.3226,-3.2406,-3.1881,-3.0423,0.0,0.0,0.0,0.0,0.0,0.0,0.0,0.0,0.0,0.0,0.0,-3.0055,-3.0105,-2.9817,-3.0055,-3.0093,-2.9804,-2.9792,-2.9792,-2.9792,-2.9792,-2.9792,-2.9792,-2.9792,-2.9227,-2.8109,-2.8109,-2.7532,-2.6499,-2.6499,-2.6336,-2.6084,-2.6084,-2.5586,-2.4788,-2.482,-2.4506,-2.3966,-2.369,-2.359,-2.3521,-2.3221,-2.2757,-2.2347,0.0,0.0,0.0,0.0,0.0,0.0,-2.9644,-2.972,-2.9818,-2.9931,-3.008,-3.0063,-2.9739,-2.9705,-2.9504,0.0,0.0,0.0,0.0,0.0,0.0,0.0,0.0,0.0,0.0,0.0,0.0,-3.086,-3.1662,0.0,0.0,0.0,0.0,0.0,-3.1582,-3.1642,-3.1489,0.0,0.0,0.0,0.0,-3.4325,0.0,0.0,0.0,0.0,0.0,0.0,0.0,0.0,-3.5643,-3.6314,-3.4566,-3.4618,-3.5472,-3.6343,-3.722,-3.8119,-3.9133,-3.9388,-3.9251,-3.8622,-3.8054,-3.7104,-3.5011,-3.4634,0.0,0.0,-3.2691,-3.2097,-3.1733,0.0,-2.8831,0.0,-2.9635,0.0,0.0,0.0,0.0,0.0,0.0,0.0,0.0,-3.047,0.0,-3.0168,-3.0432,-3.0382,-2.9829,-2.9792,-2.9792,-2.9792,-2.9792,-2.9792,-2.9792,-2.9792,-2.9289,-2.8285,-2.816,-2.7595,-2.6663,-2.6549,-2.6499,-2.6499,-2.6499,-2.5996,-2.5197,-2.5473,-2.5096,-2.433,-2.4217,-2.4104,-2.3941,-2.3459,-2.2932,-2.2506,0.0,0.0,0.0,0.0,0.0,0.0,-2.9424,-2.9246,-2.9241,-2.9678,-2.9589,-2.9542,-2.9687,-2.9705,-2.9504,0.0,0.0,0.0,0.0,0.0,0.0,0.0,0.0,0.0,0.0,0.0,0.0,-3.1693,-3.2505,0.0,0.0,0.0,0.0,0.0,0.0,-3.2445,-3.1749,-3.1749,0.0,0.0,0.0,0.0,0.0,0.0,0.0,0.0,0.0,0.0,0.0,0.0,0.0,-3.6365,-3.6118,-3.7044,-3.7937,-3.6428,0.0,0.0,-3.9209,-3.9388,-3.9273,-3.8729,-3.8542,-3.7835,-3.524,0.0,0.0,-3.2991,-3.2512,-3.2226,-3.1397,-2.9999,-2.9199,-3.003,0.0,-2.9672,0.0,0.0,0.0,0.0,0.0,0.0,0.0,-3.1009,-3.1298,-3.1248,-3.0846,-3.0382,-2.9829,-2.9792,-2.9792,-2.9792,-2.9792,-2.9792,-2.9792,-2.9792,-2.9478,-2.8813,-2.8348,-2.7795,-2.7228,-2.6725,-2.6499,-2.6499,-2.6499,-2.6436,-2.6311,-2.5799,-2.5536,-2.5398,-2.4933,-2.4443,-2.3991,-2.3941,-2.3552,-2.2957,0.0,0.0,0.0,0.0,0.0,0.0,-2.9167,-2.9304,-2.9446,-2.9513,-2.9661,-2.9705,-2.9542,-2.9523,-2.9375,-2.9021,0.0,0.0,0.0,0.0,0.0,0.0,0.0,0.0,0.0,0.0,-3.1451,-3.2512,-3.284,0.0,0.0,0.0,0.0,0.0,0.0,-3.2913,-3.2765,0.0,0.0,0.0,0.0,0.0,0.0,0.0,0.0,0.0,0.0,0.0,0.0,0.0,0.0,0.0,-3.6323,-3.6657,0.0,0.0,-3.7308,-3.8033,-3.9125,-3.9388,-3.9364,-3.9244,-3.8546,-3.7466,-3.5654,0.0,-3.3998,-3.275,-3.2168,-3.1753,-3.129,-3.0728,-3.0277,-3.0106,0.0,0.0,0.0,0.0,0.0,0.0,0.0,0.0,0.0,0.0,-3.1888,-3.1888,-3.1097,-3.052,-3.0306,-2.998,-2.9792,-2.9792,-2.9792,-2.9792,-2.9792,-2.9792,-2.9503,-2.8888,-2.8373,-2.7821,-2.7268,-2.6751,-2.6499,-2.6499,-2.6499,-2.6591,-2.6725,-2.6299,-2.6235,-2.6304,-2.5557,-2.4958,-2.4456,-2.4117,-2.364,-2.307,0.0,0.0,0.0,0.0,0.0,-2.9005,-2.9005,-2.9283,-2.9465,-2.9423,-2.9579,-2.9624,-2.9414,-2.933,-2.9222,-2.9017,-2.8633,0.0,0.0,0.0,0.0,0.0,0.0,0.0,0.0,0.0,-3.2232,-3.3239,-3.3315,-3.3553,0.0,0.0,-3.4295,-3.4173,0.0,0.0,0.0,0.0,0.0,0.0,0.0,0.0,0.0,0.0,0.0,0.0,0.0,0.0,0.0,0.0,0.0,0.0,0.0,0.0,0.0,0.0,-3.7157,-3.7662,-3.8786,-3.911,-3.9159,-3.929,-3.8269,-3.6956,0.0,0.0,-3.3655,-3.2939,-3.2435,-3.199,-3.1655,-3.1553,-3.1292,-3.0731,0.0,-3.0669,-3.0216,0.0,0.0,0.0,0.0,-3.0984,0.0,-3.2051,-3.2466,-3.2466,-3.1461,-3.0846,-3.0846,-3.0181,-2.9792,-2.9792,-2.9792,-2.9792,-2.9792,-2.9616,-2.9415,-2.9176,-2.8448,-2.7996,-2.7758,-2.7241,-2.6889,-2.6738,-2.6738,-2.6909,-2.7091,-2.6684,-2.6742,-2.7051,-2.6014,-2.5272,-2.4725,-2.4205,-2.364,-2.3108,0.0,0.0,0.0,0.0,0.0,0.0,-2.9005,-2.9005,-2.91,-2.9372,-2.916,-2.9112,-2.9372,-2.9167,-2.9005,-2.9005,-2.8633,0.0,0.0,0.0,0.0,0.0,0.0,0.0,0.0,0.0,-3.2981,-3.3788,-3.4062,-3.42,-3.4193,-3.454,-3.4832,-3.5086,0.0,0.0,0.0,0.0,0.0,0.0,0.0,0.0,-3.9879,0.0,0.0,0.0,0.0,0.0,0.0,0.0,0.0,0.0,0.0,-3.7757,0.0,0.0,-3.6446,-3.7626,-3.8241,-3.8407,-3.8436,-3.8583,-3.759,-3.644,0.0,0.0,-3.4444,-3.3674,-3.3468,-3.3275,-3.2602,-3.2317,-3.2173,-3.2094,-3.1917,0.0,-3.198,0.0,0.0,0.0,0.0,-3.1386,-3.1386,-3.2416,-3.3111,-3.3111,-3.2026,-3.1386,-3.1386,-3.0369,-2.9792,-2.9792,-2.9792,-2.9792,-2.9792,-2.9227,-2.9227,-2.9767,-2.8649,-2.8386,-2.8863,-2.8335,-2.7795,-2.7268,-2.7268,-2.7451,-2.7624,-2.685,-2.6973,-2.7538,-2.6166,-2.5272,-2.4725,-2.4205,-2.364,-2.3108,0.0,0.0,0.0,0.0,0.0,0.0,-2.928,-2.9395,-2.9387,-2.9167,-2.9203,-2.9235,-2.9145,-2.8821,-2.8813,-2.935,-2.8573,0.0,0.0,0.0,0.0,0.0,0.0,0.0,0.0,-3.2593,-3.3267,-3.3807,-3.4164,-3.4595,-3.5094,-3.5189,-3.5501,-3.5898,-3.5344,-3.5207,0.0,0.0,0.0,0.0,0.0,-3.9232,-4.0075,0.0,0.0,0.0,0.0,0.0,0.0,0.0,0.0,0.0,0.0,0.0,0.0,-3.6258,-3.6588,-3.6999,-3.7583,-3.7719,-3.7744,-3.7877,-3.6879,-3.5809,-3.5654,0.0,-3.3809,-3.356,-3.3517,-3.344,-3.3215,-3.3523,-3.375,-3.375,-3.2972,0.0,0.0,0.0,0.0,0.0,-3.1072,-3.1537,0.0,0.0,-3.2654,-3.3056,-3.2026,-3.1386,-3.1386,-3.0369,-2.9792,-2.9792,-2.9792,-2.9792,-2.9792,-2.9616,-2.9616,-2.9779,-2.9038,-2.8725,-2.8875,-2.836,-2.7808,-2.7281,-2.7281,-2.7451,-2.7637,-2.685,-2.6973,-2.7538,-2.6133,-2.5498,-2.5234,-2.433,-2.3891,-2.3665,0.0,0.0,0.0,0.0,0.0,0.0,-2.9414,-2.9415,-2.9316,-2.9033,-2.9145,-2.92,-2.9028,-2.8645,-2.8719,-2.9535,-2.8663,0.0,0.0,0.0,0.0,0.0,0.0,0.0,-3.1631,-3.2665,-3.3243,-3.3314,-3.375,-3.4175,-3.4634,-3.4891,-3.5417,-3.6122,-3.5404,-3.5411,0.0,0.0,0.0,0.0,-3.8844,-3.9067,-3.9734,0.0,0.0,0.0,0.0,0.0,0.0,0.0,0.0,0.0,0.0,0.0,0.0,0.0,-3.6244,-3.6353,0.0,-3.6881,-3.6715,-3.677,-3.5584,0.0,0.0,0.0,-3.3279,-3.3788,-3.3879,-3.3784,-3.3544,-3.4247,-3.4786,-3.4548,-3.3724,-3.2996,0.0,0.0,0.0,-3.0295,0.0,0.0,0.0,-3.1976,-3.2277,-3.2428,-3.1788,-3.1298,-3.111,-3.0269,-2.9792,-2.9792,-2.9792,-2.9792,-2.9792,-2.9578,-2.9578,-2.9779,-2.9202,-2.9001,-2.9239,-2.89,-2.8323,-2.7595,-2.7595,-2.7655,0.0,-2.685,-2.6973,-2.7538,-2.6133,-2.5598,-2.5473,-2.4393,-2.4004,-2.3916,0.0,0.0,0.0,0.0,0.0,0.0,0.0,-2.9192,-2.9028,-2.9005,-2.9005,-2.9005,-2.9005,-2.8645,-2.8737,-2.9611,-2.8956,0.0,0.0,0.0,0.0,0.0,0.0,0.0,-3.2022,-3.2802,-3.3001,-3.2639,-3.3073,-3.3307,-3.3376,-3.4004,-3.4884,-3.5931,-3.5409,-3.582,-3.6901,-3.7107,-3.8177,-3.9668,-3.8423,-3.8454,0.0,0.0,0.0,0.0,0.0,0.0,0.0,0.0,0.0,0.0,0.0,0.0,0.0,0.0,0.0,0.0,0.0,-3.5863,-3.5444,-3.5489,-3.4038,-3.2915,-3.4217,0.0,0.0,0.0,-3.4486,-3.4324,-3.3679,-3.4637,-3.5295,-3.4651,-3.42,-3.3602,0.0,-3.1742,0.0,0.0,-3.0218,0.0,-3.062,-3.1512,-3.1913,-3.1486,-3.1386,-3.1122,-3.0645,-3.0093,-2.9792,-2.9792,-2.9792,-2.9792,-2.9792,-2.9252,-2.9264,-2.9779,-2.9252,-2.9277,-2.9792,-2.9792,-2.9176,-2.8109,-2.8109,-2.7918,-2.7571,-2.6816,-2.6939,-2.7485,-2.6095,-2.5561,-2.546,-2.4356,-2.3966,-2.3916,0.0,0.0,0.0,0.0,0.0,0.0,0.0,0.0,0.0,0.0,-2.9005,-2.9005,-2.9005,-2.8645,-2.8971,0.0,0.0,0.0,0.0,0.0,0.0,0.0,0.0,0.0,-3.2446,-3.2947,-3.3427,-3.3882,-3.404,-3.4411,-3.497,-3.5116,-3.567,-3.6502,-3.6159,-3.7015,-3.8658,-3.8209,-3.9345,-4.1261,-3.9079,-3.9066,0.0,0.0,0.0,0.0,-3.7246,-3.6794,0.0,0.0,0.0,0.0,0.0,0.0,0.0,0.0,-3.4497,-3.4015,-3.4175,0.0,-3.4846,-3.537,-3.4382,-3.3486,0.0,0.0,0.0,0.0,0.0,0.0,0.0,-3.4936,-3.5444,-3.5295,-3.3941,-3.2855,-3.2629,0.0,0.0,-2.9176,-2.9641,-3.0156,-3.057,-3.0846,-3.1273,-3.1964,-3.126,-3.0746,-3.062,-3.0093,-2.9792,-2.9792,-2.9792,-2.9792,-2.9792,-2.9654,-2.9654,-2.9792,-2.9654,-2.9666,-2.9792,-2.9792,-2.9176,-2.8109,-2.8109,-2.7612,-2.6782,-2.6589,-2.6624,-2.6646,-2.5451,-2.5247,-2.541,-2.3891,-2.3584,-2.3916,0.0,0.0,0.0,0.0,0.0,0.0,0.0,0.0,0.0,0.0,-2.9005,-2.9005,-2.9005,-2.8645,-2.9043,0.0,0.0,0.0,0.0,0.0,0.0,0.0,0.0,-3.157,-3.1986,-3.2367,-3.2762,-3.3154,-3.3559,-3.389,-3.4142,-3.4688,-3.5573,-3.6721,-3.721,-3.8056,-3.9042,-3.8517,-3.9526,-4.1249,-3.8776,0.0,0.0,0.0,0.0,0.0,-3.6248,-3.5787,0.0,-3.4847,-3.4288,-3.3686,0.0,0.0,0.0,0.0,-3.338,-3.311,-3.341,-3.3529,-3.3664,-3.4038,-3.3589,-3.314,-3.3499,0.0,0.0,0.0,0.0,0.0,0.0,0.0,0.0,-3.4225,-3.2939,0.0,0.0,0.0,-2.9261,-2.8878,-2.9183,-2.951,-2.9763,-3.0276,-3.0758,-3.1072,-3.0809,-3.0507,-3.0256,-2.9955,-2.9792,-2.9792,-2.9792,-2.9792,-2.9792,-2.9792,-2.9792,-2.9792,-2.9792,-2.9792,-2.9792,-2.9792,-2.9176,-2.8109,-2.8109,-2.7482,-2.6499,-2.6499,-2.6499,-2.6411,-2.5511,-2.5347,-2.5423,-2.4042,-2.3728,-2.3916,0.0,0.0,0.0,0.0,0.0,0.0,0.0,0.0,0.0,0.0,0.0,0.0,0.0,0.0,0.0,0.0,0.0,0.0,0.0,0.0,0.0,0.0,-3.0741,-3.137,-3.1494,-3.176,-3.1931,-3.198,-3.2608,-3.2844,-3.2695,-3.3671,-3.5049,-3.6764,-3.8204,-3.8878,-3.8917,-3.8697,-3.9512,-4.0715,-3.8428,0.0,0.0,0.0,0.0,0.0,0.0,0.0,0.0,-3.3659,-3.2986,-3.2327,-3.1697,0.0,0.0,0.0,0.0,0.0,-3.3036,-3.2856,-3.2512,-3.2647,-3.2587,-3.2512,-3.2512,0.0,0.0,0.0,0.0,0.0,0.0,0.0,0.0,0.0,0.0,0.0,-2.9789,-2.93,-2.8955,-2.8707,-2.8893,-2.9018,-2.8975,-2.9887,-3.0331,-2.9942,-3.0269,-3.0281,-2.9817,-2.9792,-2.9792,-2.9792,-2.9792,-2.9792,-2.9792,-2.9792,-2.9792,-2.9792,-2.9792,-2.9792,-2.9792,-2.9792,-2.9176,-2.8109,-2.8109,-2.7482,-2.6499,-2.6499,-2.6499,-2.6424,-2.5737,-2.5473,-2.5347,-2.4268,-2.3866,-2.3778,0.0,0.0,0.0,0.0,0.0,0.0,0.0,0.0,0.0,0.0,0.0,0.0,0.0,0.0,0.0,0.0,0.0,0.0,0.0,0.0,0.0,-3.097,-3.1167,-3.1618,-3.2306,-3.2363,-3.2529,-3.2811,-3.2669,-3.2858,-3.3439,-3.3398,-3.4562,-3.6777,-3.834,-3.9214,-3.9494,-3.9838,-4.057,-4.132,-3.9519,0.0,0.0,0.0,0.0,0.0,0.0,0.0,0.0,-3.2986,-3.2272,-3.164,-3.1539,0.0,0.0,0.0,0.0,0.0,-3.178,-3.2138,-3.2647,-3.32,-3.2931,-3.2512,-3.2512,0.0,0.0,0.0,0.0,0.0,0.0,0.0,0.0,0.0,0.0,-3.0661,0.0,0.0,-2.9264,-2.8174,-2.9015,-2.9651,-2.9646,-2.9788,-3.008,-3.0457,-3.0131,-2.988,-2.9792,-2.9792,-2.9792,-2.9792,-2.9792,-2.9792,-2.9792,-2.9792,-2.9792,-2.9792,-2.9792,-2.9792,-2.9792,-2.9792,-2.9176,-2.8109,-2.8109,-2.7482,-2.6499,-2.6499,-2.6499,-2.6386,-2.5335,-2.4913,-2.4775,-2.3647,-2.3233,-2.3095,0.0,0.0,0.0,0.0,0.0,0.0,0.0,0.0,0.0,0.0,0.0,0.0,0.0,0.0,0.0,0.0,0.0,0.0,0.0,0.0,-3.1826,-3.1058,-3.0853,-3.1028,-3.1613,-3.1425,-3.15,-3.188,-3.2211,-3.2469,-3.2651,-3.391,-3.5432,-3.7193,-3.8497,-3.9192,-3.9333,-3.9557,-4.0128,-4.0746,0.0,0.0,0.0,0.0,0.0,0.0,0.0,0.0,0.0,0.0,-3.212,-3.1511,-3.1511,0.0,0.0,0.0,0.0,0.0,-3.1511,-3.172,-3.199,-3.2175,-3.252,-3.2497,-3.13,0.0,0.0,0.0,0.0,0.0,0.0,0.0,-3.1473,-3.0353,0.0,-2.9985,-2.8618,-2.8929,-2.9091,-2.8464,-2.8942,-2.9322,-2.9236,-2.9591,-2.9892,-3.0156,-2.993,-2.9792,-2.9792,-2.9792,-2.9792,-2.9792,-2.9792,-2.9792,-2.9792,-2.9792,-2.9792,-2.9792,-2.9792,-2.9792,-2.9792,-2.9792,-2.9176,-2.8109,-2.8109,-2.7482,-2.6499,-2.6499,-2.6311,-2.5912,-2.5134,-2.4612,-2.4268,-2.3409,-2.3108,-2.2945,0.0,0.0,0.0,0.0,0.0,0.0,0.0,0.0,0.0,0.0,0.0,0.0,0.0,0.0,0.0,0.0,0.0,0.0,0.0,-3.2286,-3.2159,-3.1166,-3.0456,-3.0227,-3.054,-3.0264,-3.0306,-3.0774,-3.1483,-3.1924,-3.2119,-3.4531,-3.6258,-3.7357,-3.8368,-3.8892,-3.9031,-3.9421,-3.9927,-4.0392,0.0,0.0,0.0,0.0,0.0,0.0,0.0,0.0,0.0,0.0,0.0,0.0,0.0,0.0,0.0,-3.1511,-3.1511,-3.1511,-3.1511,-3.1455,-3.1294,-3.0747,-3.1532,-3.2011,-3.0358,0.0,0.0,0.0,0.0,0.0,0.0,-3.047,0.0,-2.8032,-2.845,-2.8657,-2.7603,-2.8201,-2.8629,-2.8433,-2.8809,-2.9094,-2.9048,-2.9483,-2.9792,-2.9792,-2.9792,-2.9792,-2.9792,-2.9792,-2.9792,-2.9792,-2.9792,-2.9792,-2.9792,-2.9792,-2.9792,-2.9792,-2.9792,-2.9729,-2.9591,-2.9729,-2.9101,-2.7921,-2.8047,-2.7482,-2.6499,-2.6499,-2.6147,-2.5548,-2.4988,-2.4406,-2.374,-2.3271,-2.3108,-2.2945,0.0,0.0,0.0,0.0,0.0,0.0,0.0,0.0,0.0,0.0,0.0,0.0,0.0,0.0,0.0,0.0,0.0,0.0,0.0,-3.213,-3.2533,-3.1771,-3.0273,-2.9496,-2.9502,-2.9496,-2.9761,-3.0339,-3.0405,-3.1295,-3.2951,-3.4955,-3.6203,-3.6791,-3.7618,-3.8263,-3.8845,-4.0317,-4.0997,-4.1107,-4.1721,0.0,0.0,0.0,0.0,0.0,0.0,0.0,0.0,0.0,0.0,0.0,0.0,0.0,-3.1511,-3.1511,-3.1511,-3.1511,-3.1511,-3.1382,-3.0898,-2.9498,-2.9831,0.0,-3.0527,-3.027,0.0,0.0,0.0,0.0,0.0,-2.9603,-2.7964,-2.6801,-2.6678,-2.6462,-2.5689,-2.708,-2.7916,-2.7302,-2.8699,-2.9715,-2.9713,-2.9765,-2.9792,-2.9792,-2.9792,-2.9792,-2.9792,-2.9792,-2.9792,-2.9792,-2.9792,-2.9792,-2.9792,-2.9792,-2.9792,-2.9792,-2.9792,-2.9515,-2.8963,-2.9553,-2.89,-2.7369,-2.7883,-2.7482,-2.6499,-2.6499,-2.6147,-2.5548,-2.4988,-2.4123,-2.3158,-2.312,-2.3108,-2.2945,0.0,0.0,0.0,0.0,0.0,0.0,0.0,0.0,0.0,0.0,0.0,-3.1054,-3.1378,0.0,0.0,0.0,0.0,0.0,0.0,-3.2817,-3.2841,-3.1723,-3.0449,-2.9472,-2.885,-2.885,-2.9134,-2.9739,-3.0945,-3.2289,-3.3767,-3.4985,-3.6047,-3.7023,-3.7326,-3.7738,-3.8236,-3.8854,-3.9311,-3.9627,-3.9937,-3.9549,0.0,0.0,0.0,0.0,0.0,0.0,0.0,0.0,-3.183,-3.0943,-3.1376,-3.0943,-3.0477,-3.1271,-3.1197,-3.0768,-3.0337,-3.0655,-3.0674,-2.8706,0.0,0.0,0.0,0.0,0.0,0.0,0.0,0.0,0.0,0.0,-2.7763,-2.6678,-2.6524,-2.6166,-2.5167,-2.6809,-2.8007,-2.7737,-2.894,-2.9792,-2.9792,-2.9792,-2.9792,-2.9792,-2.9792,-2.9792,-2.9792,-2.9792,-2.9792,-2.9792,-2.9792,-2.9792,-2.9792,-2.9792,-2.9792,-2.9792,-2.9792,-2.9679,-2.9478,-2.9691,-2.9063,-2.7808,-2.8009,-2.7482,-2.6461,-2.6109,-2.5598,-2.5021,-2.4098,-2.3484,-2.3058,-2.2719,-2.2594,-2.2489,0.0,0.0,0.0,0.0,0.0,0.0,0.0,0.0,-2.9499,0.0,0.0,0.0,0.0,-3.1329,0.0,0.0,0.0,0.0,-3.2699,-3.3351,-3.3273,-3.2284,-3.0993,-2.9969,-2.9281,-2.8957,-2.8989,-2.9406,-3.1586,-3.3087,-3.3982,-3.4943,-3.5937,-3.696,-3.696,-3.7229,-3.7703,-3.7954,-3.836,-3.8848,-3.9088,-3.8933,0.0,0.0,0.0,0.0,0.0,0.0,0.0,0.0,-3.1962,-3.0866,-3.1107,-3.0746,-3.0328,-3.0972,-3.1002,-3.0592,-2.9668,-2.9916,-2.9964,0.0,0.0,0.0,0.0,0.0,0.0,0.0,0.0,0.0,0.0,0.0,0.0,0.0,-2.5641,-2.5136,-2.4382,-2.6202,-2.7602,-2.7602,-2.891,-2.9792,-2.9792,-2.9792,-2.9792,-2.9792,-2.9792,-2.9792,-2.9792,-2.9792,-2.9792,-2.9792,-2.9792,-2.9792,-2.9792,-2.9792,-2.9792,-2.9792,-2.9792,-2.9691,-2.9528,-2.9704,-2.9076,-2.7858,-2.8034,-2.7482,-2.6461,-2.6059,-2.546,-2.4675,-2.3547,-2.3258,-2.3433,-2.308,-2.2955,-2.2927,0.0,0.0,0.0,0.0,0.0,0.0,0.0,0.0,-2.928,-3.0099,-3.021,0.0,0.0,0.0,0.0,0.0,0.0,0.0,-3.2974,-3.3634,-3.3882,-3.3595,-3.1864,-3.09,-3.09,-2.9935,-2.9422,-2.9422,-3.2102,-3.3385,-3.3419,-3.489,-3.5859,-3.6357,-3.6395,-3.6684,-3.7245,-3.8042,-3.8648,-3.9156,-3.995,-4.0123,-3.9768,0.0,0.0,0.0,0.0,0.0,0.0,0.0,-3.2664,-3.1376,-3.0717,-3.0943,-3.1346,-3.0702,-3.0957,-3.1187,-2.9755,-2.9195,-2.8629,0.0,0.0,0.0,0.0,0.0,0.0,0.0,0.0,-2.9443,-2.8295,-2.7197,0.0,-2.4999,-2.3844,-2.3091,-2.3091,-2.5062,-2.6483,-2.6524,-2.8462,-2.9792,-2.9792,-2.9792,-2.9792,-2.9792,-2.9792,-2.9792,-2.9792,-2.9792,-2.9792,-2.9792,-2.9792,-2.9792,-2.9792,-2.9779,-2.9779,-2.9792,-2.9779,-2.949,-2.8913,-2.9528,-2.8875,-2.7318,-2.7858,-2.7469,-2.6499,-2.6487,-2.5799,-2.4662,-2.3547,-2.359,-2.4292,-2.4308,-2.4334,-2.4418,0.0,0.0,0.0,0.0,0.0,0.0,0.0,0.0,-2.9499,-3.0123,-3.021,0.0,0.0,0.0,0.0,0.0,0.0,0.0,-3.3233,-3.3467,-3.3306,-3.2716,-3.2179,-3.1582,-3.09,-3.0832,-3.0817,-3.0817,-3.2073,-3.273,-3.279,-3.3715,-3.3956,-3.37,-3.4626,-3.5352,-3.5896,-3.6661,-3.7294,-3.7771,-3.8021,-3.806,-3.7918,0.0,0.0,0.0,0.0,0.0,0.0,0.0,0.0,0.0,-3.0734,-3.0342,-3.0208,-3.0432,-3.0231,-2.9653,-2.8277,-2.8002,0.0,-2.6341,0.0,0.0,0.0,0.0,0.0,0.0,0.0,-2.8071,-2.8104,-2.6573,0.0,-2.4872,-2.3844,-2.3091,-2.3091,-2.4382,-2.5588,-2.6389,-2.7747,-2.8937,-2.9702,-2.9792,-2.9792,-2.9792,-2.9792,-2.9792,-2.9792,-2.9792,-2.9792,-2.9792,-2.9792,-2.9792,-2.9792,-2.939,-2.939,-2.9779,-2.9377,-2.9315,-2.9528,-2.9289,-2.8699,-2.7846,-2.762,-2.7153,-2.6436,-2.5624,-2.4612,-2.3633,-2.385,-2.4089,-2.4326,-2.4407,-2.4449,-2.4496,0.0,0.0,0.0,0.0,0.0,0.0,-2.901,-2.9145,-2.9355,-2.9671,-2.9721,-3.0338,0.0,0.0,0.0,-3.3864,-3.3197,0.0,-3.3863,-3.4017,-3.3823,-3.3275,-3.2966,-3.2479,-3.1758,-3.2034,-3.235,-3.2634,-3.2497,-3.2467,-3.2496,-3.2688,-3.2655,-3.2551,-3.3356,-3.4167,-3.5002,-3.5462,-3.6121,-3.6882,-3.6882,-3.7001,-3.7135,0.0,0.0,0.0,0.0,0.0,0.0,0.0,0.0,0.0,-3.1146,-3.0681,-3.0317,-3.0097,-2.9696,-2.9012,-2.7531,-2.7251,0.0,-2.562,-2.5636,-2.6075,-2.6527,0.0,0.0,0.0,0.0,-2.7081,-2.7383,-2.5994,0.0,-2.4787,-2.3844,-2.3091,-2.3091,-2.4092,-2.521,-2.6348,-2.7452,-2.8557,-2.9702,-2.9792,-2.9792,-2.9792,-2.9792,-2.9792,-2.9792,-2.9792,-2.9792,-2.9792,-2.9792,-2.9792,-2.9792,-2.9176,-2.9063,-2.9453,-2.9051,-2.9001,-2.9114,-2.8988,-2.8511,-2.7745,-2.7228,-2.6675,-2.6084,-2.5184,-2.4438,-2.391,-2.4181,-2.4652,-2.519,-2.5267,-2.5317,-2.5386,0.0,0.0,-2.9005,-2.9005,0.0,0.0,-2.9005,-2.906,-2.9115,-2.9115,-2.9115,-2.9684,0.0,0.0,0.0,-3.3516,-3.35,-3.3723,-3.4554,-3.4803,-3.4812,-3.4591,-3.3951,-3.3445,-3.3166,-3.3373,-3.3774,-3.4322,-3.3028,-3.2428,-3.2406,-3.1724,-3.1666,-3.2141,-3.2319,-3.3068,-3.4221,-3.4349,-3.5062,-3.6122,-3.6132,-3.6461,-3.6913,-3.6426,0.0,0.0,0.0,0.0,0.0,0.0,0.0,0.0,-3.1834,-3.1598,-3.1289,-2.9682,-2.9261,-2.8937,-2.7292,0.0,0.0,-2.5107,-2.5532,0.0,-2.5449,-2.5754,-2.6199,-2.6375,0.0,-2.6348,-2.6348,-2.542,-2.4607,-2.4607,-2.374,-2.3042,-2.3042,-2.3945,-2.5041,-2.6224,-2.7279,-2.8398,-2.9534,-2.9753,-2.9792,-2.9792,-2.9792,-2.9792,-2.9792,-2.9792,-2.9792,-2.9792,-2.9792,-2.9792,-2.9792,-2.9164,-2.8838,-2.8888,-2.8787,-2.8511,-2.8047,-2.8562,-2.8222,-2.714,-2.6637,-2.6059,-2.541,-2.4946,-2.4866,-2.4988,-2.4548,-2.5259,-2.651,-2.659,-2.6641,-2.6791,0.0,0.0,-2.9005,-2.9005,0.0,0.0,-2.9005,-2.9537,-2.9953,-2.9953,-2.9953,-3.032,-3.1286,-3.125,0.0,-3.3047,-3.3119,-3.3344,-3.3954,-3.3644,-3.3519,-3.3673,-3.3642,-3.3858,-3.4393,-3.4312,-3.3837,-3.2945,-3.2111,-3.1748,-3.1772,-3.0535,-2.9734,-2.9423,-3.0955,-3.1808,-3.2137,-3.3186,-3.3791,-3.4062,-3.4108,-3.4504,-3.5066,-3.5014,-3.5311,0.0,0.0,0.0,0.0,0.0,0.0,0.0,-3.2134,-3.1936,-3.1888,-2.9344,-2.8522,-2.8146,-2.6685,-2.5779,0.0,0.0,-2.4529,-2.398,-2.3338,-2.3269,-2.3824,-2.5473,-2.5441,-2.5168,-2.5168,-2.4211,-2.3355,-2.307,-2.2808,-2.2646,-2.2646,-2.285,-2.3545,-2.4999,-2.6171,-2.729,-2.8347,-2.9275,-2.9792,-2.9792,-2.9792,-2.9792,-2.9792,-2.9792,-2.9792,-2.9792,-2.9792,-2.9792,-2.9792,-2.8787,-2.8461,-2.8888,-2.8047,-2.757,-2.7482,-2.8034,-2.7431,-2.595,-2.5837,-2.5234,-2.433,-2.4217,-2.4277,-2.4522,-2.4977,-2.5701,-2.6563,-2.7152,-2.7369,-2.7405,0.0,0.0,0.0,0.0,0.0,0.0,0.0,0.0,-3.021,-3.021,-3.021,-3.0503,-3.1323,-3.1054,0.0,0.0,-3.2922,-3.3287,-3.3948,-3.389,-3.3982,-3.4386,-3.4597,-3.473,-3.4801,-3.4596,-3.3839,-3.2496,-3.1503,-3.1055,-3.1081,-2.9709,-2.9041,-2.9007,-3.0053,-3.082,-3.1445,-3.214,-3.2832,-3.3456,-3.3505,-3.3545,-3.3601,-3.3631,-3.3844,-3.4158,-3.4509,0.0,0.0,0.0,0.0,0.0,0.0,0.0,-3.2179,-2.9954,-2.8584,-2.752,0.0,0.0,0.0,0.0,0.0,0.0,-2.2274,-2.2207,-2.2532,-2.3597,-2.3753,-2.363,-2.3469,-2.2944,-2.2471,-2.2246,-2.2207,-2.2207,-2.2207,-2.2383,-2.2993,-2.4357,-2.5208,-2.613,-2.7238,-2.7879,-2.8211,-2.8211,-2.87,-2.8988,-2.8988,-2.9495,-2.9792,-2.9792,-2.9792,-2.9792,-2.9792,-2.8938,-2.8511,-2.8524,-2.7946,-2.7544,-2.7281,-2.7306,-2.6691,-2.5598,-2.5598,-2.4983,-2.4004,-2.4004,-2.4326,-2.4879,-2.5259,-2.6081,-2.706,-2.7458,-2.76,-2.76,0.0,0.0,0.0,0.0,0.0,0.0,0.0,0.0,0.0,-3.0411,-3.054,-3.0815,-3.1342,-3.0797,-3.0889,0.0,0.0,0.0,-3.3946,-3.4381,-3.4925,-3.5615,-3.5636,-3.5421,-3.5031,-3.4527,-3.3577,-3.2163,-3.0951,-3.0369,-3.0397,-2.915,-2.8934,-2.952,-2.9521,-3.0085,-3.1067,-3.1063,-3.179,-3.2973,-3.297,-3.2757,-3.2415,-3.2419,-3.2402,-3.2426,-3.3156,-3.3728,-3.4257,-3.4986,0.0,0.0,0.0,0.0,-3.2418,-3.0646,-2.8983,-2.7432,0.0,0.0,0.0,0.0,0.0,0.0,-2.1799,-2.1777,-2.1748,-2.167,-2.206,-2.2295,-2.1953,-2.1885,-2.1865,-2.1787,-2.1777,-2.1797,-2.1875,-2.2187,-2.278,-2.3898,-2.4483,-2.5168,-2.6099,-2.6389,-2.6524,-2.6524,-2.7481,-2.8096,-2.8096,-2.9197,-2.9792,-2.9792,-2.9792,-2.9741,-2.9641,-2.9076,-2.8511,-2.7959,-2.7871,-2.7582,-2.7153,-2.66,-2.6034,-2.546,-2.536,-2.4822,-2.4057,-2.4057,-2.4669,-2.5591,-2.5591,-2.6402,-2.76,-2.76,-2.76,-2.76,0.0,0.0,0.0,0.0,0.0,0.0,0.0,0.0,0.0,0.0,-3.1861,-3.2063,-3.147,-3.1305,-3.1054,-3.0558,-3.1826,-3.2804,-3.3134,0.0,0.0,-3.6145,-3.5108,-3.4931,-3.5828,-3.422,-3.2529,-3.0783,-3.0053,-2.9724,-2.9711,-2.8959,-2.8959,-2.9576,-2.9536,-2.9592,-2.9741,-2.9692,-3.0112,-3.0806,-3.0869,-3.1205,-3.1654,-3.1705,-3.1729,-3.1788,-3.2413,-3.2689,-3.2862,-3.3472,-3.363,0.0,0.0,0.0,-3.2854,-3.0212,-2.9331,-2.8843,0.0,0.0,0.0,0.0,0.0,0.0,0.0,0.0,-2.1171,0.0,-2.1437,-2.1953,-2.1894,-2.1885,-2.1768,-2.1346,-2.1278,-2.1455,-2.1836,-2.1934,-2.2278,-2.3132,-2.418,-2.4872,-2.4999,-2.5933,-2.6524,-2.6524,-2.7481,-2.8096,-2.8096,-2.9197,-2.9792,-2.9792,-2.9792,-2.9553,-2.9013,-2.8499,-2.7946,-2.7394,-2.6939,-2.6675,-2.6587,-2.5975,-2.5423,-2.4863,-2.4418,-2.4229,-2.4265,-2.4265,-2.5089,-2.6336,-2.6336,-2.6852,-2.76,-2.76,-2.76,-2.76,0.0,0.0,0.0,0.0,0.0,0.0,0.0,0.0,0.0,0.0,0.0,-3.1788,-3.1452,-3.1397,-3.1268,-3.0889,-3.1935,-3.2831,-3.342,-3.4214,-3.4929,-3.555,-3.5193,-3.4888,-3.473,-3.3649,-3.2051,-2.9877,-2.9601,-2.9283,-2.8861,-2.8583,-2.9037,-3.0116,-3.0056,-3.0051,-3.0051,-3.0038,-3.0387,-3.0933,-3.0608,-3.0464,-3.0444,-3.0468,-3.0212,-3.0006,-3.107,-3.142,-3.1469,-3.2167,-3.2624,-3.284,-3.2557,0.0,0.0,0.0,-3.0041,0.0,-2.6451,0.0,0.0,0.0,0.0,0.0,-2.0987,0.0,-2.0801,-2.0644,-2.0918,-2.1182,-2.1182,-2.1182,-2.1084,-2.0889,-2.0859,-2.1016,-2.1455,-2.1728,-2.2109,-2.2672,-2.3411,-2.3844,-2.3844,-2.4307,-2.4851,-2.5504,-2.6584,-2.7493,-2.8084,-2.9197,-2.9792,-2.9792,-2.9792,-2.9515,-2.89,-2.865,-2.8134,-2.7268,-2.6763,-2.6499,-2.6508,-2.637,-2.5987,-2.5356,-2.4406,-2.4339,-2.4879,-2.4452,-2.5175,-2.651,-2.651,-2.6956,-2.76,-2.76,-2.76,-2.76,0.0,0.0,0.0,0.0,0.0,0.0,0.0,0.0,0.0,0.0,0.0,-3.1696,-3.1696,0.0,0.0,0.0,-3.2137,-3.2931,-3.3752,-3.4362,-3.4784,-3.5004,-3.5045,-3.4641,-3.3719,-3.3018,-3.1582,-2.9406,-2.9248,-2.8898,-2.839,-2.839,-2.9148,-3.0507,-3.0296,-3.0318,-3.0477,-3.035,-3.0615,-3.111,-3.0508,-2.9989,-2.9592,-2.9427,-2.8888,-2.8433,-2.9617,-3.0026,-3.0092,-3.0806,-3.1348,-3.1712,-3.1712,-3.1911,0.0,0.0,0.0,0.0,0.0,0.0,0.0,0.0,0.0,0.0,0.0,0.0,-2.0282,0.0,-2.0282,-2.0312,-2.0381,-2.0527,-2.0605,-2.0605,-2.0605,-2.0762,-2.1278,-2.1582,-2.1953,-2.2598,-2.2808,-2.2974,-2.3081,-2.3091,-2.3551,-2.4702,-2.585,-2.6964,-2.8044,-2.9197,-2.9792,-2.9792,-2.9641,-2.9302,-2.8687,-2.8448,-2.7896,-2.7102,-2.6688,-2.6499,-2.6508,-2.6798,-2.6709,-2.637,-2.5131,-2.5026,-2.5646,-2.5091,-2.5618,-2.6774,-2.6774,-2.7126,-2.76,-2.76,-2.76,-2.757,0.0,0.0,0.0,0.0,0.0,0.0,0.0,0.0,0.0,0.0,0.0,-3.2528,-3.2528,-3.2528,-3.2228,-3.147,-3.2137,-3.2931,-3.3752,-3.3844,-3.4197,-3.4968,-3.4293,0.0,-3.3701,-3.2371,-3.0922,-2.9406,-2.8826,-2.8556,-2.8584,-2.8584,-2.9283,-3.0479,-2.9711,-2.9783,-3.0473,-2.9873,-2.9993,-3.0503,-2.9873,-2.9633,-2.9532,-2.8891,-2.8229,-2.7725,-2.8387,-2.8604,-2.87,-2.9298,-2.9541,-2.9563,-2.9563,-3.0439,-3.1325,0.0,0.0,0.0,0.0,0.0,0.0,0.0,0.0,0.0,0.0,0.0,-1.9355,-1.9355,-1.9355,-1.9473,-1.9873,-2.0283,-2.0605,-2.0605,-2.0605,-2.0909,-2.1728,-2.1514,-2.1687,-2.2916,-2.273,-2.2705,-2.3052,-2.3091,-2.3551,-2.4702,-2.585,-2.6964,-2.8044,-2.9197,-2.9792,-2.9792,-2.9264,-2.8675,-2.816,-2.714,-2.66,-2.6537,-2.6512,-2.6499,-2.6508,-2.6798,-2.7251,-2.7827,-2.6748,-2.633,-2.6457,-2.6404,-2.6852,-2.7534,-2.7534,-2.7575,-2.76,-2.76,-2.76,-2.751,0.0,0.0,0.0,0.0,0.0,0.0,0.0,0.0,0.0,0.0,0.0,0.0,0.0,-3.1977,-3.2271,-3.147,-3.2365,-3.3114,-3.3404,-3.3404,-3.3531,-3.3822,-3.3812,-3.3664,-3.3396,-3.2588,-3.1578,-3.0352,-2.9514,-2.883,-2.8312,-2.7959,-2.8471,-2.9711,-2.945,-2.9973,-3.1093,-3.0366,-3.0468,-3.1047,-3.0013,-2.929,-2.877,-2.8181,-2.7528,-2.6923,-2.7189,-2.757,-2.7883,-2.7668,-2.8139,-2.8826,-2.8826,-2.9423,0.0,0.0,0.0,0.0,0.0,0.0,0.0,0.0,0.0,-2.2852,-2.2121,-2.0998,-1.9981,-1.9433,-1.9287,-1.9336,-1.9482,-1.9863,-2.0244,-2.0556,-2.0605,-2.0918,-2.1758,-2.1748,-2.2021,-2.2974,-2.2964,-2.2925,-2.3081,-2.3091,-2.3887,-2.5766,-2.6265,-2.7302,-2.9106,-2.9197,-2.9239,-2.9239,-2.8699,-2.8134,-2.7582,-2.6864,-2.6499,-2.6499,-2.6499,-2.6499,-2.6555,-2.7708,-2.7933,-2.7409,-2.8125,-2.8213,-2.7797,-2.6869,-2.693,-2.76,-2.76,-2.76,-2.76,-2.76,-2.76,-2.7495,0.0,0.0,0.0,-3.0784,0.0,-2.9574,-3.0118,-2.9399,-2.9089,-2.9886,0.0,0.0,0.0,0.0,-3.2069,-3.1783,-3.2493,-3.2968,-3.2968,-3.2968,-3.3029,-3.3199,-3.3465,-3.348,-3.3214,-3.2729,-3.1987,-3.0934,-3.0105,-2.9232,-2.8288,-2.7906,-2.8182,-2.9055,-2.8742,-2.945,-3.0733,-2.9707,-2.972,-3.028,-2.9023,-2.8423,-2.8167,-2.7409,-2.6839,-2.6405,-2.6442,-2.6637,-2.6787,-2.6385,-2.6802,-2.754,-2.7789,-2.8428,0.0,0.0,0.0,0.0,-2.8742,0.0,0.0,0.0,0.0,-2.4136,-2.3051,-2.18,-2.0557,-1.953,-1.9061,-1.8906,-1.9043,-1.9297,-1.9668,-2.0254,-2.0507,-2.086,-2.1562,-2.167,-2.1934,-2.2594,-2.2799,-2.2886,-2.2886,-2.3013,-2.4059,-2.6318,-2.6524,-2.7476,-2.9663,-2.9239,-2.8712,-2.8386,-2.8021,-2.7557,-2.7052,-2.6675,-2.6499,-2.6499,-2.6499,-2.6499,-2.6555,-2.8247,-2.8374,-2.7426,-2.8949,-2.9097,-2.8192,-2.7251,-2.7178,-2.76,-2.76,-2.76,-2.76,-2.76,-2.7465,-2.7165,-3.2668,-3.2797,-3.2667,-3.1599,-3.0748,-3.0204,-3.0192,-2.9208,-2.8719,-2.9485,0.0,0.0,0.0,0.0,0.0,-3.243,-3.2484,-3.2484,-3.2484,-3.2484,-3.2697,-3.3169,-3.3199,-3.3214,-3.3214,-3.2745,-3.2022,-3.1043,-3.0534,-2.9695,-2.8535,-2.8511,-2.8547,-2.8566,-2.7648,-2.7995,-2.9218,-2.7874,-2.7644,-2.8086,-2.688,-2.7014,-2.7817,-2.6593,-2.6139,-2.6124,-2.6112,-2.5811,-2.5411,-2.5448,-2.5506,-2.5662,-2.6406,-2.7476,0.0,0.0,0.0,0.0,0.0,0.0,0.0,0.0,0.0,0.0,-2.3569,-2.226,-2.106,-1.9659,-1.8697,-1.8213,-1.8545,-1.8623,-1.8906,-1.9746,-2.0254,-2.0703,-2.1132,-2.119,-2.1356,-2.1836,-2.2246,-2.249,-2.249,-2.2828,-2.3996,-2.6243,-2.6472,-2.7435,-2.9624,-2.9189,-2.8398,-2.7318,-2.7268,-2.704,-2.6499,-2.6499,-2.6499,-2.6499,-2.6499,-2.6499,-2.6555,-2.822,-2.8612,-2.8036,-2.911,-2.8828,-2.76,-2.76,-2.76,-2.76,-2.76,-2.7585,-2.757,-2.757,-2.7151,-2.6467,-3.2095,-3.27,-3.297,-3.1992,-3.1161,-3.0541,-3.0234,-2.9882,-2.9523,0.0,0.0,0.0,-3.0134,-3.0857,-3.1634,-3.243,-3.2179,-3.1986,-3.1986,-3.1986,-3.2196,-3.2665,-3.3014,-3.3332,-3.3638,-3.2887,-3.2366,-3.2074,-3.0897,-2.9908,-2.9134,-2.8709,-2.8547,-2.8525,-2.674,-2.64,-2.7241,-2.7216,-2.7598,-2.8086,-2.688,-2.6501,-2.6492,-2.5339,-2.4871,-2.4773,-2.4341,-2.4695,-2.5329,-2.4853,-2.5376,-2.6341,-2.7089,0.0,0.0,0.0,0.0,0.0,-2.899,0.0,0.0,0.0,0.0,0.0,-2.5484,-2.4193,-2.2732,-2.1342,-2.0728,-2.02,-1.9261,-1.9353,-1.9418,-1.9017,-1.9609,-2.0361,-2.1083,-2.119,-2.1356,-2.1836,-2.1992,-2.206,-2.206,-2.2441,-2.3253,-2.4719,-2.5859,-2.7087,-2.8518,-2.8411,-2.8009,-2.7306,-2.6927,-2.665,-2.6499,-2.6499,-2.6499,-2.6499,-2.6499,-2.6499,-2.6543,-2.7739,-2.7916,-2.7357,-2.8409,-2.8393,-2.76,-2.76,-2.76,-2.76,-2.76,-2.73,-2.6881,-2.6881,-2.6437,-2.5779,-3.2138,-3.285,-3.3282,-3.2625,-3.1415,-3.0582,-3.0656,-2.9941,-2.9343,0.0,0.0,0.0,-2.964,-3.0056,-3.0646,-3.1429,-3.1248,-3.1221,-3.1529,-3.1547,-3.1751,-3.2196,-3.2466,-3.2807,-3.3255,-3.2565,-3.2196,-3.2196,-3.0937,-2.9995,-2.9384,-2.8779,-2.8241,-2.7714,-2.6448,-2.5775,-2.5578,-2.5909,-2.6179,-2.6396,-2.5685,-2.5608,-2.5792,-2.4906,-2.4524,-2.4434,-2.3848,-2.3982,-2.4403,-2.4053,-2.468,-2.5737,-2.648,-2.6916,0.0,0.0,0.0,0.0,0.0,0.0,0.0,0.0,0.0,0.0,-2.6536,-2.5317,-2.3903,-2.2197,-2.1476,-2.0904,-2.0054,-2.0061,-1.9997,-1.9276,-1.957,-2.0075,-2.0595,-2.0956,-2.126,-2.1368,-2.166,-2.1816,-2.1631,-2.2002,-2.2808,-2.4105,-2.5472,-2.6766,-2.8021,-2.8102,-2.7745,-2.7002,-2.6663,-2.6499,-2.6499,-2.6499,-2.6499,-2.6499,-2.6499,-2.6361,-2.6156,-2.712,-2.7043,-2.6278,-2.7577,-2.7756,-2.7163,-2.7458,-2.76,-2.76,-2.76,-2.736,-2.6986,-2.6692,-2.6183,-2.551,0.0,-3.3025,-3.3355,-3.2988,-3.1453,-3.0416,-3.081,-2.9521,-2.8716,0.0,-2.9116,-2.8928,-2.8928,-2.888,-2.9151,-2.9928,-2.9996,-3.0321,-3.1038,-3.1072,-3.1287,-3.1789,-3.172,-3.19,-3.2377,-3.2004,-3.1755,-3.1668,-3.0744,-2.9995,-2.9384,-2.8779,-2.7821,-2.6587,-2.6426,-2.5618,-2.4391,-2.4231,-2.4057,-2.3916,-2.3966,-2.4569,-2.5372,-2.4908,-2.4662,-2.4537,-2.4079,-2.3547,-2.314,-2.3342,-2.3862,-2.4529,-2.5256,-2.5847,-2.6436,-2.7225,-2.7809,0.0,0.0,0.0,0.0,0.0,-2.9885,0.0,-2.7137,-2.6125,-2.4984,-2.3004,-2.2019,-2.1427,-2.123,-2.1135,-2.0915,-2.0396,-2.022,-2.0111,-1.9934,-2.0557,-2.0957,-2.0644,-2.13,-2.1592,-2.1161,-2.1553,-2.2398,-2.3773,-2.5018,-2.643,-2.81,-2.8084,-2.7557,-2.6612,-2.6524,-2.6499,-2.6499,-2.6499,-2.6499,-2.6499,-2.6499,-2.6185,-2.5632,-2.6427,-2.621,-2.5286,-2.6778,-2.711,-2.6669,-2.7331,-2.76,-2.76,-2.76,-2.754,-2.742,-2.6811,-2.6123,-2.5397,-3.1812,-3.233,-3.2297,-3.1288,-3.0922,-3.0159,-2.8362,-2.8718,-2.9058,-2.8603,-2.8512,-2.8528,0.0,0.0,0.0,-2.9277,-2.9403,-2.9702,-3.0273,-3.0311,-3.0759,-3.1771,-3.1219,-3.1131,-3.1611,-3.1742,-3.1513,-3.0907,-3.0493,-2.9995,-2.9384,-2.8779,-2.7821,-2.6563,-2.5414,-2.471,-2.4338,-2.3199,-2.2937,-2.3308,-2.3803,-2.413,-2.4305,-2.4205,-2.3835,-2.3421,-2.3308,-2.3195,-2.3203,-2.3871,-2.4207,-2.445,-2.5191,-2.5173,-2.5136,-2.6352,-2.6473,0.0,0.0,0.0,0.0,-2.8826,-2.8497,0.0,-2.8166,-2.7923,-2.7299,-2.5939,-2.5813,-2.5601,-2.4439,-2.382,-2.331,-2.287,-2.2236,-2.1375,-2.0064,-2.0068,-2.0264,-2.0576,-2.0762,-2.083,-2.0742,-2.1103,-2.1467,-2.1748,-2.3867,-2.6209,-2.8637,-2.7921,-2.7344,-2.7165,-2.6725,-2.6499,-2.6499,-2.6499,-2.6499,-2.6499,-2.6499,-2.6185,-2.5619,-2.5921,-2.6045,-2.6009,-2.6492,-2.6969,-2.7408,-2.7534,-2.76,-2.76,-2.76,-2.727,-2.6791,-2.6632,-2.5839,-2.4784,-3.0923,-3.1462,-3.1455,-3.0223,-2.9751,-2.9171,-2.8007,-2.8148,-2.8478,-2.8808,-2.8586,0.0,0.0,0.0,0.0,0.0,0.0,0.0,-3.0036,-3.0108,-3.0357,-3.0924,-3.0241,-3.0126,-3.0734,-3.0882,-3.0942,-3.0961,-3.0203,-2.9539,-2.8884,-2.7984,-2.6696,-2.512,-2.4433,-2.3675,-2.2976,-2.254,-2.2483,-2.2794,-2.3954,-2.4243,-2.4029,-2.4305,-2.4054,-2.3496,-2.3208,-2.3108,-2.3155,-2.3573,-2.3914,-2.4214,-2.4689,-2.4838,-2.4965,-2.5728,-2.5761,-2.5698,-2.6316,-2.6759,-2.7195,-2.7883,-2.8088,0.0,0.0,-2.8512,-2.8169,-2.7239,-2.7241,-2.7183,-2.644,-2.5758,-2.5085,-2.4395,-2.3696,-2.295,-2.2252,-2.1233,-2.0646,-2.0868,-2.0728,-2.0605,-2.0605,-2.0762,-2.1401,-2.2652,-2.4143,-2.5892,-2.7987,-2.7582,-2.719,-2.6914,-2.6637,-2.6499,-2.6499,-2.6499,-2.6499,-2.6499,-2.6499,-2.6047,-2.5229,-2.5688,-2.5658,-2.5299,-2.6141,-2.6721,-2.7086,-2.7433,-2.76,-2.76,-2.76,-2.739,-2.7061,-2.6707,-2.5959,-2.5053,-3.0173,-3.0668,-3.0627,-2.9277,-2.859,-2.8148,-2.7896,-2.7458,-2.7557,-2.8717,-2.8399,0.0,0.0,0.0,0.0,0.0,0.0,0.0,-3.0015,-2.9888,-2.9844,-3.0089,-2.9381,-2.9213,-2.9651,-2.982,-3.0118,-3.0614,-2.9528,-2.8722,-2.821,-2.6869,-2.5388,-2.3841,-2.3498,0.0,0.0,0.0,-2.1977,-2.21,-2.357,-2.402,-2.3891,-2.4456,-2.4318,-2.3766,-2.3271,-2.3108,-2.312,-2.3233,-2.3615,-2.4053,-2.4309,-2.4527,-2.482,-2.5329,-2.5353,-2.5244,-2.5618,-2.6077,-2.664,-2.7383,-2.8004,-2.8467,0.0,0.0,0.0,-2.8124,-2.8079,-2.8092,-2.7931,-2.7474,-2.6839,-2.6029,-2.5347,-2.4986,-2.5112,-2.3484,-2.2171,-2.1929,-2.1478,-2.112,-2.0885,-2.0975,-2.1958,-2.4145,-2.4815,-2.5782,-2.7222,-2.718,-2.6952,-2.6512,-2.6499,-2.6499,-2.6499,-2.6499,-2.6499,-2.6499,-2.6386,-2.5774,-2.482,-2.5427,-2.527,-2.4567,-2.5881,-2.6531,-2.6747,-2.7357,-2.76,-2.76,-2.76,-2.76,-2.7525,-2.7001,-2.6288,-2.5555,-3.0063,-3.0222,-2.969,-2.8014,-2.8081,-2.782,-2.6168,-2.6337,-2.6729,0.0,0.0,0.0,0.0,-2.5553,-2.5735,0.0,-2.6764,-2.7036,-2.9999,-2.9092,-2.8932,-3.0055,-2.9381,-2.8704,-2.8077,-2.8755,-2.8887,-2.8458,-2.7826,-2.7571,-2.7564,-2.5756,-2.4732,-2.4339,-2.2734,0.0,0.0,0.0,-2.0575,-2.0844,-2.1523,-2.236,-2.3271,-2.3866,-2.371,-2.3195,-2.3133,-2.3108,-2.3183,-2.3728,-2.3941,-2.4079,-2.4589,-2.4103,-2.3661,-2.5354,-2.516,-2.4794,-2.6376,-2.6527,-2.6504,-2.7651,-2.7768,-2.7914,-2.8987,0.0,-3.0103,-2.9517,0.0,-3.0001,-2.9468,0.0,0.0,-2.8871,-2.8326,-2.7882,-2.7795,-2.6799,-2.5663,-2.4542,-2.384,-2.3003,-2.1947,-2.23,-2.3103,-2.4216,-2.5161,-2.619,-2.7245,-2.6851,-2.6562,-2.6499,-2.6499,-2.6499,-2.6499,-2.6499,-2.6499,-2.6487,-2.5971,-2.5385,-2.4788,-2.4885,-2.5053,-2.5314,-2.5936,-2.6701,-2.7484,-2.7575,-2.76,-2.76,-2.76,-2.76,-2.7585,-2.751,-2.6701,-2.5674,-2.9356,-2.9826,-2.9509,-2.7609,-2.7907,-2.7862,-2.6305,-2.6684,-2.7031,0.0,0.0,0.0,-2.5975,-2.5107,-2.5254,-2.708,-2.6884,-2.7363,-2.8995,-2.8891,0.0,-2.8924,-2.8523,-2.8163,-2.7807,-2.8128,-2.8448,-2.8741,-2.8156,-2.7369,-2.6375,-2.5241,-2.4021,-2.2795,-2.2016,0.0,-2.0947,-2.0747,-2.0445,-2.0124,-2.0691,-2.122,-2.1694,-2.2288,-2.2456,-2.2414,-2.2414,-2.2702,-2.3145,-2.3384,-2.3715,-2.3979,-2.3847,-2.3935,-2.4174,-2.4663,-2.4692,-2.4754,-2.5504,-2.5633,-2.5754,-2.6589,-2.7402,-2.8266,-2.9088,-3.022,-3.1002,-3.0761,0.0,0.0,0.0,0.0,0.0,0.0,-2.9274,-2.9192,-2.9479,-2.9216,-2.8362,-2.6675,-2.5688,-2.4628,-2.3298,-2.3198,-2.3531,-2.4196,-2.5228,-2.6106,-2.6781,-2.6612,-2.6499,-2.6499,-2.6499,-2.6499,-2.6499,-2.6499,-2.6499,-2.6499,-2.6248,-2.5649,-2.482,-2.5696,-2.6045,-2.6049,-2.7139,-2.7803,-2.8173,-2.8173,-2.7959,-2.76,-2.76,-2.76,-2.76,-2.76,-2.7001,-2.6213,-2.8601,-2.9191,-2.9071,-2.7293,-2.7597,-2.7719,-2.6611,-2.6934,-2.7126,-2.6563,-2.5895,-2.5464,-2.5464,-2.5062,-2.5277,-2.6581,-2.6856,-2.7449,-2.8559,-2.8694,-2.8534,-2.8125,-2.7963,-2.7766,-2.7503,-2.7503,-2.7788,-2.8376,-2.7754,-2.6639,-2.5072,-2.425,-2.3047,-2.1589,-2.1433,-2.0869,-2.0111,-2.0514,-2.0104,-1.9286,-1.9706,-1.9879,-1.9987,-2.0852,-2.1325,-2.1553,-2.1815,-2.2292,-2.2818,-2.3223,-2.3653,-2.3954,-2.3647,-2.4023,-2.4512,-2.4293,-2.4406,-2.4625,-2.4958,-2.502,-2.5174,-2.5875,-2.7023,-2.8162,-2.8791,-2.9828,-3.0686,-3.0929,-3.0823,0.0,0.0,0.0,-3.0103,0.0,0.0,-3.0058,-3.0702,-3.0809,-3.0295,-2.8855,-2.771,-2.6575,-2.5332,-2.5338,-2.5205,-2.4792,-2.6041,-2.6728,-2.649,-2.6499,-2.6499,-2.6499,-2.6499,-2.6499,-2.6499,-2.6499,-2.6411,-2.6248,-2.6109,-2.5586,-2.482,-2.5761,-2.6218,-2.6327,-2.7463,-2.8147,-2.8524,-2.8379,-2.8154,-2.7869,-2.766,-2.76,-2.76,-2.76,-2.718,-2.6641,-2.794,-2.8207,-2.8099,-2.6932,-2.7061,-2.7166,-2.6669,-2.6557,-2.6537,-2.651,-2.585,-2.5398,-2.5398,-2.5445,-2.6018,-2.7353,-2.6361,-2.6734,-2.9283,-2.8272,-2.7727,-2.807,-2.8079,-2.7668,-2.6759,-2.6725,-2.6591,-2.6294,-2.563,-2.4777,-2.373,-2.2399,-2.1719,-2.1563,-2.0986,-2.039,-1.9798,-1.982,-1.9158,-1.8056,-1.8066,-1.8076,-1.8269,-1.9966,-2.0634,-2.0751,-2.1596,-2.1908,-2.2147,-2.353,-2.3979,-2.4092,-2.4575,-2.4418,-2.413,-2.4644,-2.4431,-2.4255,-2.5285,-2.5184,-2.5079,-2.6206,-2.6731,-2.7125,-2.7876,-2.8244,-2.8652,-2.9488,-2.9131,-2.8682,-2.8667,-2.919,0.0,0.0,0.0,0.0,0.0,-3.148,-3.1391,-3.12,-3.0192,-2.9173,-2.8412,-2.9462,-2.9087,-2.6417,-2.8174,-2.8534,-2.6618,-2.6499,-2.6499,-2.6499,-2.6499,-2.6499,-2.6499,-2.6499,-2.621,-2.5624,-2.5109,-2.4825,-2.4775,-2.4299,-2.4756,-2.5933,-2.6165,-2.703,-2.8253,-2.7828,-2.8004,-2.8502,-2.7854,-2.76,-2.76,-2.76,-2.718,-2.6701,-2.664,-2.6813,-2.7003,-2.7197,-2.7348,-2.7242,-2.6619,-2.6498,-2.6149,-2.5175,-2.4823,-2.4681,-2.4681,-2.5013,-2.5613,-2.6553,-2.6257,-2.6578,-2.7965,-2.7665,-2.7486,-2.764,-2.794,-2.7768,-2.7046,-2.651,-2.6276,-2.6342,-2.5604,-2.4713,-2.3599,-2.2707,-2.201,-2.1481,0.0,-2.0141,0.0,-1.9532,-1.8899,-1.8008,-1.8008,-1.8008,-1.8076,-1.8654,-1.9233,-1.9792,-2.0074,-2.0558,-2.1103,-2.1594,-2.1748,-2.1783,-2.1958,-2.2122,-2.2427,-2.32,-2.3523,-2.3859,-2.4821,-2.4695,-2.4531,-2.5624,-2.5839,-2.6025,-2.7028,-2.747,-2.7995,-2.9216,-2.9285,-2.9162,-2.9229,-2.9759,0.0,0.0,0.0,0.0,0.0,-3.2296,-3.3203,-3.4047,-3.2604,-3.1258,-3.0558,-2.9871,-2.9116,-2.8293,-2.8235,-2.7957,-2.7343,-2.6782,-2.6499,-2.6499,-2.6499,-2.6499,-2.6499,-2.6499,-2.6399,-2.6197,-2.6021,-2.5699,-2.5322,-2.5659,-2.6074,-2.6612,-2.776,-2.851,-2.8973,-2.8939,-2.8786,-2.8532,-2.7869,-2.76,-2.76,-2.76,-2.775,-2.8008,-2.5707,-2.5833,-2.6161,-2.6977,-2.7118,-2.6991,-2.657,-2.6041,-2.537,-2.4436,-2.406,-2.3884,-2.3884,-2.4599,-2.5206,-2.549,-2.5942,-2.6313,-2.6621,-2.6666,-2.6775,-2.6991,-2.7077,-2.7009,-2.6855,-2.6102,-2.5817,-2.6044,-2.5304,-2.4471,0.0,0.0,0.0,0.0,0.0,-1.9905,-1.9421,-1.9318,-1.8787,-1.8008,-1.8008,-1.8008,-1.8008,-1.8008,-1.8337,-1.8877,-1.9177,-1.9661,-2.0171,-2.0494,-2.059,-2.059,-2.059,-2.0847,-2.1301,-2.2153,-2.279,-2.3403,-2.4295,-2.4406,-2.4456,-2.5146,-2.5173,-2.5279,-2.6077,-2.621,-2.651,-2.7726,-2.7926,-2.8111,-2.8733,-2.933,0.0,0.0,0.0,0.0,0.0,-3.2649,-3.3712,-3.5065,-3.4276,-3.3242,-3.2288,-3.1482,-3.059,-2.9636,-2.8862,-2.8232,-2.7716,-2.6939,-2.6624,-2.6905,-2.6939,-2.6971,-2.7018,-2.6765,-2.644,-2.599,-2.5941,-2.5686,-2.5343,-2.6148,-2.6741,-2.7252,-2.8466,-2.9232,-2.9636,-2.9368,-2.9116,-2.8891,-2.8229,-2.7959,-2.7929,-2.769,-2.8034,-2.8697,-2.5259,-2.5346,-2.5617,-2.6294,-2.6456,-2.6484,-2.6404,-2.5203,-2.4292,-2.4263,-2.356,-2.3108,-2.3108,-2.427,-2.485,-2.4326,-2.5405,-2.589,-2.5425,-2.5356,-2.5609,-2.6229,-2.5673,-2.5614,-2.6206,-2.56,-2.5313,-2.5419,-2.4649,-2.4037,0.0,0.0,0.0,0.0,-2.0338,0.0,-1.901,-1.9169,-1.8754,-1.8008,-1.8008,-1.8008,-1.8008,-1.8008,-1.8008,-1.811,-1.8944,-1.9233,-1.9365,-2.0204,-2.0462,-2.0462,-2.0462,-2.0462,-2.0655,-2.1534,-2.2127,-2.2723,-2.3585,-2.4235,-2.468,-2.4673,-2.4693,-2.4785,-2.501,-2.4541,-2.4323,-2.5203,-2.53,-2.5702,-2.7209,-2.7924,-2.877,0.0,0.0,0.0,0.0,-3.2551,-3.3045,-3.4388,-3.5124,-3.4986,-3.3723,-3.4124,-3.3323,-3.0573,-3.0111,-2.9323,-2.7848,-2.7066,-2.6998,-2.767,-2.7736,-2.7849,-2.8054,-2.7292,-2.6337,-2.5222,-2.4944,-2.487,-2.496,-2.5801,-2.6757,-2.7802,-2.8269,-2.9189,-3.0215,-2.9146,-2.9071,-2.9592,-2.8906,-2.8652,-2.8577,-2.7974,-2.8154,-2.8786,-2.6002,-2.5772,-2.5678,-2.6352,-2.6489,-2.6122,-2.5035,-2.4538,-2.4089,-2.3484,-2.3215,-2.3108,-2.3108,-2.3824,-2.4238,-2.4086,-2.4384,-2.4749,-2.5146,-2.4807,-2.4897,-2.5597,-2.591,-2.6154,-2.6416,-2.6214,-2.5923,-2.5553,-2.4346,-2.3663,-2.3418,0.0,0.0,0.0,0.0,-1.9691,-2.0363,-1.8949,-1.8202,-1.8008,-1.8008,-1.8008,-1.8008,-1.8008,-1.8008,-1.8042,-1.8269,-1.8337,-1.8371,-1.8596,-1.8654,-1.8654,-1.8654,-1.8654,-1.8854,-1.9726,-2.0064,-2.0358,-2.1232,-2.2048,-2.2737,-2.3136,-2.3385,-2.3671,-2.4164,-2.3801,-2.3722,-2.4983,-2.5587,-2.6158,-2.7106,-2.7738,-2.8408,0.0,0.0,0.0,0.0,-3.3014,-3.3425,-3.374,-3.3896,-3.4255,-3.4992,-3.3426,-3.2474,-3.2699,-3.0699,-2.9256,-2.8703,-2.8945,-2.8657,-2.7716,-2.833,-2.8698,-2.8736,-2.7524,-2.6931,-2.7012,-2.5906,-2.593,-2.6941,-2.7203,-2.7803,-2.8703,-2.9472,-2.9996,-3.0287,-3.0094,-3.0118,-3.0208,-2.9606,-2.9352,-2.9397,-2.9639,-2.9864,-3.0118,-2.5993,-2.5751,-2.5512,-2.5534,-2.573,-2.5601,-2.4779,-2.4158,-2.3722,-2.3507,-2.3258,-2.3195,-2.3459,-2.3803,-2.4004,-2.4004,-2.4004,-2.4064,-2.421,-2.3948,-2.4105,-2.4908,-2.495,-2.518,-2.5609,-2.5298,-2.5144,-2.5158,-2.4042,-2.3621,-2.3803,0.0,0.0,0.0,0.0,-2.0266,-2.0882,-1.9263,-1.8337,-1.8008,-1.8008,-1.8008,0.0,-1.8008,-1.8008,-1.8008,-1.8008,-1.8008,-1.8076,-1.8428,-1.8563,-1.8563,-1.8563,-1.8563,-1.8654,-1.9177,-1.9479,-1.9784,-2.0421,-2.1133,-2.1713,-2.1783,-2.1891,-2.2104,-2.2447,-2.2541,-2.2868,-2.3889,-2.4858,-2.585,-2.6883,-2.7503,-2.8273,0.0,0.0,-3.1364,-3.2449,-3.2613,-3.2857,-3.343,-3.2706,-3.2796,-3.452,-3.249,-3.1638,-3.3013,-3.1007,-2.967,-2.9583,-2.9826,-2.9656,-2.8857,-2.9317,-2.9466,-2.9256,-2.8142,-2.758,-2.7601,-2.6729,-2.6868,-2.7934,-2.8561,-2.9097,-2.9628,-3.045,-3.0807,-3.0822,-3.0578,-3.0507,-3.0477,-3.0118,-3.0163,-3.0477,-3.0821,-3.0761,-3.0612,-2.5854,-2.5701,-2.5279,-2.4443,-2.4715,-2.5044,-2.4966,-2.4029,-2.3484,-2.3941,-2.3597,-2.3459,-2.3841,-2.3954,-2.3966,-2.3891,-2.3891,-2.3665,-2.3133,-2.3108,-2.3424,-2.4118,-2.3706,-2.3771,-2.445,-2.4012,-2.4094,-2.4706,-2.3943,-2.3851,0.0,0.0,0.0,0.0,0.0,0.0,0.0,-1.9727,-1.8787,-1.8008,-1.8008,-1.8008,-1.8008,-1.8008,-1.8008,-1.8008,-1.8008,-1.8008,-1.811,-1.8877,-1.9144,-1.9144,-1.9144,-1.9144,-1.9144,-1.9144,-1.9458,-1.9881,-2.0194,-2.0676,-2.1029,-2.053,-2.0526,-2.059,-2.059,-2.1207,-2.1883,-2.2472,-2.3672,-2.5043,-2.6393,-2.717,-2.8093,-2.9608,-3.0048,-3.0631,-3.187,-3.1682,-3.1814,-3.2843,-3.1431,0.0,-3.2924,-3.1402,-3.0919,-3.239,-3.1246,-3.0419,-3.0299,-3.0315,-3.034,-3.0283,-3.0389,-3.0265,-2.9849,-2.8892,-2.8222,-2.7848,-2.7408,-2.7656,-2.8519,-2.9738,-3.0359,-3.0494,-3.119,-3.1511,-3.1451,-3.0881,-3.0642,-3.0642,-3.0642,-3.0972,-3.1511,-3.1511,-3.1122,-3.0717,-2.7176,-2.6453,-2.5511,-2.4495,-2.4614,-2.4697,-2.4272,-2.4356,-2.4362,-2.4042,-2.4274,-2.4173,-2.3346,-2.3715,-2.3803,-2.3296,-2.3258,-2.3208,-2.3108,-2.3108,-2.3155,-2.3305,-2.3839,-2.4195,-2.4331,-2.4856,-2.5211,-2.535,-2.4757,-2.4456,0.0,0.0,0.0,0.0,0.0,0.0,-1.9565,-1.9399,-1.8787,-1.8008,-1.8008,-1.8008,-1.8008,-1.8008,-1.8008,-1.8008,-1.8008,-1.8008,-1.8008,-1.8178,-1.8236,-1.8236,-1.8236,-1.8236,-1.8236,-1.8236,-1.8295,-1.8368,-1.8458,-1.9039,-1.9669,-1.9551,-2.0074,-2.059,-2.059,-2.0719,-2.106,-2.1859,-2.2943,-2.4013,-2.4985,-2.6175,-2.7152,-2.7457,-2.8671,-2.9479,-2.9169,-3.0546,-3.1223,-3.0297,-2.9839,-2.9971,-3.0928,-3.0259,-3.0535,-3.2449,-3.179,-3.0999,-3.0329,-3.1407,-3.1526,-3.0343,-3.094,-3.1232,-3.1167,-2.933,-2.8872,-2.9794,-2.804,-2.8164,-2.9945,-3.0181,-3.0644,-3.1307,-3.1438,-3.1511,-3.1496,-3.1376,-3.1316,-3.1316,-3.1316,-3.1406,-3.1511,-3.1511,-3.1436,-3.1346,-2.674,-2.6028,-2.5297,-2.4679,-2.4709,-2.482,-2.4833,-2.5297,-2.5372,-2.4544,-2.4406,-2.4261,-2.401,-2.3697,-2.3521,-2.3547,-2.3283,-2.3108,-2.3108,-2.3108,-2.3108,-2.3108,-2.3484,-2.3726,-2.3771,-2.4164,-2.4386,-2.4404,-2.4107,-2.393,-2.381,-2.3156,0.0,0.0,0.0,-2.0902,0.0,-1.9497,-1.8787,-1.8008,-1.8008,-1.8008,-1.8008,-1.8008,-1.8008,-1.8008,-1.8008,-1.8008,-1.8076,-1.8529,-1.8654,-1.8654,-1.8654,-1.8654,-1.8596,-1.8144,-1.8008,-1.8008,-1.8008,-1.8303,-1.863,-1.863,-1.8944,-1.9233,-1.9233,-1.9595,-2.0107,-2.0817,-2.2319,-2.3863,-2.4995,-2.5784,-2.6291,-2.6451,-2.7731,-2.8619,-2.8425,-2.965,-3.0306,-2.9568,-2.858,-2.863,-3.0319,-2.932,-2.9403,-3.1404,-3.1528,-3.1187,-3.0426,-3.1738,-3.202,-3.0955,-3.1307,-3.1331,-3.0972,-2.9992,-2.9807,-3.0396,-2.9377,-2.9624,-3.0925,-3.0925,-3.1117,-3.1511,-3.1511,-3.1511,-3.1511,-3.1511,-3.1511,-3.1511,-3.1511,-3.1511,-3.1511,-3.1511,-3.1511,-3.1511,-2.6215,-2.573,-2.5231,-2.4728,-2.4833,-2.5046,-2.5222,-2.5749,-2.5799,-2.4933,-2.4544,-2.4418,-2.4619,-2.3822,-2.3471,-2.3954,-2.3446,-2.3108,-2.3108,-2.3108,-2.3108,-2.3108,-2.3108,-2.3162,-2.3264,-2.3293,-2.3416,-2.3579,-2.354,-2.3531,-2.3508,-2.3401,-2.3185,-2.2793,-2.1815,-2.0985,-2.0268,-1.9398,-1.863,-1.8008,-1.8008,-1.8008,-1.8008,-1.8008,-1.8008,-1.8008,-1.8008,-1.8008,-1.811,-1.8787,-1.9011,-1.9011,-1.9011,-1.9011,-1.8877,-1.8202,-1.8008,-1.8008,-1.8008,-1.8008,-1.8008,-1.8008,-1.8008,-1.8008,-1.8008,-1.8529,-1.9214,-1.9805,-2.1721,-2.3803,-2.5328,-2.541,-2.5375,-2.5762,-2.6706,-2.7465,-2.7654,-2.8405,-2.891,-2.8855,-2.752,-2.7385,-2.9465,-2.8672,-2.856,-2.9853,-3.0794,-3.1122,-3.0746,-3.169,-3.2108,-3.172,-3.1705,-3.1451,-3.0941,-3.0642,-3.0567,-3.0717,-3.0567,-3.0838,-3.1511,-3.1511,-3.1511,-3.1511,-3.1511,-3.1511,-3.1511,-3.1511,-3.1511,-3.1511,-3.1511,-3.1585,-3.1705,-3.1555,-3.1585,-3.169,-2.6818,-2.6574,-2.5862,-2.433,-2.4883,-2.5209,-2.4293,-2.4619,-2.4913,-2.48,-2.5184,-2.5096,-2.418,-2.3979,-2.3941,-2.3991,-2.3446,-2.3108,-2.3108,-2.3108,-2.3108,-2.3108,-2.3108,-2.3113,-2.311,-2.3246,-2.3604,-2.4207,-2.4272,-2.4258,-2.4213,-2.4208,-2.3416,-2.1939,-2.0268,-1.9497,-1.9365,-1.8496,-1.8076,-1.8008,-1.8008,-1.8008,-1.8008,-1.8008,-1.8008,-1.8008,-1.8008,-1.8008,-1.8008,-1.81,-1.811,-1.811,-1.811,-1.811,-1.811,-1.8008,-1.8008,-1.8008,-1.8008,-1.8008,-1.8008,-1.8008,-1.8008,-1.8008,-1.8008,-1.8076,-1.8347,-1.9196,-2.1181,-2.3369,-2.5265,-2.4808,-2.4324,-2.4841,-2.5213,-2.5465,-2.5395,-2.6147,-2.6722,-2.6761,-2.6628,-2.663,-2.695,-2.8449,-2.8989,-2.7956,-2.9574,-3.0823,-3.1376,-3.1525,-3.1839,-3.2378,-3.2392,-3.2392,-3.2317,-3.112,-3.0821,-3.1406,-3.0806,-3.0838,-3.1511,-3.1511,-3.1511,-3.1511,-3.1511,-3.1511,-3.1511,-3.1511,-3.1511,-3.1511,-3.1511,-3.1869,-3.2318,-3.172,-3.1884,-3.2303,-2.5486,-2.567,-2.549,-2.3973,-2.4496,-2.4808,-2.3843,-2.4335,-2.4501,-2.366,-2.4459,-2.4971,-2.4544,-2.4494,-2.4245,-2.3628,-2.3907,-2.3496,-2.2042,-2.2519,-2.2724,-2.2396,-2.2384,-2.2598,-2.3078,-2.3166,-2.3301,-2.3573,-2.3373,-2.312,-2.2847,-2.2577,-2.1969,-2.108,-1.9846,-1.9299,-1.9233,-1.8361,-1.8008,-1.8008,-1.8008,-1.8008,-1.8008,-1.8008,-1.8008,-1.8008,-1.8008,-1.8008,-1.8008,-1.8008,-1.8008,-1.8008,-1.8008,-1.8008,-1.8008,-1.8008,-1.8008,-1.8008,-1.8008,-1.8008,-1.8008,-1.8008,-1.8008,-1.8008,-1.8008,-1.8008,-1.8236,-1.911,-2.0876,-2.2571,-2.364,-2.3951,-2.3954,-2.3797,-2.4542,-2.5018,-2.4688,-2.5317,-2.5814,-2.5852,-2.5887,-2.6226,-2.705,-2.8266,-2.8921,-2.8813,-3.0597,-3.163,-3.1511,-3.1884,-3.2392,-3.308,-3.2303,-3.2079,-3.2512,-3.1555,-3.1227,-3.1511,-3.1227,-3.1241,-3.1511,-3.1511,-3.172,-3.2064,-3.1675,-3.1735,-3.2064,-3.1675,-3.1511,-3.1511,-3.1511,-3.1914,-3.2407,-3.175,-3.1914,-3.2452,-2.4783,-2.4986,-2.4976,-2.3507,-2.3887,-2.4153,-2.3535,-2.3928,-2.4071,-2.3397,-2.4171,-2.4788,-2.4788,-2.4549,-2.4148,-2.3615,-2.3797,-2.3176,-2.1308,-2.1847,-2.2028,-2.1545,-2.1522,-2.1772,-2.2341,-2.2372,-2.2372,-2.2372,-2.2064,-2.1809,-2.1502,-2.0905,-2.049,-2.0171,-1.9309,-1.8911,-1.8877,-1.8269,-1.8008,-1.8008,-1.8008,-1.8008,-1.8008,-1.8008,-1.8008,-1.8008,-1.8008,-1.8008,-1.8008,-1.8008,-1.8008,-1.8008,-1.8008,-1.8008,-1.8008,-1.8008,-1.8008,-1.8008,-1.8008,-1.8008,-1.8008,-1.8008,-1.8008,-1.8008,-1.8008,-1.8008,-1.8299,-1.931,-2.04,-2.1389,-2.2157,-2.2894,-2.3282,-2.3034,-2.3844,-2.4433,-2.4242,-2.45,-2.4877,-2.5252,-2.5342,-2.5765,-2.6717,-2.7641,-2.8245,-2.836,-3.0542,-3.1604,-3.0972,-3.1679,-3.2362,-3.2916,-3.1946,-3.1753,-3.2482,-3.1839,-3.1511,-3.1511,-3.1511,-3.1511,-3.1511,-3.1511,-3.1765,-3.2168,-3.1705,-3.1765,-3.2168,-3.1705,-3.1511,-3.1511,-3.1511,-3.1914,-3.2452,-3.1959,-3.2213,-3.2796,-2.5182,-2.5004,-2.4531,-2.2971,-2.3063,-2.3311,-2.3311,-2.3203,-2.3521,-2.4637,-2.4788,-2.4788,-2.4788,-2.3911,-2.357,-2.4138,-2.28,-2.1743,-2.1241,-2.1208,-2.1029,-2.0645,-2.0623,-2.0623,-2.0623,-2.0623,-2.0623,-2.0623,-2.0623,-2.0634,-2.059,-1.9726,-1.9309,-1.9276,-1.8395,-1.8008,-1.8008,-1.8008,-1.8008,-1.8008,-1.8008,-1.8008,-1.8008,-1.8008,-1.8008,-1.8008,-1.8008,-1.8008,-1.8008,-1.8008,-1.8008,-1.8008,-1.8008,-1.8008,-1.8008,-1.8008,-1.8008,-1.8008,-1.8008,-1.8008,-1.8008,-1.8008,-1.8008,-1.8008,-1.8008,-1.8008,-1.8388,-1.9784,-1.9691,-1.9767,-2.1174,-2.1713,-2.2087,-2.2631,-2.2954,-2.3339,-2.3904,-2.3502,-2.3628,-2.4951,-2.5107,-2.5135,-2.5231,-2.6446,-2.6725,-2.5536,-2.8524,-3.0192,-2.9642,-3.0631,-3.1315,-3.1511,-3.1332,-3.1623,-3.2482,-3.1839,-3.1511,-3.1511,-3.1511,-3.1511,-3.1511,-3.1511,-3.1511,-3.1511,-3.1511,-3.1511,-3.1511,-3.1511,-3.1511,-3.1511,-3.1511,-3.1914,-3.2512,-3.2497,-3.2916,-3.3484,-2.4328,-2.4745,-2.4844,-2.3026,-2.328,-2.3448,-2.2488,-2.2757,-2.3175,-2.3344,-2.4204,-2.4698,-2.4432,-2.4429,-2.3886,-2.2416,-2.2475,-2.1682,-1.9561,-2.0083,-2.0243,-1.9737,-1.9716,-1.9977,-2.059,-2.059,-2.059,-2.059,-2.027,-1.9828,-1.9226,-1.866,-1.8395,-1.8395,-1.81,-1.8008,-1.8008,-1.8008,-1.8008,-1.8008,-1.8008,-1.8008,-1.8008,-1.8008,-1.8008,-1.8008,-1.8008,-1.8008,-1.8008,-1.8008,-1.8008,-1.8008,-1.8008,-1.8008,-1.8008,-1.8008,-1.8008,-1.8008,-1.8008,-1.8008,-1.8008,-1.8008,-1.8008,-1.8008,-1.8008,-1.8911,-1.9736,-1.9588,-2.0788,-2.1683,-2.0986,-2.1879,-2.2598,-2.2229,-2.2678,-2.317,-2.3358,-2.359,-2.3732,-2.3747,-2.4524,-2.4942,-2.4607,-2.583,-2.6462,-2.599,-2.8533,-2.9929,-2.9491,-3.1117,-3.1838,-3.1301,-3.1367,-3.1455,-3.1623,-3.098,-3.097,-3.1511,-3.094,-3.097,-3.1511,-3.1511,-3.175,-3.2168,-3.2168,-3.2168,-3.2168,-3.2168,-3.1914,-3.1511,-3.1511,-3.2183,-3.3125,-3.2677,-3.3215,-3.4158,-2.4366,-2.4614,-2.456,-2.2973,-2.3119,-2.314,-2.2254,-2.2874,-2.3468,-2.3481,-2.4128,-2.4359,-2.3769,-2.3685,-2.305,-2.1533,-2.1488,-2.0718,-1.8717,-1.9057,-1.9141,-1.8831,-1.8657,-1.8901,-1.9617,-1.9628,-1.9628,-1.9628,-1.9323,-1.8897,-1.8364,-1.8135,-1.8008,-1.8008,-1.8008,-1.8008,-1.8008,-1.8008,-1.8008,-1.8008,-1.8008,-1.8008,-1.8008,-1.8008,-1.8008,-1.8008,-1.8008,-1.8008,-1.8008,-1.8008,-1.8008,-1.8008,-1.8008,-1.8008,-1.8008,-1.8008,-1.8125,-1.8178,-1.8057,-1.8125,-1.8178,-1.8047,-1.8091,-1.835,-1.8923,-1.9891,-2.0566,-2.0182,-2.1344,-2.2091,-2.0816,-2.171,-2.2537,-2.2233,-2.2702,-2.3183,-2.3396,-2.359,-2.3615,-2.3446,-2.4182,-2.4551,-2.4231,-2.5167,-2.5581,-2.5069,-2.7579,-2.873,-2.7827,-3.0071,-3.1094,-3.0515,-3.0219,-3.0472,-3.1303,-3.0652,-3.0703,-3.1511,-3.0999,-3.0999,-3.1511,-3.1511,-3.1735,-3.2123,-3.2378,-3.2348,-3.2138,-3.2392,-3.2093,-3.1511,-3.1511,-3.2004,-3.2766,-3.2856,-3.341,-3.4219,-2.524,-2.461,-2.3965,-2.3024,-2.2669,-2.2547,-2.2547,-2.3327,-2.4142,-2.4662,-2.4411,-2.3849,-2.2918,-2.197,-2.1334,-2.1225,-2.0002,-1.9053,-1.8588,-1.8223,-1.8008,-1.8008,-1.7637,-1.7607,-1.8008,-1.8008,-1.8008,-1.8008,-1.8008,-1.8008,-1.8008,-1.8008,-1.8008,-1.8008,-1.8008,-1.8008,-1.8008,-1.8008,-1.8008,-1.8008,-1.8008,-1.8008,-1.8008,-1.8008,-1.8008,-1.8008,-1.8008,-1.8008,-1.8008,-1.8008,-1.8008,-1.8008,-1.8008,-1.8037,-1.8047,-1.8018,-1.8266,-1.851,-1.8125,-1.8286,-1.851,-1.8154,-1.8334,-1.9027,-2.0377,-2.079,-2.0968,-2.1319,-2.1496,-2.1403,-2.0809,-2.142,-2.2185,-2.2643,-2.2984,-2.3396,-2.3929,-2.3572,-2.3446,-2.3941,-2.4029,-2.4054,-2.4054,-2.4456,-2.4286,-2.3346,-2.5929,-2.6855,-2.5275,-2.786,-2.9369,-2.9286,-2.8407,-2.9085,-3.1411,-3.0687,-3.0673,-3.1409,-3.1511,-3.157,-3.157,-3.1615,-3.1645,-3.1675,-3.2333,-3.2243,-3.169,-3.2348,-3.2228,-3.1645,-3.1645,-3.1675,-3.1854,-3.311,-3.3589,-3.3814,-2.5518,-2.5029,-2.4559,-2.4349,-2.355,-2.2978,-2.2978,-2.3144,-2.3509,-2.4117,-2.4103,-2.3591,-2.2354,-2.1719,-2.0825,-1.9389,-1.8954,-1.8578,-1.8184,-1.8066,-1.8008,-1.8008,-1.791,-1.791,-1.8008,-1.8008,-1.8008,-1.8008,-1.8008,-1.8008,-1.8008,-1.8008,-1.8008,-1.8008,-1.8008,-1.8008,-1.8008,-1.8008,-1.8008,-1.8008,-1.8008,-1.8008,-1.8008,-1.8008,-1.8008,-1.8008,-1.8008,-1.8008,-1.8008,-1.8008,-1.8008,-1.8008,-1.8008,-1.8198,-1.8393,-1.8105,-1.8266,-1.851,-1.8125,-1.8286,-1.8578,-1.8481,-1.8809,-1.9232,-1.9584,-2.0709,-2.1638,-2.1308,-2.238,-2.3028,-2.1816,-2.2631,-2.3317,-2.2811,-2.3666,-2.4286,-2.4042,-2.4582,-2.4757,-2.4079,-2.4368,-2.4619,-2.4619,-2.3935,-2.391,-2.4946,-2.5684,-2.6133,-2.6163,-2.7621,-2.8629,-2.9056,-2.9852,-3.0495,-3.096,-3.0528,-3.0389,-3.0584,-3.1723,-3.2243,-3.2273,-3.2796,-3.3036,-3.3066,-3.3724,-3.3649,-3.308,-3.3739,-3.3619,-3.3036,-3.3036,-3.3335,-3.3814,-3.4159,-3.4577,-3.507,-2.5247,-2.4808,-2.4443,-2.4443,-2.3684,-2.3108,-2.3108,-2.3333,-2.3486,-2.3427,-2.3417,-2.2814,-2.1291,-2.0732,-1.9862,-1.8448,-1.8315,-1.8217,-1.8027,-1.7832,-1.7812,-1.8008,-1.7822,-1.7812,-1.8008,-1.8008,-1.8008,-1.8008,-1.8008,-1.8008,-1.8008,-1.8008,-1.8008,-1.8008,-1.8008,-1.8008,-1.8008,-1.8008,-1.8008,-1.8008,-1.8008,-1.8008,-1.8008,-1.8008,-1.8008,-1.8008,-1.8008,-1.8008,-1.8008,-1.8008,-1.8008,-1.8047,-1.8208,-1.8422,-1.8598,-1.8603,-1.8896,-1.9131,-1.8711,-1.8896,-1.9182,-1.9182,-1.9404,-1.973,-2.039,-2.1282,-2.2114,-2.2503,-2.3375,-2.39,-2.3318,-2.3839,-2.4284,-2.4063,-2.4466,-2.4763,-2.4732,-2.5021,-2.5021,-2.4443,-2.4612,-2.4788,-2.4788,-2.4449,-2.4531,-2.5197,-2.5937,-2.6389,-2.6499,-2.7745,-2.8569,-2.8749,-2.9402,-3.0266,-3.1364,-3.1197,-3.0974,-3.067,-3.1334,-3.1872,-3.2351,-3.2689,-3.3084,-3.3529,-3.4219,-3.4098,-3.3544,-3.4234,-3.4114,-3.3499,-3.3499,-3.3709,-3.4099,-3.4399,-3.4711,-3.5085,-2.4775,-2.4381,-2.4004,-2.4004,-2.3496,-2.3108,-2.3108,-2.3521,-2.3542,-2.2703,-2.2591,-2.1929,-2.0175,-1.9555,-1.8931,-1.8076,-1.8008,-1.8008,-1.8008,-1.7676,-1.7637,-1.7998,-1.7666,-1.7617,-1.791,-1.791,-1.791,-1.791,-1.7978,-1.8008,-1.8008,-1.8008,-1.8008,-1.8008,-1.8008,-1.8008,-1.8008,-1.8008,-1.8008,-1.8008,-1.8008,-1.8008,-1.8008,-1.8008,-1.8008,-1.8008,-1.8008,-1.8008,-1.8008,-1.8008,-1.8008,-1.8086,-1.8471,-1.8646,-1.8783,-1.9258,-1.9678,-1.9902,-1.9424,-1.959,-1.9912,-1.9912,-1.9961,-2.0325,-2.1501,-2.1886,-2.2349,-2.3501,-2.3874,-2.4099,-2.4505,-2.4643,-2.4945,-2.5603,-2.536,-2.5222,-2.5661,-2.5347,-2.5034,-2.4913,-2.4913,-2.4938,-2.5059,-2.5322,-2.536,-2.5096,-2.6289,-2.6939,-2.6637,-2.7996,-2.8704,-2.8582,-2.8475,-2.9544,-3.1836,-3.1838,-3.1535,-3.1019,-3.0846,-3.1205,-3.2025,-3.2111,-3.259,-3.341,-3.4099,-3.4103,-3.3627,-3.4366,-3.4307,-3.3799,-3.3799,-3.3739,-3.3724,-3.4414,-3.4593,-3.4608,-2.47,-2.4381,-2.4004,-2.4004,-2.3496,-2.3108,-2.3108,-2.3183,-2.2947,-2.2133,-2.2013,-2.1367,-1.9613,-1.9343,-1.893,-1.8086,-1.8008,-1.8008,-1.8008,-1.7949,-1.7939,-1.8008,-1.7949,-1.7773,-1.749,-1.748,-1.748,-1.748,-1.7832,-1.8008,-1.8008,-1.8008,-1.8008,-1.8008,-1.8008,-1.8008,-1.8008,-1.8008,-1.8008,-1.8008,-1.8008,-1.8008,-1.8008,-1.8008,-1.8008,-1.8008,-1.8008,-1.8008,-1.8008,-1.8008,-1.8008,-1.8086,-1.8471,-1.8851,-1.9268,-1.9697,-2.0127,-2.0331,-1.9502,-1.959,-1.9912,-1.9912,-2.0195,-2.0556,-2.0769,-2.1451,-2.1939,-2.1732,-2.2358,-2.3062,-2.3451,-2.3939,-2.4737,-2.6124,-2.6298,-2.6273,-2.6348,-2.6285,-2.6059,-2.5536,-2.5473,-2.5674,-2.6197,-2.5435,-2.5297,-2.6172,-2.5988,-2.6239,-2.714,-2.7846,-2.8397,-2.8822,-2.9512,-3.0188,-3.0845,-3.0618,-3.0543,-3.066,-3.1199,-3.1523,-3.1688,-3.2257,-3.2598,-3.2786,-3.369,-3.4042,-3.3989,-3.494,-3.528,-3.519,-3.519,-3.4831,-3.4444,-3.51,-3.4981,-3.4608,-2.3835,-2.3672,-2.354,-2.354,-2.3283,-2.3108,-2.3108,-2.3108,-2.2823,-2.2002,-2.1905,-2.1239,-1.9483,-1.9716,-1.9445,-1.8115,-1.8428,-1.8496,-1.8042,-1.8008,-1.8008,-1.8008,-1.8008,-1.792,-1.7725,-1.75,-1.7523,-1.7715,-1.7686,-1.7793,-1.8008,-1.8008,-1.8008,-1.8008,-1.8008,-1.8008,-1.8008,-1.8008,-1.8008,-1.8008,-1.8008,-1.8008,-1.8008,-1.8008,-1.8008,-1.8076,-1.8529,-1.8395,-1.8105,-1.8791,-1.871,-1.8432,-1.9085,-1.9463,-1.9707,-2.0137,-2.0449,-2.0517,-2.0126,-2.0155,-2.0264,-2.0264,-2.0458,-2.0605,-2.0605,-2.0934,-2.1314,-2.1578,-2.2009,-2.2557,-2.3266,-2.4073,-2.4955,-2.5945,-2.635,-2.66,-2.6901,-2.6688,-2.6399,-2.6135,-2.6097,-2.6323,-2.6889,-2.6452,-2.6352,-2.6901,-2.6929,-2.718,-2.7695,-2.8247,-2.8775,-2.9377,-3.0256,-3.0603,-3.0408,-3.0639,-3.0626,-3.0373,-3.0557,-3.0907,-3.1388,-3.1694,-3.2141,-3.2629,-3.3066,-3.3518,-3.4027,-3.4509,-3.5019,-3.5504,-3.5504,-3.531,-3.507,-3.5385,-3.5295,-3.507,-2.3108,-2.3108,-2.3108,-2.3108,-2.3108,-2.3108,-2.3108,-2.3108,-2.2873,-2.2169,-2.2082,-2.1498,-1.9962,-2.0394,-2.0191,-1.8724,-1.921,-1.9243,-1.8361,-1.8303,-1.8202,-1.8008,-1.792,-1.7861,-1.7861,-1.7549,-1.7539,-1.7861,-1.7637,-1.7695,-1.8008,-1.8008,-1.8008,-1.8008,-1.8008,-1.8008,-1.8008,-1.8008,-1.8008,-1.8008,-1.8008,-1.811,-1.8303,-1.8303,-1.8428,-1.8687,-1.9365,-1.9177,-1.8738,-1.9731,-1.9619,-1.9173,-1.9849,-2.0054,-2.0125,-2.0477,-2.0605,-2.0605,-2.0605,-2.0605,-2.0605,-2.0605,-2.0683,-2.0723,-2.0723,-2.084,-2.1066,-2.1701,-2.1917,-2.2255,-2.3159,-2.4005,-2.4848,-2.548,-2.5901,-2.6354,-2.7024,-2.6774,-2.6584,-2.6841,-2.6763,-2.6851,-2.7278,-2.7203,-2.7178,-2.7268,-2.767,-2.8021,-2.8285,-2.8662,-2.9202,-2.9779,-3.0482,-3.0624,-3.0108,-3.0611,-3.0611,-3.0108,-2.9897,-3.0177,-3.0871,-3.0871,-3.1267,-3.1974,-3.2429,-3.3031,-3.3705,-3.4177,-3.4806,-3.5504,-3.5504,-3.54,-3.5295,-3.5444,-3.54,-3.5295,-2.3108,-2.3108,-2.3108,-2.3108,-2.3108,-2.3108,-2.3108,-2.3108,-2.3009,-2.2671,-2.263,-2.2285,-2.134,-2.1297,-2.1096,-2.0474,-2.0462,-2.0139,-1.9276,-1.921,-1.8854,-1.8042,-1.7637,-1.7432,-1.7432,-1.7435,-1.7402,-1.7432,-1.7793,-1.7978,-1.8008,-1.8008,-1.8008,-1.8008,-1.8008,-1.8008,-1.8008,-1.8008,-1.8008,-1.8008,-1.8008,-1.8496,-1.921,-1.921,-1.9726,-2.043,-2.0494,-2.0462,-2.043,-2.0539,-2.0518,-2.0456,-2.0537,-2.0548,-2.0545,-2.0581,-2.0605,-2.0605,-2.0605,-2.0605,-2.0605,-2.0605,-2.0879,-2.1142,-2.1142,-2.1494,-2.1711,-2.134,-2.1585,-2.2089,-2.2645,-2.3132,-2.3784,-2.4887,-2.4981,-2.5344,-2.6492,-2.6542,-2.6879,-2.7862,-2.7532,-2.7278,-2.7281,-2.6851,-2.6763,-2.7278,-2.7318,-2.7795,-2.8775,-2.8863,-2.9202,-2.9779,-2.9869,-2.9882,-2.9832,-2.9882,-2.9882,-2.9832,-2.9805,-2.983,-2.9895,-2.9895,-2.9934,-3.0113,-3.1829,-3.2629,-3.2855,-3.4673,-3.5424,-3.5504,-3.5504,-3.5115,-3.4653,-3.5265,-3.51,-3.4668,-2.3108,-2.3108,-2.3108,-2.3108,-2.3108,-2.3108,-2.3108,-2.3108,-2.3217,-2.3485,-2.2951,-2.2477,-2.2218,-2.212,-2.1684,-2.07,-2.1101,-2.0814,-1.9398,-1.9299,-1.8911,-1.8042,-1.7852,-1.7656,-1.7425,-1.7383,-1.7383,-1.7383,-1.7539,-1.7754,-1.8008,-1.8008,-1.8008,-1.8008,-1.8008,-1.8008,-1.8008,-1.8008,-1.8008,-1.8008,-1.8008,-1.8529,-1.9299,-1.9299,-1.9857,-2.0655,-2.1207,-2.1069,-2.0732,-2.1521,-2.143,-2.0975,-2.0977,-2.0985,-2.0928,-2.0678,-2.0605,-2.0605,-2.0605,-2.0605,-2.0605,-2.0605,-2.0898,-2.119,-2.119,-2.1572,-2.1836,-2.167,-2.1777,-2.195,-2.217,-2.2797,-2.3777,-2.5238,-2.5105,-2.5561,-2.7725,-2.7167,-2.6887,-2.795,-2.7921,-2.7795,-2.7795,-2.7908,-2.7934,-2.7808,-2.8448,-2.8863,-2.8888,-2.9264,-2.9566,-2.9779,-2.9792,-2.9792,-2.9792,-2.9792,-2.9792,-2.9792,-2.9792,-2.9792,-2.9792,-2.9792,-2.9792,-2.9856,-3.1156,-3.2069,-3.2713,-3.4041,-3.4953,-3.5504,-3.5504,-3.534,-3.5145,-3.5415,-3.534,-3.516,-2.3108,-2.3108,-2.3108,-2.3108,-2.3108,-2.3108,-2.3108,-2.3108,-2.3384,-2.4155,-2.3487,-2.3075,-2.3321,-2.3111,-2.2532,-2.1494,-2.1939,-2.1647,-2.0204,-1.9595,-1.8849,-1.7856,-1.7812,-1.7617,-1.7187,-1.7441,-1.7451,-1.7178,-1.7451,-1.7656,-1.7812,-1.7949,-1.8008,-1.8008,-1.8008,-1.8008,-1.8008,-1.8008,-1.8008,-1.8008,-1.8008,-1.8529,-1.9332,-1.9595,-2.0074,-2.0719,-2.1596,-2.1534,-2.1094,-2.1696,-2.1864,-2.1778,-2.1528,-2.1688,-2.1803,-2.1207,-2.127,-2.1482,-2.1287,-2.125,-2.1182,-2.0889,-2.1211,-2.16,-2.16,-2.1973,-2.2246,-2.2109,-2.246,-2.275,-2.2661,-2.3524,-2.4627,-2.5619,-2.5536,-2.6073,-2.8182,-2.7603,-2.7418,-2.8512,-2.8473,-2.836,-2.836,-2.8512,-2.8586,-2.8386,-2.9089,-2.9428,-2.9176,-2.9578,-2.9792,-2.9792,-2.9792,-2.9792,-2.9792,-2.9792,-2.9792,-2.9792,-2.9792,-2.9792,-2.9792,-2.9792,-2.9792,-2.9869,-3.1082,-3.1997,-3.2713,-3.3959,-3.4872,-3.5504,-3.5504,-3.5504,-3.5504,-3.5504,-3.5504,-3.5504,-2.3108,-2.3108,-2.3108,-2.3108,-2.3108,-2.3108,-2.3108,-2.3108,-2.3509,-2.4637,-2.4343,-2.4205,-2.4725,-2.4318,-2.3753,-2.3158,-2.3108,-2.2763,-2.1939,-2.0268,-1.8748,-1.7468,-1.7393,-1.7187,-1.6716,-1.7578,-1.7555,-1.6707,-1.7555,-1.7803,-1.7393,-1.7812,-1.8008,-1.8008,-1.8008,-1.8008,-1.8008,-1.8008,-1.8008,-1.8008,-1.8008,-1.8529,-1.9398,-2.0268,-2.059,-2.0719,-2.1585,-2.1877,-2.1753,-2.0878,-2.1698,-2.2978,-2.2238,-2.2684,-2.3294,-2.2291,-2.2739,-2.3368,-2.2836,-2.2691,-2.2478,-2.1461,-2.1885,-2.251,-2.251,-2.2842,-2.2974,-2.2598,-2.3744,-2.4693,-2.4293,-2.5491,-2.6356,-2.5902,-2.6199,-2.6753,-2.7418,-2.7854,-2.8518,-2.9663,-2.9289,-2.89,-2.8888,-2.8436,-2.8348,-2.885,-2.8888,-2.9189,-2.9767,-2.9792,-2.9792,-2.9792,-2.9792,-2.9792,-2.9792,-2.9792,-2.9792,-2.9792,-2.9792,-2.9792,-2.9792,-2.9792,-2.9792,-2.9895,-3.1792,-3.2593,-3.2749,-3.4673,-3.5472,-3.5472,-3.5504,-3.5504,-3.5504,-3.5504,-3.5504,-3.5504,-2.3108,-2.3108,-2.3108,-2.3108,-2.3108,-2.3108,-2.3108,-2.3108,-2.3371,-2.4142,-2.374,-2.3572,-2.4192,-2.371,-2.3296,-2.312,-2.3108,-2.2506,-2.1069,-1.9629,-1.8387,-1.7448,-1.7666,-1.7627,-1.7197,-1.7725,-1.7734,-1.7187,-1.7734,-1.7949,-1.7822,-1.7949,-1.8008,-1.8008,-1.8008,-1.8008,-1.8008,-1.8008,-1.8008,-1.8008,-1.8008,-1.8529,-1.9332,-1.9595,-2.0074,-2.0623,-2.0878,-2.0974,-2.0942,-2.0687,-2.1597,-2.2903,-2.3379,-2.3509,-2.3441,-2.3147,-2.3257,-2.3368,-2.2836,-2.2922,-2.2894,-2.1915,-2.2109,-2.2712,-2.3513,-2.337,-2.3521,-2.5008,-2.5041,-2.4999,-2.5705,-2.6176,-2.6714,-2.7324,-2.6902,-2.7122,-2.887,-2.8539,-2.8518,-2.9663,-2.9641,-2.9377,-2.8938,-2.9151,-2.9189,-2.8913,-2.9302,-2.9616,-2.9779,-2.9792,-2.9792,-2.9792,-2.9792,-2.9792,-2.9792,-2.9792,-2.9792,-2.9792,-2.9792,-2.9792,-2.9792,-2.9792,-2.9792,-2.9869,-3.1082,-3.1609,-3.1706,-3.2961,-3.3463,-3.3547,-3.4177,-3.4461,-3.4543,-3.5246,-3.5504,-3.5504,-2.3108,-2.3108,-2.3108,-2.3108,-2.3108,-2.3108,-2.3108,-2.3108,-2.3308,-2.3916,-2.3459,-2.3333,-2.3941,-2.3446,-2.3108,-2.3108,-2.3108,-2.2525,-2.1195,-2.0374,-1.9393,-1.8203,-1.8388,-1.8082,-1.7139,-1.7705,-1.7725,-1.7119,-1.7725,-1.793,-1.7764,-1.793,-1.8168,-1.8539,-1.8744,-1.8883,-1.9021,-1.888,-1.8724,-1.8496,-1.8134,-1.8337,-1.8821,-1.9177,-1.9398,-1.9628,-1.9944,-2.0074,-2.0074,-2.0074,-2.1137,-2.2628,-2.3822,-2.4155,-2.4072,-2.4072,-2.4512,-2.4804,-2.3798,-2.3874,-2.393,-2.2693,-2.2578,-2.2926,-2.361,-2.377,-2.4178,-2.5557,-2.5994,-2.6315,-2.6994,-2.7504,-2.7999,-2.8688,-2.8239,-2.8251,-2.9624,-2.9197,-2.9028,-2.9702,-2.9792,-2.9654,-2.9302,-2.9591,-2.9641,-2.9302,-2.9591,-2.9792,-2.9792,-3.0139,-3.0177,-2.9792,-3.0177,-3.0177,-2.9792,-2.9792,-2.9792,-2.9792,-2.9792,-2.9792,-2.9792,-2.9792,-2.9792,-2.9856,-3.0796,-3.1217,-3.1278,-3.2213,-3.2593,-3.2664,-3.3206,-3.3449,-3.3567,-3.4543,-3.4905,-3.4953,-2.3108,-2.3108,-2.3108,-2.3108,-2.3108,-2.3108,-2.3108,-2.3108,-2.3296,-2.3853,-2.3434,-2.3308,-2.3866,-2.3421,-2.3108,-2.3108,-2.3108,-2.2763,-2.1939,-2.1908,-2.1101,-1.9365,-1.9299,-1.853,-1.6865,-1.7574,-1.7594,-1.6814,-1.7594,-1.7812,-1.7451,-1.7832,-1.8428,-1.9198,-1.9815,-2.0222,-2.0463,-2.022,-1.9786,-1.9233,-1.8337,-1.8008,-1.8076,-1.8877,-1.8687,-1.811,-1.8888,-1.9177,-1.922,-1.9459,-2.0604,-2.2227,-2.3884,-2.4671,-2.5016,-2.5171,-2.6185,-2.6952,-2.5328,-2.5216,-2.5185,-2.3527,-2.3091,-2.3135,-2.3353,-2.4135,-2.4872,-2.521,-2.6767,-2.8136,-2.8215,-2.9106,-2.9792,-2.9792,-2.9792,-2.9792,-2.9792,-2.9792,-2.9792,-2.9792,-2.9792,-2.9792,-2.9792,-2.9792,-2.9792,-2.9792,-2.9792,-2.9792,-2.9792,-3.0696,-3.0796,-2.9934,-3.0758,-3.0796,-2.9934,-2.983,-2.9792,-2.9792,-2.9792,-2.9792,-2.9792,-2.9792,-2.9792,-2.9869,-3.0696,-3.1068,-3.1143,-3.1997,-3.2357,-3.2357,-3.2464,-3.2464,-3.2593,-3.3636,-3.3993,-3.4129,-2.3108,-2.3108,-2.3108,-2.3108,-2.3108,-2.3108,-2.3108,-2.3108,-2.3145,-2.3283,-2.3183,-2.3158,-2.3283,-2.3183,-2.3108,-2.3108,-2.3108,-2.2763,-2.1939,-2.1908,-2.1101,-1.9365,-1.9299,-1.8785,-1.7734,-1.792,-1.792,-1.7734,-1.792,-1.7969,-1.7881,-1.7969,-1.811,-1.8357,-1.9554,-1.9898,-1.9594,-1.9961,-1.9786,-1.9233,-1.8337,-1.8008,-1.8008,-1.8202,-1.8168,-1.8008,-1.8202,-1.8269,-1.863,-2.0846,-2.1546,-2.2031,-2.5055,-2.5531,-2.5242,-2.6461,-2.7039,-2.7038,-2.575,-2.5512,-2.5185,-2.3527,-2.3091,-2.3551,-2.5347,-2.5252,-2.5535,-2.8159,-2.8398,-2.8386,-2.9275,-2.9624,-2.9792,-2.9792,-2.9792,-2.9792,-2.9792,-2.9792,-2.9792,-2.9792,-2.9792,-2.9792,-2.9792,-2.9792,-2.9792,-2.9792,-2.9792,-2.9792,-2.9792,-3.0696,-3.1106,-3.0895,-3.1106,-3.1106,-3.0895,-3.0177,-2.9792,-2.9792,-2.9792,-2.9792,-2.9792,-2.9792,-2.9792,-2.9792,-2.9998,-3.0101,-3.0101,-3.0317,-3.0394,-3.0495,-3.1217,-3.1499,-3.1706,-3.338,-3.3993,-3.4129,-2.3198,-2.3108,-2.3108,-2.3108,-2.3108,-2.3108,-2.3108,-2.3108,-2.3108,-2.3108,-2.3108,-2.3108,-2.3108,-2.3108,-2.3108,-2.3108,-2.3108,-2.2914,-2.2506,-2.2476,-2.171,-1.9977,-1.9911,-1.9299,-1.8042,-1.8008,-1.8008,-1.8008,-1.8008,-1.8008,-1.8008,-1.8008,-1.8202,-1.864,-1.9656,-2.0032,-1.9944,-2.0062,-1.9786,-1.9233,-1.8337,-1.8008,-1.8008,-1.8008,-1.8135,-1.8276,-1.8276,-1.8706,-1.9487,-2.1252,-2.1578,-2.1758,-2.427,-2.4872,-2.4936,-2.6202,-2.7295,-2.7841,-2.673,-2.661,-2.6449,-2.5072,-2.4723,-2.4893,-2.5557,-2.563,-2.6254,-2.853,-2.8937,-2.9106,-2.9702,-2.9792,-2.9792,-2.9792,-2.9792,-2.9792,-2.9792,-2.9792,-2.9792,-2.9792,-2.9792,-2.9792,-2.9792,-2.9792,-2.9792,-2.9792,-2.9792,-2.9792,-2.9792,-3.0696,-3.1007,-3.0558,-3.097,-3.097,-3.052,-3.0037,-2.9792,-2.9792,-2.9792,-2.9792,-2.9792,-2.9792,-2.9792,-2.9792,-2.9792,-2.9792,-2.9792,-2.9792,-2.9792,-2.9869,-3.0343,-3.052,-3.0696,-3.2141,-3.2961,-3.3449,-2.3258,-2.3108,-2.3108,-2.3108,-2.3108,-2.3108,-2.3108,-2.3108,-2.3108,-2.3108,-2.3108,-2.3108,-2.3108,-2.3108,-2.3108,-2.3108,-2.3108,-2.3108,-2.3108,-2.3108,-2.2433,-2.0878,-2.0687,-1.9846,-1.8269,-1.8076,-1.8008,-1.8008,-1.8008,-1.8008,-1.8008,-1.8008,-1.8395,-1.9098,-1.9781,-2.0189,-2.0366,-2.0186,-1.9786,-1.9233,-1.8337,-1.8008,-1.8018,-1.8086,-1.8295,-1.8617,-1.8685,-1.9469,-2.0565,-2.1193,-2.1261,-2.1397,-2.3088,-2.3918,-2.4503,-2.5462,-2.7259,-2.8636,-2.7469,-2.7486,-2.7562,-2.6472,-2.6224,-2.6016,-2.5252,-2.5964,-2.7087,-2.8187,-2.9157,-2.9792,-2.9792,-2.9792,-2.9792,-2.9792,-2.9792,-2.9792,-2.9792,-2.9792,-2.9792,-2.9792,-2.9792,-2.9792,-2.9792,-2.9792,-2.9792,-2.9792,-2.9792,-2.9792,-2.9792,-3.0696,-3.0833,-3.0075,-3.0796,-3.0833,-3.0037,-2.9895,-2.9792,-2.9792,-2.9792,-2.9792,-2.9792,-2.9792,-2.9792,-2.9792,-2.9792,-2.9792,-2.9792,-2.9792,-2.9792,-2.9792,-2.9792,-2.9792,-2.9895,-3.0871,-3.1779,-3.2713,-2.3258,-2.3108,-2.3108,-2.3108,-2.3108,-2.3108,-2.3108,-2.3108,-2.3108,-2.3108,-2.3108,-2.3108,-2.3108,-2.3108,-2.3108,-2.3108,-2.3108,-2.3108,-2.3108,-2.3108,-2.2702,-2.1753,-2.1005,-2.0139,-1.9144,-1.8395,-1.8008,-1.8008,-1.8008,-1.8008,-1.8008,-1.8008,-1.8076,-1.8221,-1.952,-1.9864,-1.9495,-1.9927,-1.9786,-1.9233,-1.8337,-1.8008,-1.8047,-1.8383,-1.8549,-1.8646,-1.9062,-1.9536,-2.0123,-2.1078,-2.108,-2.1068,-2.3367,-2.4198,-2.4449,-2.538,-2.7165,-2.8558,-2.7031,-2.6673,-2.6431,-2.5294,-2.5041,-2.5252,-2.6099,-2.7116,-2.8187,-2.9326,-2.9702,-2.9792,-2.9792,-2.9792,-2.9792,-2.9792,-2.9792,-2.9792,-2.9792,-2.9792,-2.9792,-2.9792,-2.9792,-2.9792,-2.9792,-2.9792,-2.9792,-2.9792,-2.9792,-2.9792,-2.9792,-3.0696,-3.1143,-3.1007,-3.1143,-3.1143,-3.1007,-3.0216,-2.9792,-2.9792,-2.9792,-2.9792,-2.9792,-2.9792,-2.9792,-2.9792,-2.9792,-2.9792,-2.9792,-2.9792,-2.9792,-2.9792,-2.9792,-2.9792,-2.9895,-3.0871,-3.1779,-3.2629,-2.3849,-2.3395,-2.3108,-2.3108,-2.3108,-2.2995,-2.2694,-2.2907,-2.2995,-2.2681,-2.2907,-2.3108,-2.3108,-2.3108,-2.2982,-2.2669,-2.2932,-2.3108,-2.3108,-2.3108,-2.2732,-2.1939,-2.1522,-2.091,-2.0042,-1.9661,-1.9464,-1.9464,-1.8944,-1.8496,-1.8018,-1.8747,-1.8692,-1.8027,-1.8878,-1.9,-1.8583,-1.9061,-1.9132,-1.8891,-1.8488,-1.8506,-1.8721,-1.8617,-1.89,-1.9377,-1.9844,-2.0486,-2.1145,-2.1584,-2.1212,-2.1013,-2.3504,-2.4062,-2.4102,-2.5349,-2.6605,-2.7413,-2.6703,-2.6524,-2.6513,-2.6614,-2.6644,-2.6942,-2.8079,-2.87,-2.9197,-2.9714,-2.9792,-2.9792,-2.9792,-2.9792,-2.9792,-2.9792,-2.9792,-2.9792,-2.9792,-2.9792,-2.9792,-2.9792,-2.9792,-2.9792,-2.9792,-2.9792,-2.9792,-2.9792,-2.9792,-2.9792,-2.9792,-3.0177,-3.0419,-3.0419,-3.0727,-3.074,-3.0419,-3.0302,-3.0093,-2.9792,-2.9792,-2.9792,-2.9792,-2.9792,-2.9792,-2.9792,-2.9792,-2.9792,-2.9792,-2.9792,-2.9792,-2.9792,-2.9792,-2.9792,-2.9869,-3.0279,-3.0671,-3.1095]},{"header":{"parameterUnit":"m.s-1","parameterCategory":1,"la1":30.6,"la2":28.766,"lo1":-90.7593,"lo2":-88.6598,"dy":0.0162,"dx":0.0183,"nx":116,"ny":114,"refTime":"2024-03-30T12:00:00:Z","depth":0,"parameterNumber":3,"parameterNumberName":"V-component_of_WINDS"},"data":[0.0,0.0,0.0,0.0,0.0,0.0,0.0,0.0,0.0,0.0,0.0,0.0,0.0,0.0,0.0,0.0,0.0,0.0,0.0,0.0,0.0,0.0,0.0,0.0,0.0,0.0,0.0,0.0,0.0,0.0,0.0,0.0,0.0,0.0,0.0,0.0,0.0,0.0,0.0,0.0,0.0,0.0,0.0,0.0,0.0,0.0,0.0,0.0,0.0,0.0,0.0,0.0,0.0,0.0,0.0,0.0,0.0,0.0,0.0,0.0,0.0,0.0,0.0,0.0,0.0,0.0,0.0,0.0,0.0,0.0,0.0,0.0,0.0,0.0,0.0,0.0,0.0,0.0,0.0,0.0,0.0,0.0,0.0,0.0,0.0,0.0,0.0,0.0,0.0,0.0,0.0,0.0,0.0,0.0,0.0,0.0,0.0,0.0,0.0,0.0,0.0,0.0,0.0,0.0,0.0,0.0,0.0,0.0,0.0,0.0,0.0,0.0,0.0,0.0,0.0,0.0,0.0,0.0,0.0,0.0,0.0,0.0,0.0,0.0,0.0,0.0,0.0,0.0,0.0,0.0,0.0,0.0,0.0,0.0,0.0,0.0,0.0,0.0,0.0,0.0,0.0,0.0,0.0,0.0,0.0,0.0,0.0,0.0,0.0,0.0,0.0,0.0,0.0,0.0,0.0,0.0,0.0,0.0,0.0,0.0,0.0,0.0,0.0,0.0,0.0,0.0,0.0,0.0,0.0,0.0,0.0,0.0,0.0,0.0,0.0,0.0,0.0,0.0,0.0,0.0,0.0,0.0,0.0,0.0,0.0,0.0,0.0,0.0,0.0,0.0,0.0,0.0,0.0,0.0,0.0,0.0,0.0,0.0,0.0,0.0,0.0,0.0,0.0,0.0,0.0,0.0,0.0,0.0,0.0,0.0,0.0,0.0,0.0,0.0,0.0,0.0,0.0,0.0,0.0,0.0,0.0,0.0,0.0,0.0,0.0,0.0,0.0,0.0,0.0,0.0,0.0,0.0,0.0,0.0,0.0,0.0,0.0,0.0,0.0,0.0,0.0,0.0,0.0,0.0,0.0,0.0,0.0,0.0,0.0,0.0,0.0,0.0,0.0,0.0,0.0,0.0,0.0,0.0,0.0,0.0,0.0,0.0,0.0,0.0,0.0,0.0,0.0,0.0,0.0,0.0,0.0,0.0,0.0,0.0,0.0,0.0,0.0,0.0,0.0,0.0,0.0,0.0,0.0,0.0,0.0,0.0,0.0,0.0,0.0,0.0,0.0,0.0,0.0,0.0,0.0,0.0,0.0,0.0,0.0,0.0,0.0,0.0,0.0,0.0,0.0,0.0,0.0,0.0,0.0,0.0,0.0,0.0,0.0,0.0,0.0,0.0,0.0,0.0,0.0,0.0,0.0,0.0,0.0,0.0,0.0,0.0,0.0,0.0,0.0,0.0,0.0,0.0,0.0,0.0,0.0,0.0,0.0,0.0,0.0,0.0,0.0,0.0,0.0,0.0,0.0,0.0,0.0,0.0,0.0,0.0,0.0,0.0,0.0,0.0,0.0,0.0,0.0,0.0,0.0,0.0,0.0,0.0,0.0,0.0,0.0,0.0,0.0,0.0,0.0,0.0,0.0,0.0,0.0,0.0,0.0,0.0,0.0,0.0,0.0,0.0,0.0,0.0,0.0,0.0,0.0,0.0,0.0,0.0,0.0,0.0,0.0,0.0,0.0,0.0,0.0,0.0,0.0,0.0,0.0,0.0,0.0,0.0,0.0,0.0,0.0,0.0,0.0,0.0,0.0,0.0,0.0,0.0,0.0,0.0,0.0,0.0,0.0,0.0,0.0,0.0,0.0,0.0,0.0,0.0,0.0,0.0,0.0,0.0,0.0,0.0,0.0,0.0,0.0,0.0,0.0,0.0,0.0,0.0,0.0,0.0,0.0,0.0,0.0,0.0,0.0,0.0,0.0,0.0,0.0,0.0,0.0,0.0,0.0,0.0,0.0,0.0,0.0,0.0,0.0,0.0,0.0,0.0,0.0,0.0,0.0,0.0,0.0,0.0,0.0,0.0,0.0,0.0,0.0,0.0,0.0,0.0,0.0,0.0,0.0,0.0,0.0,0.0,0.0,0.0,0.0,0.0,0.0,0.0,0.0,0.0,0.0,0.0,0.0,0.0,0.0,0.0,0.0,0.0,0.0,0.0,0.0,0.0,0.0,0.0,0.0,0.0,0.0,0.0,0.0,0.0,0.0,0.0,0.0,0.0,0.0,0.0,0.0,0.0,0.0,0.0,0.0,0.0,0.0,0.0,0.0,0.0,0.0,0.0,0.0,0.0,0.0,0.0,0.0,0.0,0.0,0.0,0.0,0.0,0.0,0.0,0.0,0.0,0.0,0.0,0.0,0.0,0.0,0.0,0.0,0.0,0.0,0.0,0.0,0.0,0.0,0.0,0.0,0.0,0.0,0.0,0.0,0.0,0.0,0.0,0.0,0.0,0.0,0.0,0.0,0.0,0.0,0.0,0.0,0.0,0.0,0.0,0.0,0.0,0.0,0.0,0.0,0.0,0.0,0.0,0.0,0.0,0.0,0.0,0.0,0.0,0.0,0.0,0.0,0.0,0.0,0.0,0.0,0.0,0.0,0.0,0.0,0.0,0.0,0.0,0.0,0.0,0.0,0.0,0.0,0.0,0.0,0.0,0.0,0.0,0.0,0.0,0.0,0.0,0.0,0.0,0.0,0.0,0.0,0.0,0.0,0.0,0.0,0.0,0.0,0.0,0.0,0.0,0.0,0.0,0.0,0.0,0.0,0.0,0.0,0.0,0.0,0.0,0.0,0.0,0.0,0.0,0.0,0.0,0.0,0.0,0.0,0.0,0.0,0.0,0.0,0.0,0.0,0.0,0.0,0.0,0.0,0.0,0.0,0.0,0.0,0.0,0.0,0.0,0.0,0.0,0.0,0.0,0.0,0.0,0.0,0.0,0.0,0.0,0.0,0.0,0.0,0.0,0.0,0.0,0.0,0.0,0.0,0.0,0.0,0.0,0.0,0.0,0.0,0.0,0.0,0.0,0.0,0.0,0.0,0.0,0.0,0.0,0.0,0.0,0.0,0.0,0.0,0.0,0.0,0.0,0.0,0.0,0.0,0.0,0.0,0.0,0.0,0.0,0.0,0.0,0.0,0.0,0.0,0.0,0.0,0.0,0.0,0.0,0.0,0.0,0.0,0.0,0.0,0.0,0.0,0.0,0.0,0.0,0.0,0.0,0.0,0.0,0.0,0.0,0.0,0.0,0.0,0.0,0.0,0.0,0.0,0.0,0.0,0.0,0.0,0.0,0.0,0.0,0.0,0.0,0.0,0.0,0.0,0.0,0.0,0.0,0.0,0.0,0.0,0.0,0.0,0.0,0.0,0.0,0.0,0.0,0.0,0.0,0.0,0.0,0.0,0.0,0.0,0.0,0.0,0.0,0.0,0.0,0.0,0.0,0.0,0.0,0.0,0.0,0.0,0.0,0.0,0.0,0.0,0.0,0.0,0.0,0.0,0.0,0.0,0.0,0.0,0.0,0.0,0.0,0.0,0.0,0.0,0.0,0.0,0.0,0.0,0.0,0.0,0.0,0.0,0.0,0.0,0.0,0.0,0.0,0.0,0.0,0.0,0.0,0.0,0.0,0.0,0.0,0.0,0.0,0.0,0.0,0.0,0.0,0.0,0.0,0.0,0.0,0.0,0.0,0.0,0.0,0.0,0.0,0.0,0.0,0.0,0.0,0.0,0.0,0.0,0.0,0.0,0.0,0.0,0.0,0.0,0.0,0.0,0.0,0.0,0.0,0.0,0.0,0.0,0.0,0.0,0.0,0.0,0.0,0.0,0.0,0.0,0.0,0.0,0.0,0.0,0.0,0.0,0.0,0.0,0.0,0.0,0.0,0.0,0.0,0.0,0.0,0.0,0.0,0.0,0.0,0.0,0.0,0.0,0.0,0.0,0.0,0.0,0.0,0.0,0.0,0.0,0.0,0.0,0.0,0.0,0.0,0.0,0.0,0.0,0.0,0.0,0.0,0.0,0.0,0.0,0.0,0.0,0.0,0.0,0.0,0.0,0.0,0.0,0.0,0.0,0.0,0.0,0.0,0.0,0.0,0.0,0.0,0.0,0.0,0.0,0.0,0.0,0.0,0.0,0.0,0.0,0.0,0.0,0.0,0.0,0.0,0.0,0.0,0.0,0.0,0.0,0.0,0.0,0.0,0.0,0.0,0.0,0.0,0.0,0.0,0.0,0.0,0.0,0.0,0.0,0.0,0.0,0.0,0.0,0.0,0.0,0.0,0.0,0.0,0.0,0.0,0.0,0.0,0.0,0.0,0.0,0.0,0.0,0.0,0.0,0.0,0.0,0.0,0.0,0.0,0.0,0.0,0.0,0.0,0.0,0.0,0.0,0.0,0.0,0.0,0.0,0.0,0.0,0.0,0.0,0.0,0.0,0.0,0.0,0.0,0.0,0.0,0.0,0.0,0.0,0.0,0.0,0.0,0.0,0.0,0.0,0.0,0.0,0.0,0.0,0.0,0.0,0.0,0.0,0.0,0.0,0.0,0.0,0.0,0.0,0.0,0.0,0.0,0.0,0.0,0.0,0.0,0.0,0.0,0.0,0.0,0.0,0.0,0.0,0.0,0.0,0.0,0.0,0.0,0.0,0.0,0.0,0.0,0.0,0.0,0.0,0.0,0.0,0.0,0.0,0.0,0.0,0.0,0.0,0.0,0.0,0.0,0.0,0.0,0.0,0.0,0.0,0.0,0.0,0.0,0.0,0.0,0.0,0.0,0.0,0.0,0.0,0.0,0.0,0.0,0.0,0.0,0.0,0.0,0.0,0.0,0.0,0.0,0.0,0.0,0.0,0.0,0.0,0.0,0.0,0.0,0.0,0.0,0.0,0.0,0.0,0.0,0.0,0.0,0.0,0.0,0.0,0.0,0.0,0.0,0.0,0.0,0.0,0.0,0.0,0.0,0.0,0.0,0.0,0.0,0.0,0.0,0.0,0.0,0.0,0.0,0.0,0.0,0.0,0.0,0.0,0.0,0.0,0.0,0.0,0.0,0.0,0.0,0.0,0.0,0.0,0.0,0.0,0.0,0.0,0.0,0.0,0.0,0.0,0.0,0.0,0.0,0.0,0.0,0.0,0.0,0.0,0.0,0.0,0.0,0.0,0.0,0.0,0.0,0.0,0.0,0.0,0.0,0.0,0.0,0.0,0.0,0.0,0.0,0.0,0.0,0.0,0.0,0.0,0.0,0.0,0.0,0.0,0.0,0.0,0.0,0.0,0.0,0.0,0.0,0.0,0.0,0.0,0.0,0.0,0.0,0.0,0.0,0.0,0.0,0.0,0.0,0.0,0.0,0.0,0.0,0.0,0.0,0.0,0.0,0.0,0.0,0.0,0.0,0.0,0.0,0.0,0.0,0.0,0.0,0.0,0.0,0.0,0.0,0.0,0.0,0.0,0.0,0.0,0.0,0.0,0.0,0.0,0.0,0.0,0.0,0.0,0.0,0.0,0.0,0.0,0.0,0.0,0.0,0.0,0.0,0.0,0.0,0.0,0.0,0.0,0.0,0.0,0.0,0.0,0.0,0.0,0.0,0.0,0.0,0.0,0.0,0.0,0.0,0.0,0.0,0.0,0.0,0.0,0.0,0.0,0.0,0.0,0.0,0.0,0.0,0.0,0.0,0.0,0.0,0.0,0.0,0.0,0.0,0.0,0.0,0.0,0.0,0.0,0.0,0.0,0.0,0.0,0.0,0.0,0.0,0.0,0.0,0.0,0.0,0.0,0.0,0.0,0.0,0.0,0.0,0.0,0.0,0.0,0.0,0.0,0.0,0.0,0.0,0.0,0.0,0.0,0.0,0.0,0.0,0.0,0.0,0.0,0.0,0.0,0.0,0.0,0.0,0.0,0.0,0.0,0.0,0.0,0.0,0.0,0.0,0.0,0.0,0.0,0.0,0.0,0.0,0.0,0.0,0.0,0.0,0.0,0.0,0.0,0.0,0.0,0.0,0.0,0.0,0.0,0.0,0.0,0.0,0.0,0.0,0.0,0.0,1.2371,0.9934,0.0,0.0,0.0,0.0,0.0,0.0,0.0,0.0,0.0,0.0,0.0,0.0,0.0,0.0,0.0,0.0,0.0,0.0,0.0,0.0,0.0,0.0,0.0,1.0182,1.0351,1.0528,1.065,1.0896,1.1284,0.0,0.0,0.0,0.0,0.0,1.41,1.4825,1.5641,1.6513,1.6513,1.7139,1.8402,1.7996,1.6636,1.4527,0.0,0.0,0.0,0.0,0.0,0.0,0.0,0.0,0.0,0.0,0.0,0.0,0.0,0.0,0.0,0.0,0.0,0.0,0.0,0.0,0.0,0.0,0.0,0.0,0.0,0.0,0.0,0.0,0.0,0.0,0.0,0.0,0.0,0.0,0.0,0.0,0.0,0.0,0.0,0.0,0.0,0.0,0.0,0.0,0.0,0.0,0.0,0.0,0.0,0.0,0.0,0.0,0.0,0.0,0.0,0.0,0.0,0.0,0.0,0.0,0.0,0.0,0.0,0.0,0.0,0.0,0.0,0.0,0.0,0.0,1.6004,1.3382,0.0,0.0,0.0,0.0,0.0,0.0,0.0,0.0,0.0,0.0,0.0,0.0,0.0,0.0,0.0,0.0,0.0,0.0,0.0,0.0,0.0,1.1361,1.1628,1.2103,1.2409,1.2465,1.2696,1.2694,1.2486,1.3416,0.0,0.0,1.4606,1.526,1.4889,1.5557,1.6598,1.7998,1.8311,1.9262,2.0826,2.0984,2.0047,1.8142,1.7203,0.0,0.0,0.0,0.0,0.0,0.0,0.0,0.0,0.0,0.0,0.0,0.0,0.0,0.0,0.0,0.0,0.0,0.0,0.0,0.0,0.0,0.0,0.0,0.0,0.0,0.0,0.0,0.0,0.0,0.0,0.0,0.0,0.0,0.0,0.0,0.0,0.0,0.0,0.0,0.0,0.0,0.0,0.0,0.0,0.0,0.0,0.0,0.0,0.0,0.0,0.0,0.0,0.0,0.0,0.0,0.0,0.0,0.0,0.0,0.0,0.0,0.0,0.0,2.3529,2.3851,2.528,2.4333,2.4147,2.4329,2.0189,1.7609,1.6152,1.4203,0.0,0.0,0.0,0.0,0.0,0.0,0.0,0.0,0.0,0.0,0.0,0.0,0.0,0.0,0.0,0.0,0.0,0.0,0.0,1.2342,1.2676,1.3666,1.4466,1.4746,1.4819,1.4783,1.4778,1.4925,1.4945,1.489,1.5843,1.6401,1.6313,1.7934,1.8662,1.8433,1.9876,2.0992,2.1745,2.2565,2.2789,2.2365,1.9493,0.0,0.0,0.0,0.0,0.0,0.0,0.0,0.0,0.0,0.0,0.0,0.0,0.0,0.0,0.0,0.0,0.0,0.0,0.0,0.0,0.0,0.0,0.0,0.0,0.0,0.0,0.0,0.0,0.0,0.0,0.0,0.0,0.0,0.0,0.0,0.0,0.0,0.0,0.0,0.0,0.0,0.0,0.0,1.6578,1.745,0.0,0.0,0.0,0.0,0.0,0.0,0.0,0.0,0.0,0.0,0.0,0.0,0.0,2.5777,2.6264,2.7028,2.7799,2.8524,2.8784,2.9037,2.9332,2.9703,2.9881,2.9848,2.7433,0.0,1.9489,1.8317,0.0,0.0,0.0,0.0,0.0,0.0,0.0,0.0,0.0,0.0,0.0,0.0,0.0,0.0,0.0,0.0,0.0,0.0,0.0,0.0,0.0,1.4361,1.5241,1.5625,1.5783,1.5809,1.5669,1.5861,1.5809,1.5382,1.6649,1.7504,1.7711,1.8477,1.9412,2.0524,2.2098,2.2985,2.325,2.3984,2.3843,2.2941,2.2094,2.0379,1.8128,1.788,0.0,0.0,0.0,0.0,0.0,0.0,0.0,0.0,0.0,0.0,0.0,0.0,0.0,0.0,0.0,0.0,0.0,0.0,0.0,0.0,0.0,0.0,0.0,0.0,0.0,0.0,0.0,0.0,0.0,0.0,0.0,0.0,0.0,0.0,0.0,0.0,0.0,0.0,0.0,1.9334,2.0103,1.9885,1.9951,1.991,0.0,0.0,0.0,0.0,0.0,0.0,0.0,0.0,0.0,2.7292,2.7985,2.8456,2.8748,2.9449,3.0167,3.0927,3.0681,3.0988,3.1796,3.1537,3.1411,3.1253,3.0062,2.7855,2.4933,2.2266,2.0939,2.0362,0.0,0.0,0.0,0.0,1.8544,1.913,0.0,0.0,0.0,0.0,0.0,0.0,0.0,0.0,0.0,0.0,0.0,0.0,1.4371,1.5659,1.6693,1.7151,1.736,1.7374,1.7199,1.747,1.7221,1.6334,1.7823,1.8639,1.8606,1.9143,2.0593,2.2935,2.4072,2.4691,2.4865,2.5571,2.5253,2.4153,2.4792,2.3455,2.0712,2.0186,1.873,0.0,0.0,0.0,0.0,0.0,0.0,0.0,0.0,0.0,0.0,0.0,0.0,0.0,0.0,0.0,0.0,0.0,0.0,0.0,0.0,0.0,0.0,0.0,0.0,0.0,0.0,0.0,0.0,0.0,0.0,0.0,0.0,0.0,0.0,0.0,0.0,0.0,0.0,2.2541,2.3456,2.253,2.3071,2.3171,0.0,0.0,0.0,0.0,0.0,0.0,2.8803,2.9498,3.0001,3.0358,3.0782,3.1062,3.1219,3.1484,3.2105,3.3048,3.2262,3.252,3.3692,3.3034,3.2583,3.2317,3.1744,3.0888,2.9594,2.5601,2.3949,2.3716,2.1428,2.1359,2.238,2.1375,2.1553,2.2333,0.0,0.0,0.0,0.0,0.0,0.0,0.0,0.0,0.0,0.0,0.0,1.6054,1.6566,1.8342,1.9736,2.033,2.0364,2.0364,2.0374,2.0408,1.9802,1.8489,1.9737,1.9877,1.8638,2.0783,2.3015,2.5232,2.5384,2.5744,2.631,2.7486,2.8008,2.7899,2.7634,2.5763,2.2728,2.211,2.0814,1.905,0.0,0.0,0.0,0.0,0.0,0.0,0.0,0.0,0.0,0.0,0.0,0.0,0.0,0.0,0.0,0.0,0.0,0.0,0.0,0.0,0.0,0.0,0.0,0.0,0.0,0.0,0.0,0.0,0.0,0.0,0.0,0.0,0.0,0.0,0.0,0.0,0.0,0.0,0.0,2.5144,2.6303,0.0,0.0,0.0,0.0,2.8941,2.9077,2.9746,3.1149,3.1286,3.19,3.3242,3.3318,3.3646,3.4273,3.3691,3.4034,3.532,3.4631,3.4675,3.5379,3.5347,3.4957,3.4332,3.3645,3.2974,3.2005,2.7923,2.624,2.6116,2.475,2.464,2.5136,2.4503,2.4297,2.4294,0.0,0.0,0.0,0.0,0.0,1.1052,1.2358,1.2573,1.3371,1.5544,1.6456,1.7372,1.8652,1.9901,2.0887,2.1381,2.1428,2.1288,2.0877,2.0696,2.0207,1.9364,2.0131,2.0668,2.0854,2.2647,2.4436,2.6174,2.6587,2.71,2.7684,2.8522,2.8848,2.8796,2.9049,2.8785,2.791,2.4798,2.2763,2.1467,1.9888,1.8527,0.0,0.0,0.0,0.0,0.0,0.0,0.0,0.0,0.0,0.0,0.0,0.0,0.0,0.0,0.0,0.0,0.0,0.0,0.0,0.0,0.0,0.0,0.0,0.0,0.0,0.0,0.0,0.0,0.0,0.0,0.0,0.0,0.0,0.0,0.0,0.0,0.0,2.845,2.918,0.0,2.8461,2.8963,2.9887,3.1214,3.1615,3.2468,3.3955,3.4031,3.4278,3.4786,3.4786,3.4906,3.513,3.4906,3.504,3.5504,3.525,3.5265,3.5504,3.5504,3.4891,3.3829,3.3589,3.2886,3.1706,2.9808,2.882,2.8269,2.6494,2.6201,2.673,2.6038,2.6084,2.6469,0.0,0.0,0.0,0.0,1.0839,1.1445,1.2795,1.3213,1.4285,1.6763,1.7506,1.8364,1.9908,2.0974,2.177,2.2274,2.2292,2.2134,2.1729,2.154,2.109,2.0251,2.0815,2.194,2.3538,2.4819,2.6174,2.7627,2.8217,2.8819,2.9462,3.009,3.0434,3.0594,3.0704,3.0984,3.118,2.7951,2.5645,2.4002,2.2173,2.095,1.9958,0.0,0.0,0.0,0.0,0.0,0.0,0.0,0.0,0.0,0.0,0.0,0.0,0.0,0.0,0.0,0.0,0.0,0.0,0.0,0.0,0.0,0.0,0.0,0.0,0.0,0.0,0.0,0.0,0.0,0.0,0.0,0.0,0.0,0.0,2.976,3.1415,3.0876,3.2018,3.2458,3.1492,3.1919,3.2692,3.3709,3.3897,3.4416,3.5442,3.5504,3.5504,3.5504,3.5504,3.5504,3.5504,3.5504,3.5504,3.5504,3.5504,3.5504,3.5504,3.5504,3.4771,3.3499,3.3499,3.2751,3.1451,3.0791,3.0253,2.9762,2.8147,2.7841,2.8192,2.746,2.7517,2.7914,0.0,0.0,0.0,1.0593,1.1257,1.2081,1.2887,1.3666,1.4767,1.6361,1.7696,1.8988,2.033,2.1568,2.2506,2.3058,2.3083,2.3083,2.3083,2.3083,2.2533,2.135,2.1981,2.3665,2.6457,2.7169,2.8217,2.9636,3.0208,3.0823,3.1511,3.2183,3.2871,3.3454,3.263,3.228,3.2245,3.1434,2.9443,2.6663,2.5098,2.3931,2.2991,0.0,0.0,0.0,0.0,0.0,0.0,0.0,0.0,0.0,0.0,0.0,0.0,0.0,0.0,0.0,0.0,0.0,0.0,0.0,0.0,0.0,0.0,0.0,0.0,0.0,0.0,0.0,0.0,0.0,0.0,0.0,0.0,0.0,2.8812,3.1301,3.3006,3.241,3.4809,3.6237,3.5624,3.6118,3.6492,3.6492,3.5878,3.5504,3.5504,3.5504,3.5504,3.5504,3.5504,3.5504,3.5504,3.5504,3.5504,3.5504,3.5504,3.5504,3.5504,3.5504,3.4771,3.3499,3.3499,3.2751,3.1451,3.0806,3.0537,3.0477,2.9834,2.9606,2.9532,2.8846,2.8592,2.8472,0.0,0.0,1.0593,1.0593,1.1257,1.2081,1.2887,1.3666,1.5097,1.7625,1.8288,1.9327,2.1527,2.2106,2.2506,2.3058,2.2744,2.2506,2.2506,2.2506,2.2812,2.3408,2.3744,2.4922,2.7185,2.7445,2.8438,3.0253,3.0417,3.0823,3.1511,3.2183,3.2871,3.3514,3.3759,3.414,3.4534,3.359,3.2472,3.1146,2.853,2.6748,2.5441,0.0,0.0,0.0,0.0,0.0,0.0,0.0,0.0,0.0,0.0,0.0,0.0,0.0,0.0,0.0,0.0,0.0,0.0,0.0,0.0,0.0,0.0,0.0,0.0,0.0,0.0,0.0,0.0,0.0,0.0,0.0,3.0666,3.2324,3.1966,3.3187,3.4421,3.5207,3.6015,3.6596,3.6866,3.6641,3.6492,3.6492,3.5878,3.5504,3.5504,3.5504,3.5504,3.5504,3.5504,3.5504,3.5504,3.5504,3.5504,3.5504,3.5504,3.5504,3.5504,3.5504,3.4771,3.3499,3.3499,3.2751,3.1496,3.1301,3.1227,3.1122,3.0028,2.9606,2.9532,2.8846,2.8278,2.7929,0.0,1.0593,1.0593,1.0593,1.1257,1.2081,1.2887,1.3666,1.5156,1.7771,1.8346,1.9308,2.1403,2.1832,2.2096,2.2393,2.2359,2.2309,2.2309,2.2843,2.3513,2.4341,0.0,2.644,2.7935,2.8527,2.9505,3.0913,3.0913,3.1391,3.2333,3.2751,3.344,3.4352,3.4741,3.513,3.5472,3.4872,3.4438,3.3933,3.1531,2.9436,2.764,2.5988,2.4805,2.3765,2.2083,2.2013,2.2469,2.0717,0.0,0.0,0.0,0.0,0.0,0.0,0.0,0.0,0.0,0.0,0.0,0.0,0.0,0.0,0.0,0.0,0.0,0.0,0.0,0.0,0.0,0.0,0.0,0.0,3.238,3.3932,3.449,3.5035,3.5699,3.6746,3.7105,3.7539,3.8197,3.7659,3.7165,3.6896,3.6282,3.5804,3.5519,3.5504,3.5504,3.5504,3.5504,3.5504,3.5504,3.5504,3.5504,3.5504,3.5504,3.5504,3.5489,3.5205,3.4502,3.3484,3.32,3.2497,3.1511,3.1511,3.1511,3.1436,0.0,0.0,0.0,0.0,2.8423,2.766,0.0,1.0593,1.0593,1.0593,1.1257,1.205,1.2757,1.3545,1.4856,1.7047,1.7817,1.8742,2.0289,2.0849,2.1123,2.1173,2.1542,2.1898,2.2196,2.3462,2.4354,2.4715,2.6503,2.7893,2.8712,2.9894,3.0881,3.1615,3.154,3.2183,3.3499,3.3499,3.4173,3.5385,3.5474,3.5504,3.5504,3.5504,3.5504,3.5379,3.3871,3.1873,2.9613,2.7769,2.6907,2.637,2.4426,2.4215,2.4649,2.3201,0.0,0.0,0.0,0.0,0.0,0.0,0.0,0.0,0.0,0.0,0.0,0.0,0.0,0.0,0.0,0.0,0.0,0.0,0.0,0.0,0.0,0.0,0.0,0.0,3.3809,3.5207,3.6507,3.6776,3.703,3.7569,3.8153,3.8781,3.9469,3.8841,3.8123,3.7464,3.6836,3.6207,3.5549,3.5504,0.0,0.0,0.0,3.5504,3.5504,3.5504,3.5504,3.5504,3.5504,3.5504,3.5489,3.4801,3.4113,3.3455,3.2796,3.2108,3.1511,3.1511,3.1466,3.1391,3.1391,3.1346,3.1152,3.0013,2.8753,2.76,0.0,1.0593,1.0593,1.0593,1.1257,1.1865,1.202,1.2726,1.3849,1.5533,1.5843,1.6681,1.8708,1.8686,1.8695,1.9106,1.8858,1.9523,2.1524,2.2964,2.4464,2.604,2.7045,2.8159,2.937,3.0118,3.1106,3.2303,3.1765,3.2183,3.3499,3.3499,3.3918,3.4728,3.525,3.5504,3.5504,3.5504,3.5504,3.5444,3.4582,3.3185,3.141,2.9087,2.7893,2.7259,2.5728,2.6633,2.8191,2.6324,2.6355,2.6986,2.5661,0.0,0.0,0.0,0.0,0.0,0.0,0.0,0.0,0.0,0.0,0.0,0.0,0.0,0.0,0.0,0.0,0.0,0.0,0.0,0.0,3.3956,3.523,3.6552,3.7838,3.8497,3.8886,3.902,3.914,3.9484,4.0142,3.911,3.8123,3.7464,3.6836,3.6207,3.5549,3.5504,3.5504,3.5504,3.5504,3.5504,3.5504,3.5504,3.5504,3.5504,3.5504,0.0,3.5489,3.4801,3.4113,3.3455,3.2796,3.2108,3.1511,3.1511,3.1182,3.0702,3.0702,3.0402,2.9924,2.9696,2.8753,2.7675,0.0,1.0228,1.0593,1.0593,1.0926,1.1351,1.1741,1.2143,1.2945,1.4506,1.4702,1.5245,1.6699,1.6634,1.661,1.6878,1.7594,1.9179,2.1829,2.3297,2.4805,2.6484,2.7884,2.8918,2.9592,3.0522,3.1316,3.1989,3.166,3.2004,3.3006,3.3006,3.3529,3.4518,3.4846,3.519,3.5504,3.5504,3.531,3.4936,3.4262,3.3358,3.2167,3.0502,2.8947,2.7597,2.6893,2.79,2.9333,2.8031,2.8656,2.983,2.8808,2.7662,2.6354,0.0,0.0,0.0,0.0,0.0,0.0,0.0,0.0,0.0,0.0,0.0,0.0,0.0,0.0,3.2833,3.3472,0.0,3.5674,3.5917,3.6776,3.7778,3.8766,3.9768,4.0277,3.9948,3.9903,4.0038,4.0367,3.9499,3.8482,3.7479,3.712,3.6522,3.5549,3.5504,3.5504,3.5504,3.5504,3.5504,3.5504,3.5504,3.5504,3.5504,3.5504,3.5504,3.5474,3.4457,3.3799,3.344,3.2452,3.1809,3.1511,3.1511,3.1092,3.0477,3.0163,2.9654,2.9086,2.9086,2.8468,2.7645,0.0,0.9462,1.0199,1.053,1.0593,1.0839,1.1469,1.1562,1.2058,1.3468,1.3639,1.3948,1.4704,1.4715,1.4725,1.4878,1.6684,1.9101,2.2127,2.3433,2.4864,2.6505,2.8113,2.9034,2.9125,3.0276,3.1057,3.1426,3.1308,3.1752,3.2706,3.2706,3.3335,3.4518,3.4653,3.4981,3.5504,3.5504,3.51,3.4459,3.3903,3.3215,3.2408,3.1516,2.9851,2.792,2.7571,2.8273,2.9249,2.8649,2.9935,3.1681,3.1061,3.0513,2.9719,2.7739,2.6879,0.0,0.0,0.0,0.0,0.0,0.0,0.0,0.0,0.0,3.1855,3.4466,3.5429,3.6059,3.7016,3.767,3.795,3.7506,3.8191,3.8979,3.955,4.0778,4.1429,4.101,4.0741,4.0591,4.0591,3.9753,3.8706,3.7494,3.73,3.6731,3.5564,3.5504,3.5504,3.5504,3.5504,3.5504,3.5504,3.5636,3.5636,3.5504,3.5651,3.5651,3.5459,3.4113,3.3499,3.3425,3.2079,3.1511,3.1511,3.1511,3.1092,3.0447,2.9846,2.9175,2.8577,2.8442,2.8053,2.76,0.0,0.7995,0.8769,1.0333,1.0593,1.0618,1.0713,1.0744,1.1045,1.1943,1.2066,1.2373,1.3166,1.2941,1.3009,1.3729,1.5182,1.7644,2.1353,2.2364,2.3903,2.6404,2.6664,2.6972,2.7459,2.8188,2.9424,3.1215,3.0694,3.1452,3.338,3.338,3.3784,3.4533,3.5115,3.5429,3.5504,3.5504,3.51,3.4503,3.4429,3.3619,3.2408,3.1516,3.023,2.8652,2.7162,2.7562,2.8652,2.7761,2.9394,3.1661,3.0757,3.1294,3.1848,2.9781,0.0,2.8074,2.6537,2.7121,2.8735,3.0913,3.2021,3.3318,0.0,0.0,3.7406,3.8987,3.9326,3.9165,3.8573,3.8969,3.8994,3.7833,3.9069,4.024,4.043,4.1519,4.2447,4.2901,4.1983,4.1265,4.1265,3.9589,3.8197,3.7464,3.6896,3.6267,3.5549,3.5504,3.5504,3.5504,3.5504,3.5504,3.5504,3.6134,3.6134,3.5504,3.6165,3.6134,3.5459,3.4113,3.3499,3.3425,3.2079,3.1511,3.1511,3.1511,3.1092,3.0447,2.9846,2.9175,2.8532,2.7944,2.766,2.76,0.0,0.0,0.8221,0.8967,0.9524,1.0009,1.0523,1.0593,1.0713,1.1045,1.1108,1.1233,1.1577,1.1459,1.1677,1.247,1.3929,1.6195,1.9479,2.1106,2.2963,2.5247,2.6036,2.6643,2.7193,2.7861,2.8753,2.9932,2.9662,3.0174,3.134,3.134,3.2173,3.3721,3.3966,3.4614,3.5504,3.5504,3.51,3.4474,3.4099,3.3029,3.1594,3.0387,2.921,2.8096,2.7105,2.7386,0.0,0.0,2.906,3.0815,3.0781,3.0581,3.015,2.9302,2.8717,0.0,2.908,2.99,3.1063,0.0,3.3938,3.5239,3.7847,3.852,3.9231,4.1517,4.1845,4.1649,4.126,4.1307,4.1081,0.0,4.0821,4.1599,4.1637,4.2381,4.2895,4.2776,4.1953,4.1422,4.1422,3.9933,3.8556,3.7494,3.7165,3.6582,3.5564,3.5504,3.5504,3.5504,3.5504,3.5504,3.5504,3.5814,3.6038,3.6134,3.6446,3.6474,3.6176,3.521,3.4125,3.2913,3.1938,3.1511,3.1511,3.1511,3.1375,3.1036,3.0009,2.9437,2.9057,2.7976,2.76,2.76,0.0,0.0,0.0,0.7605,0.8156,0.8871,0.9748,1.0295,1.0428,0.9939,1.0104,1.0238,1.0238,1.046,1.0926,1.1741,1.3025,1.5002,1.7907,1.9486,2.1284,2.3443,2.4222,2.4912,2.559,2.6074,2.6767,2.7658,2.7924,2.8427,2.9174,2.9772,3.0931,3.2464,3.2668,3.3527,3.4833,3.4641,3.4199,3.3547,3.3057,3.1944,3.0427,2.8975,2.8023,2.7413,2.6765,2.685,0.0,0.0,2.8055,2.9357,2.9783,2.9446,2.8812,2.8558,2.8261,2.8524,3.0905,3.1952,0.0,3.4759,3.565,3.664,3.8876,3.921,3.9742,4.2237,4.258,4.2493,4.2612,4.2618,4.2293,4.1341,4.2022,4.2548,4.2228,4.2441,4.2456,4.2021,4.1047,4.0499,4.0677,3.9593,3.8467,3.7479,3.7075,3.6477,3.5549,3.5504,3.5504,3.5504,3.5504,3.5504,3.5504,3.5701,3.5975,3.6306,3.6307,3.6253,3.6061,3.521,3.3895,3.2272,3.1739,3.1511,3.1511,3.171,3.1718,3.1459,3.0323,2.9748,2.9454,2.8087,2.76,2.76,0.0,0.0,0.0,0.0,0.6752,0.7079,0.7962,0.9518,1.0002,0.8285,0.8812,0.9338,0.9338,1.0079,1.0926,1.1741,1.2487,1.4183,1.7129,1.7323,1.846,2.0985,2.0461,2.0554,2.1539,2.1584,2.2473,2.4256,2.5236,2.6341,2.7617,2.9751,3.0798,3.0887,3.155,3.2354,3.312,3.2551,3.1919,3.1312,3.1284,3.0381,2.8898,2.7488,2.6969,2.6795,2.595,0.0,0.0,0.0,2.5929,2.7205,2.7218,2.8166,0.0,2.8208,2.7842,2.8395,3.1526,0.0,3.4087,3.7135,3.7811,3.8139,3.9719,3.9455,3.9333,4.0777,4.0923,4.096,4.162,4.2125,4.2025,4.0825,4.2092,4.2871,4.178,4.1177,4.0882,4.0868,3.9102,3.8169,0.0,3.8015,3.7449,3.7404,3.6267,3.5549,3.5504,3.5504,3.5504,3.5504,3.5504,3.5504,3.5504,3.6228,3.6228,3.5522,3.5585,3.5247,3.4521,3.3186,3.2197,3.1524,3.1511,3.1511,3.1553,3.2272,3.216,3.1446,3.0817,3.0179,2.9439,2.8079,2.76,2.76,0.0,0.0,0.0,0.0,0.0,0.6593,0.6305,0.7767,0.8672,0.8091,0.8748,0.0,0.0,0.0,0.0,0.0,1.1734,1.2793,1.4282,1.5196,1.6257,1.7631,1.7839,1.8322,1.9198,1.9218,1.9771,2.097,2.2206,2.3232,2.4105,2.5709,2.7015,2.805,2.8938,2.9324,2.9355,2.9757,2.944,2.8619,2.7895,2.7328,2.6763,2.5857,2.5327,2.5073,0.0,0.0,0.0,0.0,0.0,0.0,2.5871,0.0,2.6504,2.7479,2.845,2.9738,3.219,0.0,3.5211,3.6697,3.7456,3.804,3.9066,3.9095,3.9305,4.0716,4.0495,4.0259,4.0907,4.1419,4.1622,4.1207,4.2361,4.3155,4.2765,4.2573,4.1967,4.0681,3.9942,0.0,0.0,0.0,0.0,3.7434,3.7015,3.6402,3.5549,3.5504,3.5504,3.5504,3.5504,3.5504,3.5504,3.5297,3.5322,3.5569,3.519,3.4865,3.4598,3.3206,3.243,3.2188,3.171,3.1511,3.1524,3.1768,3.1749,3.1466,3.035,2.9805,2.9439,2.8077,2.76,2.76,0.0,0.0,0.0,0.0,0.0,0.0,0.0,0.0,0.0,0.0,0.0,0.0,0.0,0.0,0.0,0.0,0.0,1.1703,1.2456,1.3294,1.4211,1.5083,1.5498,1.6053,1.6722,1.6741,1.7147,1.7967,1.9162,2.0159,2.092,2.2359,2.3595,2.4645,2.521,2.5432,2.5476,2.5779,2.5484,2.4764,2.4232,2.3943,2.3805,2.3273,2.3323,0.0,0.0,0.0,0.0,0.0,0.0,0.0,0.0,2.5273,2.5897,2.7693,2.9256,3.096,3.3346,3.4788,3.5747,3.6367,3.6705,3.6905,3.7049,3.6861,3.6978,3.8129,3.8385,3.8572,3.9254,4.0091,4.0681,4.0681,4.1384,4.2049,4.2566,4.1896,4.1056,4.0273,3.9358,3.8383,0.0,0.0,0.0,3.7105,3.6866,3.6372,3.5549,3.5504,3.5504,3.5504,3.5504,3.5504,3.5504,3.4848,3.4498,3.4497,3.411,3.3772,3.3521,3.2622,3.2203,3.2188,3.1454,3.1137,3.115,3.1177,3.1061,3.0807,2.995,2.9454,2.9108,2.8001,2.76,2.76,0.0,0.0,0.0,0.0,0.0,0.0,0.0,0.0,0.0,0.0,0.0,0.0,0.0,0.0,0.0,0.0,0.0,0.0,1.1679,1.1741,0.0,1.3401,1.3449,1.3654,1.4114,1.409,1.4395,1.5132,1.6069,1.7054,1.8127,1.9688,2.0584,2.084,2.0631,2.091,2.1471,2.0828,2.0268,1.9928,2.0288,2.0318,2.0181,2.0003,0.0,0.0,0.0,0.0,0.0,0.0,0.0,0.0,0.0,2.5567,2.7392,2.8829,3.0171,3.1851,3.4744,3.5505,3.5629,3.6168,3.5699,3.4863,3.397,3.317,3.2808,3.3453,3.4824,3.6086,0.0,3.8244,3.9379,3.9373,3.9514,4.0008,4.125,3.9469,3.8452,0.0,0.0,0.0,0.0,0.0,0.0,3.6432,3.5893,3.5549,3.5504,3.5504,3.5504,3.5504,3.5504,3.5504,3.5504,3.4848,3.3814,3.2512,3.2512,3.2138,3.1511,3.1511,3.1481,3.1406,3.0791,3.0477,3.0458,3.0503,3.0138,2.954,2.9556,2.9144,2.8472,2.7839,2.757,2.754,0.0,0.0,0.0,0.0,0.0,0.0,0.0,0.0,0.0,0.0,0.0,0.0,0.0,0.0,0.0,0.0,0.0,0.0,1.0895,0.0,0.0,0.0,0.0,0.0,0.0,0.0,0.0,1.1436,1.2179,1.307,1.4125,1.5656,1.6809,1.7614,1.8303,1.7731,1.6317,1.7602,1.7232,1.5857,0.0,1.6947,1.7524,0.0,0.0,0.0,0.0,0.0,0.0,0.0,0.0,0.0,0.0,2.8821,3.0135,3.1116,3.1532,3.2035,3.3823,3.4172,3.4093,3.4704,3.4341,3.3789,3.3553,3.304,3.2808,3.3453,3.4094,3.4704,3.5373,3.7228,3.8826,3.9298,4.0651,0.0,4.2111,4.1611,0.0,3.8942,0.0,3.7267,3.5959,3.5806,0.0,0.0,3.6058,3.6028,3.5534,3.5504,3.5504,3.5504,3.5504,3.5504,3.5504,3.4848,3.3814,3.2512,3.2512,3.2138,3.1511,3.1511,3.1227,3.0761,3.0582,3.0238,2.9831,2.984,2.9452,2.8858,2.8845,2.8443,2.7839,2.766,2.7285,2.6941,0.0,0.0,0.0,0.0,0.0,0.0,0.0,0.0,0.0,0.0,0.0,0.0,0.0,0.0,0.0,0.0,0.0,0.0,0.0,0.0,0.0,0.0,0.0,0.0,0.0,0.0,0.0,0.0,0.0,0.0,1.2324,1.3289,1.4051,1.4643,1.5184,1.4696,1.3505,1.4505,0.0,0.0,0.0,0.0,0.0,0.0,0.0,0.0,0.0,0.0,0.0,0.0,0.0,2.8592,2.9675,3.0933,3.2084,3.267,0.0,3.3283,3.3903,3.3949,3.371,3.3379,3.3022,3.257,3.1652,3.1418,3.1392,3.1519,3.2506,0.0,3.3868,3.6222,3.8198,0.0,0.0,0.0,4.149,4.125,4.0516,0.0,3.8317,0.0,3.6073,3.5669,3.5504,0.0,3.5848,3.5893,3.5534,3.5504,3.5504,3.5504,3.5504,3.5355,3.5055,3.4698,3.3814,3.2512,3.2512,3.2138,3.1511,3.1511,3.1286,3.0913,3.0627,3.0163,2.9592,2.9265,2.8757,2.8143,2.8143,2.7944,2.76,2.76,2.718,2.6632,0.0,0.0,0.0,0.0,0.0,0.0,0.0,0.0,0.0,0.0,0.5458,0.0,0.0,0.0,0.0,0.0,0.0,0.0,0.0,0.0,0.0,0.0,0.0,0.0,0.0,0.0,0.0,0.0,0.0,0.0,0.0,0.0,0.0,0.0,0.0,0.0,0.0,0.0,0.0,0.0,0.0,0.0,0.0,0.0,0.0,0.0,0.0,0.0,0.0,0.0,2.9109,2.9546,3.1185,3.2445,3.343,3.3794,3.4239,3.4574,3.429,3.4113,3.3723,3.2355,3.1978,3.1408,2.9467,2.9428,2.9628,2.9013,0.0,3.2341,3.2447,3.5016,3.7175,3.7372,0.0,3.9738,4.0312,3.9903,3.9454,3.9185,3.8123,3.7135,3.6417,3.5833,3.5504,3.5504,3.5504,3.5504,3.5504,3.5504,3.5504,3.5504,3.5504,3.522,3.4653,3.4638,3.3948,3.2647,3.2647,3.2228,3.1511,3.1511,3.1451,3.1331,3.0761,3.0163,2.9562,2.8876,2.8248,2.772,2.763,2.76,2.76,2.76,2.718,2.6587,0.0,0.0,0.0,0.0,0.0,0.0,0.0,0.0,0.0,0.0,0.5848,0.6079,0.0,0.0,0.0,0.0,0.0,0.0,0.0,0.0,0.0,0.0,0.0,0.0,0.0,0.0,0.0,0.0,0.0,0.0,0.0,0.0,0.0,0.0,0.0,0.0,0.0,0.0,0.0,0.0,0.0,0.0,0.0,0.0,0.0,0.0,0.0,0.0,0.0,0.0,2.9131,3.0699,3.379,3.4462,3.4274,3.523,3.4376,3.3258,3.3688,3.3217,3.251,3.2215,3.1848,3.1187,2.9931,2.9716,0.0,0.0,2.9893,3.0985,3.1652,3.2992,3.474,3.7052,0.0,0.0,0.0,0.0,3.9619,0.0,0.0,0.0,0.0,3.5564,0.0,0.0,3.5504,3.5504,3.5504,3.5504,3.5504,3.5504,3.5504,3.5444,3.5325,3.5325,3.4651,3.332,3.332,3.2706,3.1511,3.1511,3.1197,3.0672,3.0552,3.0163,2.9562,2.8876,2.8532,2.8368,2.7824,2.76,2.76,2.76,2.718,2.6587,0.0,0.0,0.0,0.0,0.0,0.0,0.0,0.734,0.7177,0.6752,0.5943,0.6079,0.78,0.7994,0.8705,0.0,0.0,0.0,0.0,0.0,0.0,0.0,0.0,0.0,0.0,0.0,0.9723,0.8794,0.0,0.0,0.0,0.9948,1.0635,1.0792,0.0,0.0,0.0,0.0,0.0,0.0,0.0,0.0,0.0,0.0,0.0,0.0,0.0,0.0,0.0,0.0,2.6891,2.8775,3.315,3.4439,3.441,3.4727,3.4307,3.3723,3.3475,3.3035,3.2591,3.229,3.18,3.1035,2.9654,0.0,0.0,0.0,2.9267,3.0286,3.1398,3.2839,0.0,0.0,0.0,0.0,0.0,0.0,0.0,0.0,0.0,0.0,0.0,3.5818,3.5878,3.5534,3.5818,3.5863,3.5519,3.5504,3.5504,3.5504,3.5504,3.5504,3.5504,3.5504,3.4831,3.3499,3.3499,3.2811,3.1511,3.1511,3.1316,3.1017,3.1017,3.0492,2.9606,2.9579,2.9205,2.8562,2.8233,2.8113,2.8094,2.7735,2.718,2.6632,0.0,0.0,0.0,0.0,0.0,0.0,0.8291,0.7859,0.74,0.7013,0.6531,0.6699,0.7864,0.7994,0.8705,0.0,0.0,0.0,0.0,0.0,0.0,0.0,0.0,0.0,0.0,0.0,0.0,0.9619,0.9869,0.0,0.0,0.0,0.0,0.0,1.0682,1.1166,1.1073,0.0,0.0,0.0,0.0,1.2366,0.0,0.0,0.0,0.0,0.0,0.0,0.0,0.0,2.3928,2.5605,3.0048,3.2353,3.3441,3.3595,3.3882,3.4022,3.3275,3.3124,3.2862,3.1908,3.1369,3.0586,2.8796,2.8486,0.0,0.0,2.8543,2.9412,3.0711,0.0,3.3682,0.0,3.6596,0.0,0.0,0.0,0.0,0.0,0.0,0.0,0.0,3.6312,0.0,3.5953,3.6267,3.6207,3.5549,3.5504,3.5504,3.5504,3.5504,3.5504,3.5504,3.5504,3.4906,3.3709,3.3559,3.2886,3.1705,3.157,3.1511,3.1511,3.1511,3.0913,3.0028,3.0357,2.9909,2.8996,2.8861,2.8727,2.8532,2.8019,2.739,2.6881,0.0,0.0,0.0,0.0,0.0,0.0,0.9172,0.9786,0.9678,0.8091,0.8484,0.8716,0.8059,0.7994,0.8705,0.0,0.0,0.0,0.0,0.0,0.0,0.0,0.0,0.0,0.0,0.0,0.0,1.0031,1.0249,0.0,0.0,0.0,0.0,0.0,0.0,1.0308,1.0048,1.0048,0.0,0.0,0.0,0.0,0.0,0.0,0.0,0.0,0.0,0.0,0.0,0.0,0.0,2.1958,2.3849,2.71,3.0584,3.2514,0.0,0.0,3.2973,3.3124,3.2591,3.0531,2.9978,2.9361,2.7224,0.0,0.0,2.7377,2.7463,2.7768,2.8644,2.916,3.0369,3.2988,0.0,3.5756,0.0,0.0,0.0,0.0,0.0,0.0,0.0,3.6956,3.73,3.724,3.6761,3.6207,3.5549,3.5504,3.5504,3.5504,3.5504,3.5504,3.5504,3.5504,3.513,3.4414,3.3784,3.3125,3.2378,3.178,3.1511,3.1511,3.1511,3.1436,3.1286,3.0746,3.0432,3.0268,2.9714,2.9131,2.8592,2.8532,2.8068,2.742,0.0,0.0,0.0,0.0,0.0,0.0,1.0079,0.9486,0.8967,0.8812,0.8156,0.7994,0.8716,0.878,0.9262,1.0491,0.0,0.0,0.0,0.0,0.0,0.0,0.0,0.0,0.0,0.0,1.0945,1.029,1.0354,0.0,0.0,0.0,0.0,0.0,0.0,0.9984,0.9241,0.0,0.0,0.0,0.0,0.0,0.0,0.0,0.0,0.0,0.0,0.0,0.0,0.0,0.0,0.0,2.2477,2.4378,0.0,0.0,3.1167,3.1913,3.283,3.3124,3.2666,3.073,2.9846,2.8944,2.7359,0.0,2.6562,2.7178,2.7052,2.7179,2.8297,2.8592,2.9238,3.0904,0.0,0.0,0.0,0.0,0.0,0.0,0.0,0.0,0.0,0.0,3.8003,3.8003,3.706,3.6372,3.6118,3.5729,3.5504,3.5504,3.5504,3.5504,3.5504,3.5504,3.516,3.4503,3.3814,3.3155,3.2497,3.1809,3.1511,3.1511,3.1511,3.0997,3.0207,3.0861,3.0582,2.9797,3.0056,2.9744,2.9146,2.8742,2.8173,2.7555,0.0,0.0,0.0,0.0,0.0,1.0593,1.0593,0.955,0.8903,0.9242,0.8447,0.8215,0.9204,0.953,0.9919,1.0561,1.1351,0.0,0.0,0.0,0.0,0.0,0.0,0.0,0.0,0.0,1.1374,1.0961,1.0664,0.982,0.0,0.0,0.935,0.7654,0.0,0.0,0.0,0.0,0.0,0.0,0.0,0.0,0.0,0.0,0.0,0.0,0.0,0.0,0.0,0.0,0.0,0.0,0.0,0.0,0.0,0.0,2.9622,3.1046,3.2474,3.2817,3.2424,3.0766,2.9565,2.8421,0.0,0.0,2.6176,2.6733,2.6916,2.7202,2.8006,2.8472,2.8989,2.9612,0.0,3.325,3.499,0.0,0.0,0.0,0.0,3.6926,0.0,3.8197,3.8691,3.8691,3.7494,3.6761,3.6761,3.5968,3.5504,3.5504,3.5504,3.5504,3.5504,3.5295,3.5055,3.4771,3.3903,3.3365,3.308,3.2392,3.1974,3.1795,3.1795,3.0955,2.9694,3.0968,3.0763,2.9651,3.0257,3.0118,2.9532,2.8846,2.8173,2.76,0.0,0.0,0.0,0.0,0.0,0.0,1.0593,1.0593,1.0269,0.9402,1.004,1.0238,0.9402,1.0079,1.0593,1.0593,1.1351,0.0,0.0,0.0,0.0,0.0,0.0,0.0,0.0,0.0,1.2004,1.2298,1.1273,1.0783,1.074,0.9782,0.8765,0.7778,0.0,0.0,0.0,0.0,0.0,0.0,0.0,0.0,1.4466,0.0,0.0,0.0,0.0,0.0,0.0,0.0,0.0,0.0,0.0,2.1634,0.0,0.0,2.8283,2.9596,3.1664,3.2227,3.1826,3.0212,2.8974,2.7584,0.0,0.0,2.637,2.5897,2.7041,2.7921,2.7417,2.8466,2.9416,2.9473,3.0688,0.0,3.4671,0.0,0.0,0.0,0.0,3.7404,3.7404,3.8631,3.9373,3.9373,3.8167,3.7404,3.7404,3.6193,3.5504,3.5504,3.5504,3.5504,3.5504,3.4831,3.4831,3.5474,3.4143,3.3829,3.4474,3.3769,3.3125,3.2497,3.2497,3.1648,3.0345,3.1161,3.1029,3.0317,3.0435,3.0118,2.9532,2.8846,2.8173,2.76,0.0,0.0,0.0,0.0,0.0,0.0,0.962,0.9198,0.916,1.0079,0.9913,0.9817,1.0142,1.0919,1.1532,1.1821,1.2313,0.0,0.0,0.0,0.0,0.0,0.0,0.0,0.0,1.2593,1.2853,1.2305,1.2858,1.2421,1.1065,1.0758,0.9679,0.8082,0.7876,0.7403,0.0,0.0,0.0,0.0,0.0,1.5405,1.614,0.0,0.0,0.0,0.0,0.0,0.0,0.0,0.0,0.0,0.0,0.0,0.0,2.5684,2.7322,2.8907,3.105,3.165,3.1253,2.9593,2.8426,2.7477,2.6745,0.0,2.6296,2.7176,2.7752,2.8059,2.7871,2.8505,2.9081,2.9081,3.0882,0.0,0.0,0.0,0.0,0.0,3.703,3.7584,0.0,0.0,3.8916,3.9394,3.8167,3.7404,3.7404,3.6193,3.5504,3.5504,3.5504,3.5504,3.5504,3.5295,3.5295,3.5489,3.4607,3.4309,3.4488,3.3799,3.314,3.2512,3.2512,3.1648,3.0359,3.1161,3.1029,3.0317,3.0463,3.0387,3.0073,2.8996,2.8472,2.8203,0.0,0.0,0.0,0.0,0.0,0.0,0.9204,0.9134,0.9384,1.046,1.0142,0.9983,1.053,1.132,1.1969,1.2347,1.3214,0.0,0.0,0.0,0.0,0.0,0.0,0.0,1.2102,1.3156,1.36,1.3375,1.3807,1.3376,1.2137,1.1379,1.0197,0.8672,0.8052,0.7285,0.0,0.0,0.0,0.0,1.462,1.6282,1.6662,0.0,0.0,0.0,0.0,0.0,0.0,0.0,0.0,0.0,0.0,0.0,0.0,0.0,2.7065,2.8275,0.0,3.0947,3.0536,2.9511,2.8305,0.0,0.0,0.0,2.659,2.7361,2.799,2.8348,2.8147,2.8737,2.9189,2.8925,3.07,3.2213,0.0,0.0,0.0,3.6025,0.0,0.0,0.0,3.8108,3.8467,3.8646,3.7883,3.73,3.7075,3.6073,3.5504,3.5504,3.5504,3.5504,3.5504,3.525,3.525,3.5489,3.4801,3.4638,3.4846,3.4442,3.3754,3.2886,3.2886,3.1884,0.0,3.1161,3.1029,3.0317,3.0463,3.0507,3.0357,2.9071,2.8607,2.8502,0.0,0.0,0.0,0.0,0.0,0.0,0.0,0.9945,1.053,1.0593,1.0593,1.0593,1.0593,1.132,1.1977,1.2417,1.3967,0.0,0.0,0.0,0.0,0.0,0.0,0.0,1.3182,1.3545,1.4178,1.5133,1.4209,1.3754,1.374,1.175,1.0416,0.9586,0.8378,0.7328,0.6673,0.9166,1.0408,1.0954,1.4461,1.6027,0.0,0.0,0.0,0.0,0.0,0.0,0.0,0.0,0.0,0.0,0.0,0.0,0.0,0.0,0.0,0.0,0.0,3.0093,2.9741,2.9779,2.8561,2.7254,2.6854,0.0,0.0,0.0,2.7864,2.8737,2.826,2.9063,2.9616,2.9076,3.0258,3.1609,0.0,3.3449,0.0,0.0,3.6013,0.0,3.6492,3.7554,3.8033,3.7524,3.7404,3.709,3.6522,3.5863,3.5504,3.5504,3.5504,3.5504,3.5504,3.4861,3.4876,3.5489,3.4861,3.4891,3.5504,3.5504,3.4771,3.3499,3.3499,3.2329,3.0419,3.119,3.1058,3.0392,3.0419,3.0462,3.0342,2.9026,2.8562,2.8502,0.0,0.0,0.0,0.0,0.0,0.0,0.0,0.0,0.0,0.0,1.0593,1.0593,1.0593,1.132,1.2074,0.0,0.0,0.0,0.0,0.0,0.0,0.0,0.0,0.0,1.2212,1.3186,1.3974,1.4601,1.423,1.4253,1.4485,1.2177,1.1119,1.1073,0.8932,0.7531,0.6947,0.935,1.0727,1.1637,1.5789,1.7752,0.0,0.0,0.0,0.0,2.0912,2.1619,0.0,0.0,0.0,0.0,0.0,0.0,0.0,0.0,2.7256,2.804,2.855,0.0,2.9239,2.9679,2.885,2.7974,0.0,0.0,0.0,0.0,0.0,0.0,0.0,2.9315,2.9741,2.9616,3.1101,3.2357,3.2558,0.0,0.0,3.4771,3.5325,3.5938,3.6432,3.6761,3.727,3.8093,3.7255,3.6641,3.6492,3.5863,3.5504,3.5504,3.5504,3.5504,3.5504,3.534,3.534,3.5504,3.534,3.5355,3.5504,3.5504,3.4771,3.3499,3.3499,3.2616,3.1219,3.1409,3.138,3.113,3.0197,3.0088,3.0283,2.8472,2.8169,2.8502,0.0,0.0,0.0,0.0,0.0,0.0,0.0,0.0,0.0,0.0,1.0593,1.0593,1.0593,1.132,1.2104,0.0,0.0,0.0,0.0,0.0,0.0,0.0,0.0,1.2996,1.3167,1.4411,1.5147,1.5416,1.5516,1.5356,1.4934,1.3402,1.2292,1.149,0.9321,0.8089,0.7854,0.9648,1.073,1.1682,1.5963,0.0,0.0,0.0,0.0,0.0,2.0928,2.1556,0.0,2.2901,2.3731,2.4643,0.0,0.0,0.0,0.0,2.7273,2.7783,2.8034,2.8134,2.8247,2.8561,2.8185,2.7808,2.8109,0.0,0.0,0.0,0.0,0.0,0.0,0.0,0.0,3.102,3.2299,0.0,0.0,0.0,3.526,3.5901,3.5401,3.5561,3.6919,3.6727,3.6656,3.703,3.6716,3.6357,3.6058,3.5699,3.5504,3.5504,3.5504,3.5504,3.5504,3.5504,3.5504,3.5504,3.5504,3.5504,3.5504,3.5504,3.4771,3.3499,3.3499,3.2751,3.1511,3.1511,3.1511,3.1406,3.0402,3.0208,3.0298,2.8652,2.8278,2.8502,0.0,0.0,0.0,0.0,0.0,0.0,0.0,0.0,0.0,0.0,0.0,0.0,0.0,0.0,0.0,0.0,0.0,0.0,0.0,0.0,0.0,0.0,1.5118,1.4712,1.477,1.5835,1.649,1.6692,1.6839,1.6331,1.529,1.4597,1.3279,1.1416,0.9925,0.9155,0.9074,1.0278,1.1004,1.1771,1.5575,0.0,0.0,0.0,0.0,0.0,0.0,0.0,0.0,2.3404,2.4409,2.537,2.6245,0.0,0.0,0.0,0.0,0.0,2.772,2.757,2.7341,2.7394,2.7344,2.7281,2.7281,0.0,0.0,0.0,0.0,0.0,0.0,0.0,0.0,0.0,0.0,0.0,3.5659,3.5151,3.5361,3.7328,3.5839,3.5359,3.717,3.6743,3.6148,3.5684,3.6073,3.6088,3.5534,3.5504,3.5504,3.5504,3.5504,3.5504,3.5504,3.5504,3.5504,3.5504,3.5504,3.5504,3.5504,3.5504,3.4771,3.3499,3.3499,3.2751,3.1511,3.1511,3.1511,3.1421,3.0672,3.0357,3.0208,2.8921,2.8442,2.8338,0.0,0.0,0.0,0.0,0.0,0.0,0.0,0.0,0.0,0.0,0.0,0.0,0.0,0.0,0.0,0.0,0.0,0.0,0.0,0.0,0.0,1.7567,1.5752,1.4828,1.5107,1.5307,1.5953,1.7126,1.6022,1.5585,1.5682,1.4392,1.2965,1.1508,1.1676,1.1198,1.0398,1.1848,1.2597,1.3078,1.5368,0.0,0.0,0.0,0.0,0.0,0.0,0.0,0.0,2.4409,2.5441,2.6314,2.6465,0.0,0.0,0.0,0.0,0.0,2.6725,2.7027,2.7394,2.7858,2.7632,2.7281,2.7281,0.0,0.0,0.0,0.0,0.0,0.0,0.0,0.0,0.0,0.0,3.4808,0.0,0.0,3.5738,3.6801,3.5991,3.5494,3.5804,3.5737,3.5848,3.6297,3.5908,3.5609,3.5504,3.5504,3.5504,3.5504,3.5504,3.5504,3.5504,3.5504,3.5504,3.5504,3.5504,3.5504,3.5504,3.5504,3.4771,3.3499,3.3499,3.2751,3.1511,3.1511,3.1511,3.1376,3.0193,2.9756,2.9592,2.8244,2.775,2.7585,0.0,0.0,0.0,0.0,0.0,0.0,0.0,0.0,0.0,0.0,0.0,0.0,0.0,0.0,0.0,0.0,0.0,0.0,0.0,0.0,1.648,1.7886,1.7456,1.7022,1.6677,1.7151,1.7461,1.7581,1.7217,1.6767,1.6191,1.4832,1.3645,1.2625,1.2416,1.2029,1.1558,1.2236,1.27,1.3141,0.0,0.0,0.0,0.0,0.0,0.0,0.0,0.0,0.0,0.0,2.5664,2.6499,2.6499,0.0,0.0,0.0,0.0,0.0,2.6499,2.6675,2.7142,2.8154,2.8708,2.8941,2.8807,0.0,0.0,0.0,0.0,0.0,0.0,0.0,3.3676,3.4611,0.0,3.5341,3.6878,3.5885,3.5527,3.7095,3.59,3.5413,3.659,3.5976,3.5624,3.5938,3.5669,3.5504,3.5504,3.5504,3.5504,3.5504,3.5504,3.5504,3.5504,3.5504,3.5504,3.5504,3.5504,3.5504,3.5504,3.5504,3.4771,3.3499,3.3499,3.2751,3.1511,3.1511,3.1286,3.0881,2.9953,2.9397,2.8921,2.7959,2.76,2.7405,0.0,0.0,0.0,0.0,0.0,0.0,0.0,0.0,0.0,0.0,0.0,0.0,0.0,0.0,0.0,0.0,0.0,0.0,0.0,1.4206,1.5642,1.7498,1.8893,1.9257,1.8532,1.9234,1.9168,1.8218,1.8591,1.8062,1.672,1.5646,1.4741,1.3967,1.3352,1.2966,1.2729,1.2856,1.3069,1.3466,0.0,0.0,0.0,0.0,0.0,0.0,0.0,0.0,0.0,0.0,0.0,0.0,0.0,0.0,0.0,2.6499,2.6499,2.6499,2.6499,2.6746,2.7263,2.8485,2.9276,2.9851,3.016,0.0,0.0,0.0,0.0,0.0,0.0,3.4064,0.0,3.6615,3.6415,3.6352,3.7304,3.6015,3.575,3.7732,3.6056,3.5373,3.7013,3.6165,3.5504,3.5504,3.5504,3.5504,3.5504,3.5504,3.5504,3.5504,3.5504,3.5504,3.5504,3.5504,3.5504,3.5504,3.5504,3.5429,3.5265,3.5429,3.4681,3.3275,3.3425,3.2751,3.1511,3.1511,3.1092,3.0447,2.9846,2.9086,2.8293,2.7794,2.76,2.7405,0.0,0.0,0.0,0.0,0.0,0.0,0.0,0.0,0.0,0.0,0.0,0.0,0.0,0.0,0.0,0.0,0.0,0.0,0.0,1.3432,1.4612,1.6627,1.9147,2.0462,2.0419,2.0462,2.0074,1.9189,1.9231,1.8526,1.7153,1.686,1.6166,1.5192,1.539,1.488,1.3995,1.4575,1.4821,1.486,1.5288,0.0,0.0,0.0,0.0,0.0,0.0,0.0,0.0,0.0,0.0,0.0,0.0,0.0,2.6499,2.6499,2.6499,2.6499,2.6499,2.74,2.8437,2.8862,2.8433,0.0,3.0461,3.0469,0.0,0.0,0.0,0.0,0.0,3.528,3.6691,3.7573,3.7661,3.8146,3.9652,3.7878,3.7046,3.8631,3.6815,3.5492,3.5647,3.5552,3.5504,3.5504,3.5504,3.5504,3.5504,3.5504,3.5504,3.5504,3.5504,3.5504,3.5504,3.5504,3.5504,3.5504,3.5504,3.5175,3.4593,3.522,3.4442,3.2617,3.323,3.2751,3.1511,3.1511,3.1092,3.0447,2.9846,2.8813,2.766,2.7615,2.76,2.7405,0.0,0.0,0.0,0.0,0.0,0.0,0.0,0.0,0.0,0.0,0.0,1.1303,1.1382,0.0,0.0,0.0,0.0,0.0,0.0,1.2556,1.3856,1.6382,1.8568,2.0256,2.1396,2.1396,2.0974,2.0107,1.929,1.8408,1.7531,1.7682,1.7338,1.6532,1.6668,1.6116,1.511,1.5354,1.5041,1.4472,1.4536,1.5182,0.0,0.0,0.0,0.0,0.0,0.0,0.0,0.0,2.5432,2.6021,2.6386,2.6021,2.5573,2.6298,2.6235,2.6047,2.6488,2.7602,2.8792,2.9596,0.0,0.0,0.0,0.0,0.0,0.0,0.0,0.0,0.0,0.0,3.6843,3.7661,3.7793,3.816,3.9221,3.7759,3.6831,3.7399,3.6302,3.5504,3.5504,3.5504,3.5504,3.5504,3.5504,3.5504,3.5504,3.5504,3.5504,3.5504,3.5504,3.5504,3.5504,3.5504,3.5504,3.5504,3.5504,3.537,3.513,3.5385,3.4637,3.314,3.338,3.2751,3.1466,3.1047,3.0507,2.9819,2.8783,2.8049,2.754,2.7136,2.6986,2.6742,0.0,0.0,0.0,0.0,0.0,0.0,0.0,0.0,1.0014,0.0,0.0,0.0,0.0,1.1403,0.0,0.0,0.0,0.0,1.1339,1.1606,1.2731,1.4969,1.7446,1.9369,2.0598,2.1184,2.1207,2.059,1.9404,1.8625,1.8212,1.8776,1.8608,1.7827,1.7827,1.7212,1.6198,1.6306,1.5742,1.4718,1.4858,1.5043,0.0,0.0,0.0,0.0,0.0,0.0,0.0,0.0,2.514,2.59,2.616,2.5799,2.5448,2.6047,2.6072,2.6013,2.6538,2.7715,2.8999,0.0,0.0,0.0,0.0,0.0,0.0,0.0,0.0,0.0,0.0,0.0,0.0,0.0,3.8374,3.8707,3.9209,3.7946,3.6964,3.6964,3.6101,3.5504,3.5504,3.5504,3.5504,3.5504,3.5504,3.5504,3.5504,3.5504,3.5504,3.5504,3.5504,3.5504,3.5504,3.5504,3.5504,3.5504,3.5504,3.5385,3.519,3.54,3.4651,3.32,3.341,3.2751,3.1466,3.0987,3.0342,2.9472,2.8124,2.7473,2.7195,2.6726,2.6291,2.5744,0.0,0.0,0.0,0.0,0.0,0.0,0.0,0.0,1.0693,1.0955,1.0995,0.0,0.0,0.0,0.0,0.0,0.0,0.0,1.0318,1.0564,1.1132,1.2145,1.5844,1.7885,1.7885,1.9673,2.0602,2.0602,1.9721,1.9323,1.9343,2.0194,2.0031,1.9027,1.8997,1.839,1.7318,1.7689,1.7157,1.6119,1.6446,1.5754,1.477,0.0,0.0,0.0,0.0,0.0,0.0,0.0,2.4838,2.6386,2.5774,2.6021,2.6361,2.5762,2.6034,2.6519,2.6674,2.7826,2.907,0.0,0.0,0.0,0.0,0.0,0.0,0.0,0.0,3.5718,3.6461,3.7263,0.0,3.8772,3.9584,4.0096,4.0096,3.8778,3.7822,3.7793,3.643,3.5504,3.5504,3.5504,3.5504,3.5504,3.5504,3.5504,3.5504,3.5504,3.5504,3.5504,3.5504,3.5504,3.5504,3.5489,3.5489,3.5504,3.5489,3.5145,3.4533,3.519,3.4412,3.2557,3.32,3.2736,3.1511,3.1496,3.0746,2.9457,2.8124,2.7137,2.651,2.6469,2.5643,2.4471,0.0,0.0,0.0,0.0,0.0,0.0,0.0,0.0,1.0014,1.089,1.0995,0.0,0.0,0.0,0.0,0.0,0.0,0.0,0.9451,0.9557,1.0302,1.1989,1.4495,1.6484,1.7885,1.936,2.0108,2.0108,2.0285,2.0303,2.0242,2.0864,2.0808,2.0099,1.979,1.9045,1.8044,1.8479,1.7989,1.6965,1.7028,1.6846,1.6635,0.0,0.0,0.0,0.0,0.0,0.0,0.0,0.0,0.0,2.5448,2.546,2.5347,2.5536,2.6164,2.6817,2.6893,2.8371,0.0,3.0102,0.0,0.0,0.0,0.0,0.0,0.0,0.0,3.5769,3.6461,3.7687,0.0,3.8854,3.9584,4.0096,4.0096,3.9209,3.8386,3.7863,3.6905,3.6054,3.5554,3.5504,3.5504,3.5504,3.5504,3.5504,3.5504,3.5504,3.5504,3.5504,3.5504,3.5504,3.5504,3.5026,3.5026,3.5489,3.5011,3.4936,3.519,3.4906,3.4203,3.3185,3.2916,3.2288,3.1436,3.0537,2.9397,2.8102,2.7195,2.6695,2.6373,2.5385,2.4771,2.4283,0.0,0.0,0.0,0.0,0.0,0.0,1.0523,1.0142,1.0072,1.0763,1.0854,1.1042,0.0,0.0,0.0,1.1372,0.9715,0.0,0.9153,0.8798,0.93,1.0852,1.282,1.5059,1.7559,1.8964,1.9727,1.99,2.0454,2.0684,2.0603,2.1279,2.1257,2.0588,2.0291,1.9727,1.8955,1.9254,1.8804,1.7989,1.7989,1.7698,1.7415,0.0,0.0,0.0,0.0,0.0,0.0,0.0,0.0,0.0,2.4942,2.5236,2.5552,2.599,2.6447,2.6995,2.7712,2.8906,0.0,3.1149,3.2739,3.4447,3.5768,0.0,0.0,0.0,0.0,3.6597,3.7006,3.8088,0.0,3.8908,3.9584,4.0096,4.0096,3.9411,3.8635,3.7892,3.71,3.6306,3.5554,3.5504,3.5504,3.5504,3.5504,3.5504,3.5504,3.5504,3.5504,3.5504,3.5504,3.5504,3.5504,3.4848,3.4713,3.51,3.4698,3.4562,3.4696,3.4547,3.3978,3.3066,3.2378,3.172,3.1017,3.0013,2.8803,2.7506,2.6796,2.6149,2.5522,2.4668,2.4025,2.3466,0.0,0.0,1.0593,1.0593,0.0,0.0,1.0593,1.0613,1.0633,1.0633,1.0633,1.0841,0.0,0.0,0.0,1.2075,1.0202,0.8997,0.9138,0.8476,0.8438,0.9228,1.136,1.3982,1.7036,1.8594,1.9549,1.9966,2.0488,2.0709,2.0744,2.16,2.151,2.0723,2.0589,2.0313,1.9907,1.9881,1.9535,1.9055,1.9161,1.8528,1.7656,1.8811,0.0,0.0,0.0,0.0,0.0,0.0,0.0,0.0,2.4317,2.519,2.6429,2.6726,2.6812,2.7162,2.876,0.0,0.0,3.2136,3.3805,0.0,3.6685,3.7472,3.7853,3.7754,0.0,3.7892,3.7892,3.8497,3.8999,3.8906,3.951,4.0011,4.0011,3.9363,3.8652,3.7978,3.7203,3.643,3.5668,3.5537,3.5504,3.5504,3.5504,3.5504,3.5504,3.5504,3.5504,3.5504,3.5504,3.5504,3.5504,3.4756,3.4444,3.4503,3.4384,3.3978,3.3425,3.4114,3.3634,3.2273,3.1675,3.0987,3.0283,2.9729,2.8668,2.733,2.6673,2.5536,2.4292,2.4205,2.3415,2.2431,0.0,0.0,1.0593,1.0593,0.0,0.0,1.0593,1.0787,1.0902,1.0902,1.0902,1.1035,1.1349,1.1335,0.0,1.0857,1.0442,0.9561,0.7995,0.9212,0.973,0.918,1.2914,1.5475,1.6405,1.863,1.9982,2.0437,2.1304,2.1667,2.1633,2.2236,2.2203,2.1574,2.0537,1.9972,1.9887,1.9548,1.9362,1.9321,2.0444,2.0274,1.9487,2.0831,2.0904,0.0,0.0,0.0,0.0,0.0,0.0,0.0,2.3886,2.4728,2.5422,2.5961,2.689,2.7841,2.8367,2.901,0.0,0.0,3.4468,3.6663,3.8178,3.8631,3.8406,3.7238,3.7897,3.8663,3.8663,3.9315,3.9648,3.9068,3.9109,3.9225,3.9225,3.9084,3.8897,3.8679,3.7991,3.7219,3.6446,3.5831,3.5504,3.5504,3.5504,3.5504,3.5504,3.5504,3.5504,3.5504,3.5504,3.5504,3.5504,3.4307,3.3994,3.4503,3.3425,3.2856,3.2751,3.341,3.2691,3.0926,3.0791,3.0073,2.8996,2.8861,2.7989,2.6644,2.5921,2.5091,2.4234,2.3603,2.317,2.2945,0.0,0.0,0.0,0.0,0.0,0.0,0.0,0.0,1.0995,1.0995,1.0995,1.1102,1.1362,1.1303,0.0,0.0,1.0737,1.0098,0.9136,0.9638,1.0025,1.0104,1.411,1.6287,1.6182,1.8638,2.0132,2.0603,2.1299,2.1947,2.2581,2.3107,2.2945,2.2258,2.1536,2.0739,1.9888,1.9696,1.9874,2.0352,2.1089,2.1319,2.1303,2.2049,2.1613,2.0626,2.0838,0.0,0.0,0.0,0.0,0.0,0.0,0.0,2.5084,2.5527,2.6538,2.764,0.0,0.0,0.0,0.0,0.0,0.0,3.8289,3.8464,3.8252,3.7489,3.8197,3.8846,3.8487,3.8757,3.892,3.8531,3.8464,3.8464,3.8464,3.8768,3.8841,3.8418,3.8357,3.8019,3.7233,3.6829,3.66,3.66,3.6243,3.6038,3.6038,3.5701,3.5504,3.5504,3.5504,3.5504,3.5504,3.4487,3.3978,3.3993,3.3305,3.2826,3.2512,3.2542,3.1809,3.0507,3.0507,2.9774,2.8607,2.8607,2.7556,2.5933,2.5536,2.4696,2.3679,2.3245,2.3108,2.3108,0.0,0.0,0.0,0.0,0.0,0.0,0.0,0.0,0.0,1.1069,1.1116,1.1216,1.1369,1.1209,1.1243,0.0,0.0,0.0,1.0744,0.9981,1.0138,1.1486,1.4715,1.6423,1.6289,1.8601,2.0076,2.0688,2.1173,2.2166,2.3589,2.3869,2.364,2.3063,2.2806,2.1858,2.0368,2.0124,2.0546,2.1413,2.1668,2.2095,2.2592,2.2859,2.2061,2.0857,2.1021,2.0618,2.0078,2.0301,0.0,0.0,0.0,0.0,2.4484,2.5094,2.5868,2.684,0.0,0.0,0.0,0.0,0.0,0.0,3.7662,3.7719,3.7669,3.7533,3.821,3.8616,3.8024,3.7905,3.7872,3.7736,3.7719,3.7753,3.7889,3.843,3.8672,3.8245,3.8616,3.8663,3.8064,3.7863,3.7793,3.7793,3.7054,3.6615,3.6615,3.5894,3.5504,3.5504,3.5504,3.5444,3.5325,3.4651,3.3978,3.332,3.3215,3.2871,3.2288,3.163,3.0957,3.0342,3.0223,2.9451,2.823,2.823,2.7039,2.5203,2.5203,2.4352,2.3108,2.3108,2.3108,2.3108,0.0,0.0,0.0,0.0,0.0,0.0,0.0,0.0,0.0,0.0,1.1597,1.167,1.1415,1.1355,1.1303,1.1122,1.1466,1.1335,1.0527,0.0,0.0,1.2844,1.4096,1.5324,1.6612,1.8387,1.9885,2.1107,2.1935,2.3119,2.4601,2.4192,2.4192,2.4489,2.3232,2.2553,2.2259,2.1033,2.0841,2.152,2.2738,2.2776,2.2216,2.3514,2.3052,2.1644,2.0949,2.0625,2.0385,1.9717,1.9563,0.0,0.0,0.0,2.2265,2.414,2.4721,2.5407,0.0,0.0,0.0,0.0,0.0,0.0,0.0,0.0,3.6761,0.0,3.7036,3.8024,3.7922,3.7905,3.7702,3.7066,3.6948,3.7161,3.7821,3.799,3.849,3.9665,3.9265,3.8854,3.8772,3.8177,3.7793,3.7793,3.7054,3.6615,3.6615,3.5894,3.5504,3.5504,3.5504,3.522,3.4653,3.3963,3.3305,3.2647,3.2034,3.172,3.1615,3.0956,3.0298,2.9696,2.9101,2.8057,2.6773,2.6773,2.5867,2.4452,2.4452,2.3914,2.3108,2.3108,2.3108,2.3108,0.0,0.0,0.0,0.0,0.0,0.0,0.0,0.0,0.0,0.0,0.0,1.157,1.1409,1.1389,1.1342,1.1243,1.1623,1.1787,1.1467,1.1739,1.224,1.2939,1.4041,1.5079,1.6056,1.7377,1.8974,2.0872,2.1261,2.2827,2.5534,2.5288,2.5186,2.5214,2.4612,2.3904,2.3111,2.2482,2.2536,2.3046,2.338,2.3535,2.3625,2.4289,2.3445,2.1901,2.206,2.1594,2.0928,2.079,2.0435,2.0124,2.0542,0.0,0.0,0.0,2.3156,0.0,2.7511,0.0,0.0,0.0,0.0,0.0,3.5807,0.0,3.6028,3.5667,3.614,3.6597,3.6597,3.6597,3.6518,3.618,3.6129,3.64,3.7161,3.7635,3.8294,3.9368,3.9547,3.9584,3.9584,3.9279,3.8914,3.8442,3.7703,3.707,3.66,3.5894,3.5504,3.5504,3.5504,3.5175,3.4518,3.4219,3.3529,3.2497,3.1824,3.1511,3.1452,3.0336,2.9503,2.8913,2.8702,2.7571,2.5933,2.6336,2.5618,2.4292,2.4292,2.3796,2.3108,2.3108,2.3108,2.3108,0.0,0.0,0.0,0.0,0.0,0.0,0.0,0.0,0.0,0.0,0.0,1.1536,1.1536,0.0,0.0,0.0,1.1697,1.2027,1.2285,1.2549,1.2703,1.2784,1.3672,1.4615,1.5589,1.6507,1.8188,2.059,2.0814,2.2527,2.5563,2.5563,2.5562,2.5598,2.5818,2.5215,2.4026,2.3872,2.4135,2.458,2.405,2.423,2.4775,2.4637,2.3603,2.2265,2.2778,2.2269,2.1415,2.152,2.1144,2.0594,2.0594,2.0575,0.0,0.0,0.0,0.0,0.0,0.0,0.0,0.0,0.0,0.0,0.0,0.0,3.5042,0.0,3.5042,3.5092,3.5301,3.5464,3.56,3.56,3.56,3.596,3.6948,3.7381,3.8024,3.914,3.9605,3.9893,4.0079,4.0096,3.9782,3.8962,3.8234,3.7456,3.663,3.5894,3.5504,3.5504,3.5325,3.4921,3.4264,3.3903,3.3245,3.2228,3.1735,3.1511,3.1452,2.9959,2.8957,2.834,2.8095,2.6896,2.5147,2.5701,2.5175,2.4002,2.4002,2.3632,2.3108,2.3108,2.3108,2.3083,0.0,0.0,0.0,0.0,0.0,0.0,0.0,0.0,0.0,0.0,0.0,1.1879,1.1879,1.1879,1.173,1.1415,1.1697,1.2027,1.2285,1.2318,1.2489,1.277,1.2567,0.0,1.5536,1.614,1.7808,2.059,2.1428,2.2613,2.4092,2.4092,2.4626,2.5632,2.646,2.6349,2.5457,2.4956,2.5056,2.5482,2.4956,2.4755,2.4725,2.4243,2.3634,2.2957,2.2228,2.1949,2.1726,2.0946,2.0637,2.0604,2.0604,2.0291,2.0149,0.0,0.0,0.0,0.0,0.0,0.0,0.0,0.0,0.0,0.0,0.0,3.3525,3.3525,3.3525,3.3728,3.4421,3.5131,3.56,3.56,3.56,3.6124,3.7635,3.7263,3.7658,3.9791,3.9469,3.9326,4.0028,4.0096,3.9782,3.8962,3.8234,3.7456,3.663,3.5894,3.5504,3.5504,3.4876,3.4249,3.3559,3.2273,3.163,3.1555,3.1525,3.1511,3.1452,2.9959,2.8906,2.8133,2.6865,2.5593,2.435,2.4408,2.3914,2.3155,2.3155,2.3138,2.3108,2.3108,2.3108,2.3032,0.0,0.0,0.0,0.0,0.0,0.0,0.0,0.0,0.0,0.0,0.0,0.0,0.0,1.1678,1.1785,1.1415,1.2424,1.3086,1.32,1.32,1.3251,1.3365,1.2684,1.2965,1.4348,1.5196,1.6702,1.8874,2.0332,2.2072,2.4021,2.4519,2.5356,2.646,2.675,2.6635,2.6206,2.6514,2.6486,2.6109,2.5184,2.5071,2.5342,2.3963,2.3615,2.3715,2.2563,2.2376,2.2579,2.191,2.1592,2.1428,2.1428,2.0939,0.0,0.0,0.0,0.0,0.0,0.0,0.0,0.0,0.0,3.0052,3.1887,3.2567,3.2927,3.3322,3.3406,3.3491,3.3744,3.4404,3.5064,3.5515,3.56,3.614,3.7686,3.7669,3.8142,3.9893,3.9876,3.9808,4.0079,4.0096,3.9558,3.829,3.795,3.7235,3.5943,3.5262,3.4846,3.4846,3.4203,3.3529,3.2871,3.1944,3.1511,3.1511,3.1511,3.1511,3.1438,2.9843,2.8549,2.7529,2.5999,2.4851,2.4111,2.4246,2.3826,2.3108,2.3108,2.3108,2.3108,2.3108,2.3108,2.302,0.0,0.0,0.0,1.1015,0.0,1.0801,1.0962,1.0992,1.1094,1.136,0.0,0.0,0.0,0.0,1.2754,1.268,1.3625,1.4207,1.4207,1.4207,1.4063,1.3709,1.3098,1.3062,1.3673,1.47,1.6079,1.7905,1.9411,2.1238,2.3319,2.3834,2.4769,2.5933,2.6222,2.64,2.6598,2.7221,2.7293,2.6907,2.5734,2.5818,2.6497,2.4842,2.454,2.4893,2.4019,2.3774,2.3751,2.2936,2.2539,2.2351,2.2104,2.1568,0.0,0.0,0.0,0.0,2.2154,0.0,0.0,0.0,0.0,2.87,3.0245,3.1134,3.1806,3.2264,3.2521,3.2747,3.2983,3.3423,3.4066,3.5081,3.543,3.6039,3.7347,3.7533,3.799,3.9233,3.9588,3.974,3.974,3.996,3.9454,3.7937,3.7793,3.7131,3.5587,3.4846,3.4294,3.3829,3.3395,3.2841,3.2168,3.172,3.1511,3.1511,3.1511,3.1511,3.1438,2.9766,2.8498,2.7486,2.5612,2.4362,2.3708,2.3846,2.3573,2.3108,2.3108,2.3108,2.3108,2.3108,2.2995,2.2744,1.1488,1.1053,1.0575,1.1345,1.1229,1.1068,1.1101,1.1542,1.1969,1.2213,0.0,0.0,0.0,0.0,0.0,1.5165,1.5234,1.5234,1.5234,1.5234,1.4772,1.3781,1.3709,1.3673,1.3673,1.4665,1.6053,1.7833,1.8803,2.0171,2.1846,2.1877,2.2657,2.4023,2.484,2.5765,2.6715,2.6918,2.7404,2.7902,2.6705,2.7014,2.8061,2.6826,2.6368,2.6411,2.6341,2.5924,2.519,2.3887,2.3423,2.331,2.2553,2.2151,0.0,0.0,0.0,0.0,0.0,0.0,0.0,0.0,0.0,0.0,2.7413,2.8684,3.0007,3.02,3.0736,3.1388,3.2121,3.2256,3.2747,3.4201,3.5081,3.5859,3.6694,3.6795,3.7083,3.7821,3.8531,3.8954,3.8954,3.9639,3.9447,3.7917,3.7806,3.7161,3.5619,3.4863,3.3844,3.2557,3.2497,3.2153,3.1511,3.1511,3.1511,3.1511,3.1511,3.1511,3.1438,2.9737,2.8675,2.8036,2.5754,2.4136,2.3108,2.3108,2.3108,2.3108,2.3108,2.3095,2.3083,2.3083,2.2732,2.2209,1.0312,0.988,1.0001,1.2361,1.255,1.2572,1.3146,1.3461,1.3494,0.0,0.0,0.0,1.4172,1.4471,1.4793,1.5165,1.5825,1.621,1.621,1.621,1.579,1.4843,1.4099,1.3382,1.2703,1.4343,1.5438,1.5948,1.82,1.989,2.0974,2.1585,2.2657,2.4041,2.4936,2.5717,2.6364,2.6921,2.7478,2.7902,2.6705,2.7027,2.8039,2.5841,2.5642,2.6277,2.4932,2.4857,2.5273,2.4477,2.4133,2.3927,2.3137,0.0,0.0,0.0,0.0,0.0,2.1697,0.0,0.0,0.0,0.0,0.0,2.6218,2.7648,2.8836,2.8841,2.981,3.0663,3.0824,3.1274,3.1921,3.2773,3.3964,3.5267,3.6609,3.6795,3.7083,3.7821,3.8091,3.821,3.821,3.887,3.8891,3.7883,3.7802,3.7368,3.6337,3.4696,3.338,3.2542,3.2019,3.169,3.1511,3.1511,3.1511,3.1511,3.1511,3.1511,3.1423,2.9359,2.8099,2.7416,2.519,2.3772,2.3108,2.3108,2.3108,2.3108,2.3108,2.2857,2.2506,2.2506,2.2184,2.1631,1.0559,1.0515,1.0894,1.3099,1.3416,1.3616,1.4255,1.4442,1.451,0.0,0.0,0.0,1.5307,1.5438,1.5699,1.61,1.6615,1.6996,1.7164,1.7173,1.6749,1.5834,1.5226,1.4478,1.352,1.5013,1.579,1.579,1.8133,1.9759,2.0623,2.1491,2.2414,2.3306,2.3867,2.4621,2.5522,2.5909,2.6932,2.8182,2.7483,2.8007,2.9024,2.7299,2.7118,2.7618,2.6255,2.6,2.6169,2.5291,2.4734,2.4264,2.3479,2.3398,0.0,0.0,0.0,0.0,0.0,0.0,0.0,0.0,0.0,0.0,2.5181,2.6217,2.7018,2.6808,2.7612,2.8509,2.9042,2.9463,3.0212,3.1687,3.2651,3.3827,3.5583,3.6389,3.6823,3.6918,3.7516,3.7787,3.7466,3.8108,3.8337,3.7837,3.7499,3.6756,3.5385,3.4166,3.3066,3.2108,3.1705,3.1511,3.1511,3.1511,3.1511,3.1511,3.1511,3.1346,3.1034,2.9402,2.8188,2.7271,2.5325,2.4128,2.356,2.3245,2.3108,2.3108,2.3108,2.2907,2.2594,2.2397,2.197,2.1405,0.0,1.1939,1.2513,1.3706,1.4251,1.4671,1.5111,1.5368,1.5632,0.0,1.6599,1.704,1.704,1.6969,1.7086,1.7497,1.7537,1.7638,1.792,1.7939,1.7522,1.6636,1.6557,1.6079,1.5141,1.6088,1.6575,1.6529,1.8382,1.9759,2.0623,2.1491,2.2031,2.2309,2.247,2.327,2.4498,2.4657,2.6196,2.8502,2.8562,2.928,3.0238,2.9684,2.9457,2.9307,2.8697,2.8124,2.7394,2.621,2.531,2.4582,2.3863,2.3945,2.4171,2.3458,2.267,0.0,0.0,0.0,0.0,0.0,2.3986,0.0,2.4327,2.4791,2.5148,2.4669,2.5164,2.6051,2.7234,2.7357,2.8136,3.0815,3.121,3.1951,3.4182,3.5695,3.6299,3.5667,3.68,3.7398,3.6745,3.733,3.7741,3.7678,3.7004,3.5718,3.3711,3.3469,3.2841,3.1645,3.154,3.1511,3.1511,3.1511,3.1511,3.1511,3.1511,3.1137,3.0479,2.9609,2.8541,2.7294,2.5691,2.4679,2.4118,2.3395,2.3108,2.3108,2.3108,2.3058,2.2957,2.2498,2.192,2.1358,1.0298,1.1211,1.26,1.484,1.6312,1.7412,1.8112,1.8963,1.937,1.9066,1.9096,1.9107,0.0,0.0,0.0,1.8383,1.8329,1.8068,1.7566,1.75,1.7226,1.6627,1.6251,1.5606,1.4657,1.5913,1.6405,1.6046,1.8231,1.9759,2.0623,2.1491,2.2031,2.2338,2.3493,2.4177,2.4551,2.5709,2.6797,2.7839,2.8368,2.8757,2.8966,2.8846,2.8468,2.7974,2.7839,2.7705,2.7469,2.6628,2.6244,2.5991,2.5246,2.4737,2.4327,2.4147,2.3576,0.0,0.0,0.0,0.0,2.371,2.3648,0.0,2.395,2.5031,2.5624,2.4562,2.5701,2.6919,2.7142,2.6805,2.7352,2.994,3.005,3.0883,3.4061,3.4759,3.5098,3.5549,3.587,3.5988,3.5836,3.6552,3.6996,3.7013,3.6316,3.542,3.4356,3.3275,3.2587,3.2303,3.178,3.1511,3.1511,3.1511,3.1511,3.1511,3.1511,3.1137,3.0464,2.917,2.7869,2.6524,2.5085,2.4018,2.3305,2.3155,2.3108,2.3108,2.3108,2.2832,2.2431,2.2347,2.1681,2.0842,1.0497,1.1998,1.3718,1.5151,1.6747,1.8184,1.9249,1.9664,1.9941,2.0219,1.9923,0.0,0.0,0.0,0.0,0.0,0.0,0.0,1.7429,1.7383,1.7263,1.7009,1.6548,1.6187,1.5956,1.6637,1.6975,1.6942,1.8965,2.0018,2.0178,2.1473,2.2056,2.1981,2.2684,2.3418,2.4159,2.5199,2.6209,2.7225,2.8547,2.8891,2.8637,2.8966,2.8667,2.8064,2.772,2.76,2.7534,2.7178,2.7269,2.7369,2.6302,2.5946,2.5796,2.5063,2.4607,2.4333,2.4273,2.3989,2.385,2.4399,2.4042,0.0,0.0,2.4568,2.4813,2.3888,2.4475,2.5348,2.5983,2.5645,2.6033,2.8249,2.8177,2.8788,3.1413,3.309,3.4191,3.4559,3.5189,3.56,3.56,3.596,3.6061,3.5729,3.571,3.5071,3.3576,3.2871,3.2333,3.2004,3.1675,3.1511,3.1511,3.1511,3.1511,3.1511,3.1511,3.0972,3.0001,2.8907,2.7696,2.637,2.4916,2.406,2.3649,2.3275,2.3108,2.3108,2.3108,2.2932,2.2656,2.241,2.1782,2.1069,1.0982,1.2978,1.4773,1.52,1.6883,1.8586,1.9852,1.9858,2.0021,2.0817,2.0491,0.0,0.0,0.0,0.0,0.0,0.0,0.0,1.7813,1.7605,1.7448,1.7416,1.6963,1.6824,1.7119,1.7217,1.752,1.7988,1.9544,2.0205,1.9983,2.1565,2.2118,2.1799,2.1912,0.0,0.0,0.0,2.5845,2.7291,2.9041,2.9203,2.8472,2.9146,2.8981,2.8323,2.7794,2.76,2.7615,2.775,2.8143,2.8412,2.7416,2.73,2.7324,2.6286,2.58,2.5633,2.573,2.5237,2.4842,2.5535,2.494,2.426,0.0,0.0,0.0,2.3547,2.3509,2.3887,2.4875,2.4683,2.4973,2.6778,2.6594,2.6853,2.8634,3.1093,3.287,3.3289,3.4206,3.4977,3.5368,3.5519,3.5311,3.4643,3.5031,3.4448,3.2586,3.2392,3.2049,3.1525,3.1511,3.1511,3.1511,3.1511,3.1511,3.1511,3.1376,3.0717,2.9579,2.893,2.7759,2.6229,2.5158,2.4471,2.4031,2.3365,2.3108,2.3108,2.3108,2.3108,2.3045,2.2606,2.2058,2.1443,1.0942,1.2828,1.4601,1.5409,1.7718,1.989,2.1096,2.1662,2.1985,0.0,0.0,0.0,0.0,2.1017,2.0701,0.0,2.0077,1.924,1.925,1.8311,1.7643,1.7396,1.6963,1.6572,1.6251,1.6602,1.7186,1.7999,1.8857,1.9802,2.0865,2.1901,2.2416,2.2498,2.3034,0.0,0.0,0.0,2.7366,2.9155,2.9966,2.9273,2.7794,2.8442,2.8319,2.7705,2.763,2.76,2.769,2.8278,2.8532,2.8697,2.911,2.8472,2.7643,2.7974,2.7278,2.6472,2.6958,2.6643,2.6446,2.7591,2.6408,2.5245,2.633,0.0,2.5259,2.4713,0.0,2.5229,2.4892,0.0,0.0,2.6688,2.6357,2.6459,2.7917,2.8928,3.0248,3.2202,3.2144,3.27,3.4534,3.5258,3.5322,3.4664,3.4081,3.3372,3.2542,3.1929,3.1585,3.1511,3.1511,3.1511,3.1511,3.1511,3.1511,3.1496,3.0883,3.0253,2.9606,2.9525,2.8008,2.5536,2.5992,2.5063,2.3215,2.3138,2.3108,2.3108,2.3108,2.3108,2.3095,2.3032,2.2355,2.1543,1.0939,1.2661,1.4393,1.468,1.748,1.9966,2.0737,2.1948,2.2934,0.0,0.0,0.0,2.293,2.2261,2.1617,2.111,2.0629,2.0155,1.9742,1.8807,0.0,1.7768,1.6843,1.626,1.6095,1.6281,1.7009,1.8354,1.917,2.0114,2.1121,2.199,2.2696,2.3247,2.3507,0.0,2.6512,2.6916,2.7756,2.8874,2.955,2.9342,2.8724,2.9377,2.9002,2.8116,2.8116,2.791,2.7645,2.7929,2.8263,2.8577,2.8483,2.8588,2.8745,2.8559,2.8405,2.8351,2.8575,2.7851,2.7258,2.8081,2.6927,2.5788,2.6712,2.6503,2.6072,2.5812,0.0,0.0,0.0,0.0,0.0,0.0,2.5448,2.5601,2.6485,2.6076,2.6974,3.0484,3.1093,3.1593,3.2587,3.3754,3.3999,3.2924,3.3251,3.3041,3.1988,3.1645,3.1511,3.1511,3.1511,3.1511,3.1511,3.1511,3.1511,3.1511,3.1212,3.0567,2.9579,2.8664,2.7386,2.5823,2.5252,2.449,2.364,2.364,2.3409,2.3108,2.3108,2.3108,2.3108,2.3108,2.2606,2.1995,1.1483,1.2996,1.4574,1.4896,1.7496,1.9863,2.0791,2.2351,2.3632,2.4234,2.4095,2.3955,2.3955,2.3269,2.2511,2.1766,2.1362,2.1015,2.0702,1.9767,1.8887,1.8048,1.7094,1.6396,1.5919,1.5919,1.6779,1.856,1.9031,1.9983,2.1319,2.193,2.2748,2.3715,2.3856,2.5092,2.7055,2.7534,2.8315,2.9207,2.9702,2.9892,2.9913,3.0057,2.9555,2.8732,2.8559,2.8213,2.7865,2.786,2.8188,2.8547,2.8244,2.8693,2.9277,2.8951,2.9086,2.9412,2.9744,2.8973,2.8267,2.9054,2.8044,2.69,2.7202,2.6798,2.6324,2.6068,2.5921,0.0,0.0,0.0,2.5259,0.0,0.0,2.5222,2.5762,2.4893,2.5365,2.8542,2.9521,3.0104,3.0526,3.1855,3.2407,3.1589,3.2518,3.264,3.1569,3.1511,3.1511,3.1511,3.1511,3.1511,3.1511,3.1511,3.1406,3.1212,3.1047,3.0492,2.9579,2.8237,2.7328,2.6732,2.5276,2.463,2.4524,2.3971,2.3572,2.3333,2.3158,2.3108,2.3108,2.3108,2.2757,2.2305,1.2917,1.3987,1.5336,1.6829,1.821,1.9828,2.1935,2.3393,2.4263,2.4292,2.4909,2.5342,2.5342,2.4146,2.3789,2.4846,2.2815,2.1794,2.2571,2.1547,2.0053,1.8098,1.7975,1.7163,1.5449,1.543,1.6415,1.8497,1.7947,1.9012,2.1602,2.1678,2.2442,2.3739,2.4302,2.5981,2.834,2.8372,2.9431,3.1117,3.1134,3.1151,3.1015,2.9881,2.94,2.9293,2.8724,2.8487,2.8475,2.8544,2.8577,2.8712,2.9352,2.9101,2.8757,2.937,2.9116,2.8906,3.0133,3.0013,2.9821,3.1093,3.028,2.9025,2.8305,2.7097,2.5855,2.5019,2.4443,2.4067,2.4054,2.4494,0.0,0.0,0.0,0.0,0.0,2.6414,2.6399,2.6413,2.6888,2.7623,2.8598,2.9785,3.0718,3.1274,3.1845,3.197,3.1512,3.1511,3.1511,3.1511,3.1511,3.1511,3.1511,3.1511,3.1167,3.0537,2.9924,2.9651,2.9592,2.8895,2.8478,2.8239,2.6918,2.6217,2.5889,2.3925,2.3446,2.3916,2.3321,2.3108,2.3108,2.3108,2.2757,2.2355,1.5303,1.6391,1.712,1.6585,1.8621,2.1093,2.3293,2.4016,2.4652,2.5618,2.5987,2.6122,2.6122,2.6129,2.6064,2.598,2.519,2.4622,2.4364,2.306,2.1668,2.0174,1.8757,1.799,1.7986,1.6767,1.7309,1.976,2.0049,2.1107,2.2939,2.3361,2.4072,2.4985,0.0,2.6789,0.0,2.9301,3.0245,3.119,3.119,3.119,3.1151,3.074,3.0335,2.9973,2.9761,2.9429,2.9113,2.9116,2.9124,2.9171,2.9405,2.9624,2.9762,2.9561,2.9705,2.9861,2.991,2.943,2.9235,3.0537,2.9399,2.8154,2.8794,2.7772,2.6566,2.6134,2.5909,2.5518,2.469,2.4971,0.0,0.0,0.0,0.0,0.0,2.5346,2.4013,2.2696,2.4236,2.5425,2.5415,2.6955,2.7994,2.8109,2.9884,3.0913,3.0703,3.1219,3.1511,3.1511,3.1511,3.1511,3.1511,3.1511,3.1391,3.1152,3.0943,3.0627,3.0178,2.9453,2.9086,2.8915,2.7399,2.6703,2.6491,2.488,2.4155,2.3941,2.3333,2.3108,2.3108,2.3108,2.3233,2.3502,1.6894,1.7963,1.8617,1.7771,2.0158,2.2648,2.4082,2.4766,2.5425,2.6377,2.6721,2.6878,2.6878,2.726,2.7208,2.6511,2.6399,2.6084,2.5318,2.4382,2.3173,2.1663,2.0082,1.9177,1.9023,1.7606,1.7952,2.012,2.0859,2.2034,0.0,0.0,0.0,0.0,0.0,2.7085,2.8126,2.9676,3.0658,3.119,3.119,3.119,3.119,3.119,3.0975,3.058,3.0393,3.0059,2.9695,2.9473,2.9406,2.9406,2.9406,2.9703,2.9932,2.9332,2.9633,3.0022,2.9407,2.9086,2.9146,2.9968,2.9151,2.8199,2.8583,2.774,2.6743,2.6311,2.627,2.5985,2.5088,2.5384,0.0,0.0,0.0,0.0,0.0,2.4436,2.2739,2.1278,2.2312,2.3114,2.2977,2.4707,2.5954,2.6162,2.8673,3.0209,3.0313,3.1058,3.138,3.1087,3.1058,3.0822,3.0338,3.0587,3.0482,3.0097,3.0575,3.0612,3.0135,2.9361,2.9247,2.9546,2.743,2.6786,2.7038,2.525,2.4431,2.4243,2.3634,2.3409,2.3384,2.3183,2.3471,2.4079,1.7728,1.8841,1.9969,2.0497,2.2645,2.4321,2.4408,2.5591,2.651,2.6537,2.7163,2.76,2.76,2.7554,2.7297,2.6664,2.6538,2.6231,2.5536,2.5467,2.4569,2.255,2.1878,2.0695,1.8823,1.8092,1.8391,1.9682,2.0455,2.1786,0.0,0.0,0.0,0.0,2.5973,0.0,2.7531,2.9517,3.0679,3.119,3.119,3.119,3.119,3.119,3.119,3.1131,3.0539,3.0335,3.0251,2.9673,2.9496,2.9496,2.9496,2.9496,2.9361,2.8772,2.9033,2.9413,2.8802,2.9075,2.9544,2.96,2.9559,2.9149,2.7837,2.7076,2.6428,2.5646,2.5578,2.5535,2.5262,2.5756,2.6075,0.0,0.0,0.0,0.0,2.3813,2.2712,2.2066,2.1104,2.0763,2.1329,2.3071,2.4545,2.5428,2.8079,2.9839,3.0192,3.0999,3.1058,3.0329,3.0269,2.9604,2.8238,2.8949,2.8742,2.7645,2.9013,2.9639,2.9615,2.8781,2.9073,3.0076,2.724,2.663,2.7505,2.5059,2.4393,2.4775,2.4255,2.4042,2.3979,2.3421,2.3572,2.4155,1.9594,2.1151,2.2618,2.3212,2.3851,2.4681,2.5755,2.6256,2.6695,2.7255,2.7484,2.76,2.76,2.8018,2.8254,2.8077,2.8051,2.7729,2.7025,2.6486,2.5726,2.4665,2.2974,2.2337,2.2812,2.0758,2.0117,2.1017,2.226,2.3152,2.3675,0.0,0.0,0.0,0.0,2.729,2.7646,2.996,3.1055,3.119,3.119,3.119,3.119,3.119,3.119,3.1171,3.1015,3.0975,3.0955,3.0797,3.074,3.074,3.074,3.074,3.0617,3.0016,2.9956,2.997,2.9357,2.8995,2.8907,2.9413,2.8814,2.8147,2.8292,2.7806,2.7229,2.6909,2.72,2.7385,2.6754,2.7198,2.7434,0.0,0.0,0.0,0.0,2.4041,2.2918,2.1702,2.0417,1.9927,2.0715,2.1863,2.295,2.3976,2.6278,2.813,2.9272,2.9908,3.0265,3.0313,2.9659,2.9139,2.8799,2.9132,2.939,2.9608,3.0066,3.0226,3.0119,2.9883,2.962,2.9272,2.7846,2.7426,2.7571,2.5874,2.5272,2.5347,2.4788,2.4575,2.4612,2.487,2.5059,2.5272,2.0815,2.2237,2.379,2.5038,2.5507,2.5995,2.6806,2.6948,2.7229,2.7953,2.7779,2.7705,2.8019,2.8368,2.8607,2.8607,2.8607,2.83,2.7607,2.7187,2.6654,2.5906,2.4518,2.3687,2.357,2.1895,2.1051,2.1157,2.2815,2.3776,2.4064,0.0,0.0,0.0,0.0,2.7451,2.7649,2.9875,3.0975,3.119,3.119,3.119,0.0,3.119,3.119,3.119,3.119,3.119,3.1151,3.0898,3.0818,3.0818,3.0818,3.0818,3.074,3.0393,3.0502,3.0538,2.9643,2.9356,2.9344,2.9438,2.8918,2.8484,2.8861,2.8465,2.8051,2.8219,2.8596,2.871,2.8205,2.8667,2.8708,0.0,0.0,2.6552,2.5182,2.4354,2.3221,2.1606,2.0636,2.0344,2.0896,2.1403,2.2102,2.3169,2.5731,2.7607,2.8382,2.9309,2.9592,2.9174,2.8684,2.8023,2.7163,2.7595,2.7883,2.8026,2.8726,2.913,2.9308,2.9191,2.8907,2.8363,2.7537,2.7196,2.709,2.6059,2.5598,2.5573,2.5272,2.531,2.5573,2.5862,2.5812,2.5686,2.1936,2.3091,2.4572,2.6212,2.7209,2.7753,2.7666,2.7764,2.8049,2.8532,2.8184,2.8019,2.8412,2.8547,2.8562,2.8472,2.8472,2.8203,2.763,2.76,2.7306,2.6669,2.6041,2.4885,2.3151,2.2391,2.1694,2.1055,2.2721,2.3851,0.0,0.0,0.0,0.0,0.0,0.0,0.0,2.9594,3.0658,3.119,3.119,3.119,3.119,3.119,3.119,3.119,3.119,3.119,3.1131,3.058,3.0414,3.0414,3.0414,3.0414,3.0414,3.0414,3.0839,3.1057,2.9939,3.0013,3.0243,2.9663,2.9451,2.9406,2.9406,2.8989,2.8777,2.9286,2.9561,2.9647,2.9377,2.9781,2.9669,2.8158,2.7716,2.6982,2.535,2.4642,2.3595,2.179,2.13,0.0,2.1381,2.1481,2.2003,2.3103,2.5872,2.7571,2.7703,2.8831,2.8918,2.7749,2.7604,2.6718,2.5046,2.5617,2.5748,2.5463,2.6641,2.7476,2.7964,2.7792,2.7637,2.7517,2.6816,2.6499,2.6449,2.5912,2.5711,2.5711,2.5711,2.6047,2.6499,2.6499,2.6172,2.5774,2.4255,2.6109,2.7298,2.6615,2.8006,2.9044,2.8482,2.8898,2.9097,2.8652,2.8992,2.8873,2.7884,2.8263,2.8368,2.7824,2.7779,2.772,2.76,2.76,2.7534,2.7408,2.6709,2.6175,2.5808,2.4055,2.3051,2.2926,2.2736,2.3259,0.0,0.0,0.0,0.0,0.0,0.0,2.9842,3.0159,3.0658,3.119,3.119,3.119,3.119,3.119,3.119,3.119,3.119,3.119,3.119,3.1092,3.1035,3.1035,3.1035,3.1035,3.1035,3.1035,3.1136,3.1183,3.0949,3.0618,3.0287,3.0177,2.9761,2.9406,2.9406,2.9316,2.912,2.8746,2.9564,3.0188,2.9645,2.952,2.9373,2.9061,2.7808,2.6601,2.5864,2.4846,2.3797,2.2624,2.1432,2.084,2.1206,2.1884,2.2958,2.4508,2.5916,2.7007,2.767,2.7726,2.7709,2.7683,2.7074,2.6557,2.621,2.6006,2.634,2.7242,2.7196,2.7377,2.7741,2.7716,2.7351,2.6679,2.6555,2.6499,2.6487,2.6386,2.6336,2.6336,2.6336,2.6411,2.6499,2.6499,2.6436,2.6361,2.6624,2.7428,2.7972,2.8079,2.8931,2.9579,2.9594,3.0148,3.0238,2.925,2.9086,2.8978,2.8678,2.8304,2.8094,2.8124,2.7809,2.76,2.76,2.76,2.76,2.76,2.7255,2.6758,2.6113,2.5077,2.4227,2.3567,2.3898,2.4405,2.5091,2.5774,0.0,0.0,0.0,2.8704,0.0,3.0166,3.0658,3.119,3.119,3.119,3.119,3.119,3.119,3.119,3.119,3.119,3.1151,3.0838,3.074,3.074,3.074,3.074,3.0797,3.1112,3.119,3.119,3.119,3.0995,3.0777,3.0777,3.0539,3.0335,3.0335,3.0102,2.988,2.9938,3.0232,3.0406,3.012,2.999,2.9652,2.893,2.8035,2.71,2.6047,2.51,2.4053,2.2842,2.198,2.1721,2.2333,2.2651,2.318,2.4043,2.5588,2.6519,2.6624,2.7047,2.7227,2.7087,2.6679,2.6348,2.6047,2.5843,2.6025,2.6598,2.6452,2.6615,2.7061,2.7061,2.6871,2.6499,2.6499,2.6499,2.6499,2.6499,2.6499,2.6499,2.6499,2.6499,2.6499,2.6499,2.6499,2.6499,2.8484,2.845,2.8581,2.9274,2.9594,2.9849,3.0058,3.0687,3.0746,2.9714,2.925,2.9101,2.934,2.8453,2.8034,2.8547,2.8004,2.76,2.76,2.76,2.76,2.76,2.76,2.7119,2.6123,2.5756,2.5166,2.4311,2.5023,2.5512,2.5824,2.6861,2.7509,2.7835,2.8559,2.915,2.9629,3.023,3.0777,3.119,3.119,3.119,3.119,3.119,3.119,3.119,3.119,3.119,3.1131,3.0658,3.0497,3.0497,3.0497,3.0497,3.058,3.1055,3.119,3.119,3.119,3.119,3.119,3.119,3.119,3.119,3.119,3.0838,3.06,3.1013,3.0664,3.033,3.0453,3.0283,2.9776,2.8737,2.8266,2.7585,2.6415,2.5576,2.4583,2.321,2.2837,2.2877,2.3228,2.3374,2.3387,2.3271,2.516,2.6172,2.5799,2.665,2.7002,2.6675,2.6663,2.6449,2.5963,2.5711,2.5649,2.5774,2.5649,2.5933,2.6499,2.6499,2.6499,2.6499,2.6499,2.6499,2.6499,2.6499,2.6499,2.6499,2.6499,2.6562,2.6663,2.6537,2.6562,2.665,2.9203,3.0235,3.0617,2.8996,2.9654,3.0043,2.8951,2.934,2.9756,2.9621,3.0013,2.9909,2.8816,2.8577,2.8532,2.8592,2.8004,2.76,2.76,2.76,2.76,2.76,2.76,2.7545,2.7419,2.6217,2.5816,2.6244,2.5135,2.523,2.6424,2.6534,2.7236,2.8463,2.9629,3.0166,3.0251,3.0858,3.1151,3.119,3.119,3.119,3.119,3.119,3.119,3.119,3.119,3.119,3.119,3.1114,3.1131,3.1131,3.1131,3.1131,3.1131,3.119,3.119,3.119,3.119,3.119,3.119,3.119,3.119,3.119,3.119,3.1151,3.0992,3.0497,2.997,2.9776,3.0378,2.9564,2.8925,2.9409,2.8311,2.7368,2.7353,2.6608,2.5581,2.4308,2.4134,2.3664,2.2514,2.3766,2.4217,2.3199,2.4705,2.5921,2.6386,2.6512,2.6776,2.7228,2.7241,2.718,2.7118,2.6113,2.5862,2.6411,2.585,2.5933,2.6499,2.6499,2.6499,2.6499,2.6499,2.6499,2.6499,2.6499,2.6499,2.6499,2.6499,2.6801,2.7178,2.6675,2.6813,2.7165,3.0576,3.0728,3.0648,2.987,2.9848,2.9895,2.9774,2.9652,2.9591,2.9546,2.9803,2.9759,2.925,2.919,2.9346,2.9771,2.9195,2.895,2.9318,2.8953,2.8568,2.8155,2.814,2.7968,2.7625,2.7064,2.6923,2.7178,2.7427,2.7615,2.7715,2.8511,2.8957,2.9081,2.9913,3.0293,3.0335,3.0938,3.119,3.119,3.119,3.119,3.119,3.119,3.119,3.119,3.119,3.119,3.119,3.119,3.119,3.119,3.119,3.119,3.119,3.119,3.119,3.119,3.119,3.119,3.119,3.119,3.119,3.119,3.119,3.119,3.1035,3.0435,2.9539,2.9086,2.9786,2.9184,2.8547,2.8423,2.7861,2.7302,2.6942,2.6217,2.5534,2.502,2.4246,2.3822,2.3985,2.4195,2.4268,2.4123,2.5674,2.66,2.6499,2.6813,2.7241,2.7758,2.7165,2.6977,2.7281,2.6537,2.626,2.6499,2.626,2.6273,2.6499,2.6499,2.6675,2.6964,2.6637,2.6688,2.6964,2.6637,2.6499,2.6499,2.6499,2.6839,2.7253,2.67,2.6839,2.7291,3.172,3.1411,3.1119,3.1124,3.0437,3.0027,3.0464,2.9681,2.9136,2.948,2.9584,2.9606,2.9606,2.978,3.0155,3.0846,3.0458,3.0272,3.0501,3.0069,2.9499,2.8787,2.8756,2.8567,2.8149,2.8125,2.8125,2.8125,2.9081,2.9273,2.8795,2.9925,3.0164,2.9695,3.0309,3.0559,3.058,3.1015,3.119,3.119,3.119,3.119,3.119,3.119,3.119,3.119,3.119,3.119,3.119,3.119,3.119,3.119,3.119,3.119,3.119,3.119,3.119,3.119,3.119,3.119,3.119,3.119,3.119,3.119,3.119,3.119,3.1066,3.0679,2.9752,2.9171,2.9671,2.9106,2.8495,2.8193,2.7795,2.7435,2.7161,2.6504,2.6043,2.6035,2.5177,2.4772,2.5188,2.5052,2.4934,2.4981,2.6491,2.6993,2.6047,2.7056,2.764,2.762,2.7284,2.7179,2.7316,2.6776,2.6499,2.6499,2.6499,2.6499,2.6499,2.6499,2.6713,2.7052,2.6663,2.6713,2.7052,2.6663,2.6499,2.6499,2.6499,2.6839,2.7231,2.6876,2.709,2.7519,3.2449,3.2586,3.2554,3.2579,3.1454,3.0586,3.0586,2.891,2.8094,2.9427,2.9606,2.9606,2.9606,3.0195,3.0856,3.1528,3.1598,3.1269,3.0548,3.05,3.0172,2.9416,2.9384,2.9384,2.9384,2.9384,2.9384,2.9384,2.9384,2.94,2.9406,3.0016,3.0309,3.033,3.0918,3.119,3.119,3.119,3.119,3.119,3.119,3.119,3.119,3.119,3.119,3.119,3.119,3.119,3.119,3.119,3.119,3.119,3.119,3.119,3.119,3.119,3.119,3.119,3.119,3.119,3.119,3.119,3.119,3.119,3.119,3.119,3.1217,3.128,3.0761,3.0293,3.038,2.9344,2.8719,2.936,2.8409,2.7814,2.8487,2.8008,2.7543,2.7469,2.7459,2.6954,2.5619,2.6504,2.6667,2.548,2.6774,2.6771,2.4928,2.7159,2.7889,2.6559,2.7781,2.8101,2.7316,2.6776,2.6499,2.6499,2.6499,2.6499,2.6499,2.6499,2.6499,2.6499,2.6499,2.6499,2.6499,2.6499,2.6499,2.6499,2.6499,2.6839,2.7281,2.7268,2.762,2.8097,3.1208,3.1178,3.1024,3.0557,2.9797,2.9215,2.9175,2.8292,2.8052,2.9348,2.9558,2.9961,3.0853,3.155,3.2207,3.2845,3.2473,3.2069,3.1765,3.1298,3.0729,3.0032,3.0,2.9827,2.9406,2.9406,2.9406,2.9406,3.0336,3.0974,3.1374,3.1056,3.0918,3.0918,3.1114,3.119,3.119,3.119,3.119,3.119,3.119,3.119,3.119,3.119,3.119,3.119,3.119,3.119,3.119,3.119,3.119,3.119,3.119,3.119,3.119,3.119,3.119,3.119,3.119,3.119,3.119,3.119,3.119,3.119,3.119,3.0559,3.0103,3.0525,2.9482,2.8708,2.9557,2.8707,2.8094,2.8709,2.813,2.7675,2.7899,2.8113,2.8096,2.7621,2.7538,2.716,2.6272,2.6399,2.6405,2.6104,2.7978,2.8216,2.6207,2.7109,2.7738,2.7876,2.7387,2.7464,2.8101,2.759,2.704,2.6499,2.7074,2.704,2.6499,2.6499,2.67,2.7052,2.7052,2.7052,2.7052,2.7052,2.6839,2.6499,2.6499,2.7065,2.7795,2.7419,2.7871,2.8662,3.1327,3.1083,3.0876,3.0695,2.9724,2.8961,2.8936,2.8373,2.8342,2.9388,2.9996,3.0761,3.1831,3.2524,3.3072,3.3477,3.3088,3.2677,3.2337,3.1637,3.1083,3.0654,3.0372,3.0174,3.0064,3.0081,3.0081,3.0081,3.0924,3.1528,3.1887,3.141,3.119,3.119,3.119,3.119,3.119,3.119,3.119,3.119,3.119,3.119,3.119,3.119,3.119,3.119,3.119,3.119,3.119,3.119,3.119,3.119,3.119,3.119,3.119,3.119,3.1393,3.1565,3.1275,3.1393,3.1565,3.1258,3.1413,3.1624,3.1649,3.1073,3.049,3.0347,2.9445,2.879,2.9319,2.8614,2.8143,2.8779,2.816,2.769,2.7944,2.8113,2.8143,2.8004,2.7942,2.7749,2.7328,2.7404,2.7313,2.6883,2.881,2.9108,2.7107,2.835,2.8743,2.7901,2.7934,2.7861,2.7755,2.7721,2.7284,2.6499,2.7007,2.7007,2.6499,2.6499,2.6688,2.7014,2.7228,2.7203,2.7027,2.7241,2.6989,2.6499,2.6499,2.6914,2.7494,2.757,2.8034,2.865,3.2305,3.1928,3.1659,3.2278,3.0775,2.945,2.945,2.8936,2.8771,2.9457,3.062,3.1649,3.2354,3.2958,3.3327,3.3396,3.3371,3.3,3.2276,3.1562,3.119,3.119,3.0548,3.0497,3.119,3.119,3.119,3.119,3.119,3.119,3.119,3.119,3.119,3.119,3.119,3.119,3.119,3.119,3.119,3.119,3.119,3.119,3.119,3.119,3.119,3.119,3.119,3.119,3.119,3.119,3.119,3.119,3.119,3.1241,3.1258,3.1207,3.1718,3.2141,3.1393,3.1752,3.2141,3.1444,3.1836,3.2382,3.2453,3.2399,3.1981,3.066,3.0345,3.0076,2.9444,2.8881,2.8718,2.9376,2.851,2.7944,2.8517,2.8154,2.8004,2.8532,2.8637,2.8667,2.8667,2.9146,2.9007,2.7884,2.9372,2.9565,2.7887,3.0605,3.0612,2.7131,2.9097,2.9085,2.6828,2.739,2.7317,2.6589,2.6559,2.6549,2.6549,2.6587,2.6612,2.6637,2.719,2.7115,2.665,2.7203,2.7102,2.6612,2.6612,2.6637,2.6788,2.7783,2.8185,2.8373,3.0955,3.0498,3.0125,3.027,2.9082,2.8062,2.8062,2.7951,2.8079,2.8742,2.9109,2.9925,3.1557,3.1381,3.1538,3.2509,3.2583,3.2259,3.1495,3.1292,3.119,3.119,3.1021,3.1021,3.119,3.119,3.119,3.119,3.119,3.119,3.119,3.119,3.119,3.119,3.119,3.119,3.119,3.119,3.119,3.119,3.119,3.119,3.119,3.119,3.119,3.119,3.119,3.119,3.119,3.119,3.119,3.119,3.119,3.1599,3.1938,3.136,3.1718,3.2141,3.1393,3.1752,3.2259,3.209,3.2577,3.3144,3.3165,3.2428,3.1484,3.0644,2.9699,2.895,2.8754,2.8642,2.8794,2.9394,2.929,2.9007,2.8652,2.9295,2.9505,2.8697,2.9041,2.934,2.934,2.8588,2.8558,2.9729,3.0205,3.0463,3.0566,3.2198,3.1727,2.8616,2.8891,2.9321,2.9767,2.8405,2.7604,2.7417,2.7214,2.7115,2.714,2.7519,2.772,2.7745,2.8298,2.8235,2.7758,2.831,2.821,2.772,2.772,2.7971,2.8373,2.8599,2.9013,2.9428,3.0088,2.9564,2.9131,2.9131,2.8289,2.76,2.76,2.7869,2.8302,2.893,2.9838,3.0691,3.1343,3.1622,3.1785,3.1793,3.1802,3.1633,3.1224,3.0886,3.0852,3.119,3.0869,3.0852,3.119,3.119,3.119,3.119,3.119,3.119,3.119,3.119,3.119,3.119,3.119,3.119,3.119,3.119,3.119,3.119,3.119,3.119,3.119,3.119,3.119,3.119,3.119,3.119,3.119,3.119,3.119,3.1258,3.1616,3.1989,3.2293,3.2222,3.273,3.3136,3.2408,3.273,3.3309,3.3309,3.3609,3.3917,3.3935,3.3406,3.2555,3.1258,3.0463,2.9779,2.9119,2.9048,2.9263,2.9848,2.9746,2.9577,2.9475,2.9819,2.9819,2.9131,2.9397,2.9606,2.9606,2.9202,2.9235,3.0028,3.0911,3.145,3.1511,3.3066,3.272,3.0097,3.058,3.0665,3.0221,2.9091,2.8383,2.8165,2.8713,2.876,2.8309,2.8605,2.8507,2.8134,2.865,2.8612,2.8147,2.8662,2.8562,2.8109,2.8109,2.8285,2.8549,2.88,2.9126,2.944,2.9592,2.9056,2.8607,2.8607,2.8064,2.76,2.76,2.8094,2.8686,2.9255,3.0881,3.1758,3.1216,3.2226,3.2461,3.1309,3.119,3.119,3.119,3.0615,3.0548,3.1173,3.0598,3.0514,3.1021,3.1021,3.1021,3.1021,3.114,3.119,3.119,3.119,3.119,3.119,3.119,3.119,3.119,3.119,3.119,3.119,3.119,3.119,3.119,3.119,3.119,3.119,3.119,3.119,3.119,3.119,3.119,3.1326,3.2073,3.2378,3.2615,3.3355,3.4083,3.4472,3.3643,3.3931,3.4489,3.4489,3.4573,3.4678,3.4745,3.4688,3.4088,3.2272,3.1826,3.1336,2.9993,2.9828,3.006,3.058,3.0223,3.0058,3.0582,3.0208,2.9834,2.9756,2.9756,2.9786,2.9864,3.0178,3.0223,2.9909,3.133,3.2034,3.1675,3.3365,3.3533,3.1743,3.2828,3.2241,2.9752,2.995,2.973,2.9053,3.0445,3.0665,2.9864,2.9944,2.9538,2.8788,2.9124,2.8999,2.8594,2.89,2.8787,2.836,2.836,2.831,2.8298,2.8813,2.8963,2.8976,2.9502,2.9056,2.8607,2.8607,2.8064,2.76,2.76,2.769,2.7961,2.8585,2.8948,2.9477,3.0346,3.0658,3.0891,3.1168,3.119,3.119,3.119,3.1089,3.1072,3.119,3.1089,3.0784,3.0294,3.0277,3.0277,3.0277,3.0886,3.119,3.119,3.119,3.119,3.119,3.119,3.119,3.119,3.119,3.119,3.119,3.119,3.119,3.119,3.119,3.119,3.119,3.119,3.119,3.119,3.119,3.119,3.1326,3.2073,3.2733,3.3372,3.4117,3.4861,3.5126,3.3778,3.3931,3.4489,3.4489,3.4979,3.5425,3.5436,3.5005,3.4354,3.3465,3.2837,3.2035,3.0701,3.0917,3.1309,3.1341,3.1271,3.1241,3.1331,3.1256,3.0987,3.0432,3.0357,3.0597,3.1152,3.0313,3.0148,3.1122,3.0971,3.127,3.2273,3.3185,3.3768,3.3971,3.3504,3.2444,3.0778,3.1984,3.1975,3.066,3.1335,3.1592,3.1481,3.1907,3.2034,3.1869,3.1143,3.0786,3.0671,2.9974,2.9603,2.9528,2.9528,2.9227,2.8838,2.9453,2.9352,2.8976,2.8468,2.8274,2.8053,2.8053,2.7809,2.76,2.76,2.76,2.781,2.8415,2.9469,3.0192,3.029,3.1023,3.1423,3.1219,3.0898,3.0858,3.1171,3.119,3.119,3.119,3.119,3.1038,3.07,3.0311,3.0275,3.0683,3.0632,3.0818,3.119,3.119,3.119,3.119,3.119,3.119,3.119,3.119,3.119,3.119,3.119,3.119,3.119,3.119,3.119,3.1151,3.0838,3.0918,3.1202,3.1273,3.1526,3.2005,3.3139,3.3711,3.4134,3.4878,3.5329,3.5447,3.4771,3.4822,3.5098,3.5098,3.5346,3.56,3.56,3.5362,3.4951,3.4282,3.3891,3.3364,3.2393,3.2165,3.223,3.2545,3.1965,3.163,3.1989,3.1735,3.1391,3.1077,3.1032,3.1301,3.1974,3.1524,3.1405,3.1989,3.2093,3.2392,3.3006,3.3664,3.4369,3.5011,3.4123,3.3178,3.2184,3.3145,3.313,3.2217,3.3274,3.3508,3.3004,3.3253,3.3066,3.2558,3.2141,3.1669,3.118,3.0733,3.0241,2.9792,2.9792,2.9628,2.9428,2.9691,2.9616,2.9428,2.76,2.76,2.76,2.76,2.76,2.76,2.76,2.76,2.7871,2.8632,3.0116,3.0917,3.0375,3.133,3.1693,3.0857,3.0372,3.0351,3.0938,3.0995,3.1055,3.119,3.1038,3.0937,3.0937,3.0395,3.0378,3.0937,3.0548,3.0649,3.119,3.119,3.119,3.119,3.119,3.119,3.119,3.119,3.119,3.119,3.119,3.1131,3.0995,3.0995,3.0898,3.072,3.0251,3.0393,3.0803,3.0897,3.1246,3.1909,3.353,3.4044,3.4251,3.529,3.56,3.56,3.56,3.56,3.56,3.56,3.5735,3.5893,3.5893,3.6005,3.5942,3.5241,3.5245,3.5102,3.4253,3.381,3.3657,3.3966,3.3152,3.2617,3.2928,3.2552,3.2177,3.1988,3.1824,3.1929,3.2437,3.2348,3.2318,3.2497,3.2976,3.3395,3.3709,3.4234,3.4801,3.5489,3.4758,3.4161,3.3733,3.4147,3.4147,3.3733,3.4928,3.51,3.4361,3.4361,3.3973,3.3255,3.2784,3.2177,3.1499,3.1044,3.0457,2.9792,2.9792,2.9704,2.9616,2.9741,2.9704,2.9616,2.76,2.76,2.76,2.76,2.76,2.76,2.76,2.76,2.8037,2.928,2.9558,2.9844,3.0336,3.0485,3.0268,2.9582,2.9496,2.9717,3.033,3.0372,3.0617,3.1171,3.0548,3.0192,3.0192,3.0123,3.0142,3.0192,3.0818,3.114,3.119,3.119,3.119,3.119,3.119,3.119,3.119,3.119,3.119,3.119,3.119,3.0858,3.0372,3.0372,3.0016,2.9518,2.9473,2.9496,2.9518,2.9538,2.9576,2.9974,3.2005,3.2646,3.3039,3.5026,3.56,3.56,3.56,3.56,3.56,3.56,3.6163,3.6711,3.6711,3.7229,3.751,3.6776,3.7199,3.722,3.5803,3.6049,3.6277,3.5625,3.5511,3.5205,3.4448,3.4434,3.4172,3.3426,3.2811,3.2437,3.2512,3.1929,3.1824,3.2437,3.2557,3.3125,3.4369,3.4474,3.4801,3.5489,3.5439,3.5377,3.5317,3.5377,3.5377,3.5317,3.5442,3.5472,3.5392,3.5392,3.5359,3.518,3.3394,3.2558,3.2357,3.0608,2.9856,2.9792,2.9792,2.9465,2.9013,2.9591,2.9453,2.9026,2.76,2.76,2.76,2.76,2.76,2.76,2.76,2.76,2.7916,2.8808,2.931,2.9626,2.9821,2.9893,2.9777,2.9425,2.9042,2.9248,3.023,3.0293,3.0559,3.1171,3.092,3.0581,3.0106,3.0108,3.0108,3.0108,3.0378,3.0751,3.119,3.119,3.119,3.119,3.119,3.119,3.119,3.119,3.119,3.119,3.119,3.0838,3.0293,3.0293,2.993,2.9361,2.8989,2.9065,2.9403,2.9485,2.9768,3.0447,3.2534,3.3178,3.3491,3.5105,3.56,3.56,3.56,3.56,3.56,3.56,3.6197,3.6795,3.6795,3.7364,3.7821,3.7533,3.7719,3.7732,3.7172,3.6929,3.6701,3.638,3.6021,3.5506,3.4622,3.4616,3.4414,3.3607,3.3275,3.3125,3.3125,3.326,3.329,3.314,3.3903,3.4397,3.4503,3.4876,3.5235,3.5489,3.5504,3.5504,3.5504,3.5504,3.5504,3.5504,3.5504,3.5504,3.5504,3.5504,3.5504,3.5424,3.4075,3.3136,3.25,3.1193,3.0317,2.9792,2.9792,2.9654,2.949,2.9716,2.9654,2.9503,2.76,2.76,2.76,2.76,2.76,2.76,2.76,2.76,2.7929,2.8786,2.9134,2.9336,2.9516,2.9383,2.9166,2.885,2.8463,2.8662,2.9673,3.0102,3.046,3.085,3.0852,3.0514,2.977,3.0209,3.0226,2.9753,3.0226,3.0581,3.0852,3.1089,3.119,3.119,3.119,3.119,3.119,3.119,3.119,3.119,3.119,3.0838,3.0272,3.0102,2.9761,2.9316,2.8724,2.8772,2.9167,2.9454,2.9548,2.9975,3.2219,3.3237,3.3815,3.4948,3.5138,3.5055,3.5515,3.5629,3.5692,3.5909,3.6738,3.7506,3.7506,3.8058,3.8531,3.8294,3.8226,3.8145,3.7902,3.7465,3.7031,3.6758,3.6554,3.6052,3.4957,3.5093,3.5015,3.4206,3.3933,3.3799,3.3799,3.4054,3.4068,3.3829,3.4666,3.507,3.4848,3.525,3.5504,3.5504,3.5504,3.5504,3.5504,3.5504,3.5504,3.5504,3.5504,3.5504,3.5504,3.5504,3.5504,3.5439,3.4143,3.3206,3.25,3.1254,3.0381,2.9792,2.9792,2.9792,2.9792,2.9792,2.9792,2.9792,2.76,2.76,2.76,2.76,2.76,2.76,2.76,2.76,2.8079,2.9427,2.9011,2.8846,2.9532,2.8981,2.8308,2.766,2.76,2.786,2.8463,2.9629,3.0223,3.0104,3.0125,2.977,2.9027,3.0446,3.0482,2.901,3.0482,3.0835,3.0125,3.0852,3.119,3.119,3.119,3.119,3.119,3.119,3.119,3.119,3.119,3.0838,3.023,2.9629,2.9406,2.9316,2.8709,2.8511,2.8606,2.9203,2.8599,2.8062,3.0678,3.2471,3.3735,3.4406,3.4112,3.3921,3.5333,3.5704,3.5885,3.6616,3.7905,3.8988,3.8988,3.9563,3.9893,3.914,3.8937,3.8667,3.7949,3.7792,3.7553,3.6821,3.7329,3.7247,3.5732,3.6136,3.6337,3.5587,3.4906,3.4518,3.4503,3.3888,3.3784,3.4459,3.4503,3.4786,3.5474,3.5504,3.5504,3.5504,3.5504,3.5504,3.5504,3.5504,3.5504,3.5504,3.5504,3.5504,3.5504,3.5504,3.5504,3.5392,3.3429,3.2593,3.2464,3.0608,2.983,2.983,2.9792,2.9792,2.9792,2.9792,2.9792,2.9792,2.76,2.76,2.76,2.76,2.76,2.76,2.76,2.76,2.7914,2.8771,2.8293,2.8154,2.8831,2.8319,2.7824,2.7615,2.76,2.8042,2.9065,2.9377,2.9712,3.007,3.0598,3.0531,2.9786,3.07,3.0717,2.977,3.0717,3.1089,3.0869,3.1089,3.119,3.119,3.119,3.119,3.119,3.119,3.119,3.119,3.119,3.0838,3.0272,3.0102,2.9761,2.9384,2.9203,2.9134,2.9157,2.9339,2.9187,2.9248,3.1025,3.2507,3.3633,3.3836,3.3761,3.3921,3.5333,3.6067,3.6638,3.7391,3.8294,3.8848,3.8276,3.9185,3.9732,3.8417,3.8559,3.8679,3.7931,3.7821,3.7539,3.6758,3.7284,3.7245,3.5732,3.6121,3.6337,3.5587,3.5325,3.5011,3.4563,3.4741,3.4786,3.4533,3.4921,3.5295,3.5489,3.5504,3.5504,3.5504,3.5504,3.5504,3.5504,3.5504,3.5504,3.5504,3.5504,3.5504,3.5504,3.5504,3.5504,3.5439,3.4143,3.3602,3.3484,3.2249,3.1756,3.1696,3.1044,3.0758,3.0696,3.0037,2.9792,2.9792,2.76,2.76,2.76,2.76,2.76,2.76,2.76,2.76,2.7839,2.8502,2.8019,2.7869,2.8532,2.8004,2.76,2.76,2.76,2.8002,2.8973,2.8962,2.93,3.0145,3.0603,3.0468,2.9685,3.0666,3.07,2.9651,3.07,3.1055,3.0768,3.1055,3.1075,3.0855,3.1119,3.0966,3.0514,3.1037,3.1085,3.0858,3.1095,3.0975,3.0638,3.0393,3.023,3.0081,2.9848,2.9761,2.9761,2.9761,2.9977,3.0441,3.1327,3.2347,3.3209,3.3209,3.3201,3.352,3.5283,3.6241,3.7114,3.8429,3.9106,3.9311,3.8813,3.9172,3.9358,3.843,3.8088,3.7844,3.7411,3.7086,3.6738,3.6228,3.6554,3.6569,3.5619,3.5894,3.6006,3.5554,3.5504,3.534,3.4921,3.5265,3.5325,3.4921,3.5265,3.5504,3.5504,3.5133,3.51,3.5504,3.51,3.51,3.5504,3.5504,3.5504,3.5504,3.5504,3.5504,3.5504,3.5504,3.5504,3.5424,3.4428,3.3993,3.391,3.2996,3.2593,3.2522,3.1997,3.1742,3.1646,3.0696,3.0343,3.0317,2.76,2.76,2.76,2.76,2.76,2.76,2.76,2.76,2.7824,2.8427,2.7989,2.7839,2.8442,2.7974,2.76,2.76,2.76,2.786,2.8463,2.8487,2.9042,3.0251,3.0293,2.9945,2.9211,3.0516,3.055,2.9196,3.055,3.0852,3.0226,3.0886,3.0898,3.0426,3.1029,3.0625,2.9566,3.0767,3.0909,3.0335,3.0975,3.119,3.1151,3.058,3.072,3.1131,3.0597,3.0393,3.0389,3.0399,3.0981,3.167,3.1623,3.2079,3.2602,3.2582,3.2553,3.2987,3.5264,3.6348,3.7339,3.9546,4.0096,4.007,3.9944,3.9385,3.8854,3.8635,3.7526,3.6584,3.6523,3.5943,3.5504,3.5504,3.5504,3.5504,3.5504,3.5504,3.5504,3.5504,3.5504,3.5504,3.5504,3.5504,3.5504,3.5504,3.5504,3.5504,3.5504,3.4543,3.4428,3.5359,3.4461,3.4428,3.5359,3.5472,3.5504,3.5504,3.5504,3.5504,3.5504,3.5504,3.5504,3.5439,3.4543,3.4129,3.4061,3.3206,3.2855,3.2855,3.2749,3.2749,3.2593,3.1573,3.1217,3.1068,2.76,2.76,2.76,2.76,2.76,2.76,2.76,2.76,2.7645,2.7809,2.769,2.766,2.7809,2.769,2.76,2.76,2.76,2.786,2.8463,2.8487,2.9042,3.0251,3.0293,3.043,3.0717,3.1038,3.1038,3.0717,3.1038,3.1123,3.097,3.1123,3.1131,3.1009,3.1217,3.086,3.0172,3.0959,3.0909,3.0335,3.0975,3.119,3.119,3.1055,3.1075,3.119,3.1055,3.1015,3.1005,3.1125,3.2019,3.2894,3.1854,3.2025,3.26,3.2531,3.2511,3.3093,3.5851,3.6689,3.7339,3.9546,4.0096,3.9782,3.8569,3.8608,3.8398,3.6615,3.643,3.6415,3.5831,3.5619,3.5504,3.5504,3.5504,3.5504,3.5504,3.5504,3.5504,3.5504,3.5504,3.5504,3.5504,3.5504,3.5504,3.5504,3.5504,3.5504,3.5504,3.4543,3.4095,3.4312,3.4095,3.4095,3.4312,3.51,3.5504,3.5504,3.5504,3.5504,3.5504,3.5504,3.5504,3.5504,3.5279,3.5166,3.5166,3.4953,3.4887,3.4773,3.3993,3.3705,3.3484,3.1815,3.1217,3.1068,2.7524,2.76,2.76,2.76,2.76,2.76,2.76,2.76,2.76,2.76,2.76,2.76,2.76,2.76,2.76,2.76,2.76,2.7735,2.8042,2.8067,2.8614,2.9827,2.987,3.0293,3.1171,3.119,3.119,3.119,3.119,3.119,3.119,3.119,3.1055,3.0794,3.1153,3.0773,2.9919,3.0893,3.0909,3.0335,3.0975,3.119,3.119,3.119,3.141,3.1735,3.1735,3.1756,3.1879,3.2262,3.2912,3.3425,3.2724,3.3006,3.347,3.3089,3.3185,3.3849,3.5714,3.6458,3.708,3.8608,3.8995,3.8887,3.843,3.8358,3.7933,3.6352,3.6054,3.5943,3.5554,3.5504,3.5504,3.5504,3.5504,3.5504,3.5504,3.5504,3.5504,3.5504,3.5504,3.5504,3.5504,3.5504,3.5504,3.5504,3.5504,3.5504,3.5504,3.4543,3.4211,3.4691,3.4245,3.4245,3.4725,3.5246,3.5504,3.5504,3.5504,3.5504,3.5504,3.5504,3.5504,3.5504,3.5504,3.5504,3.5504,3.5504,3.5504,3.5439,3.4905,3.4725,3.4543,3.3066,3.2249,3.1742,2.7473,2.76,2.76,2.76,2.76,2.76,2.76,2.76,2.76,2.76,2.76,2.76,2.76,2.76,2.76,2.76,2.76,2.76,2.76,2.76,2.8076,2.9203,2.9339,2.9913,3.1015,3.1151,3.119,3.119,3.119,3.119,3.119,3.119,3.0918,3.0489,3.1051,3.0647,2.9633,3.0789,3.0909,3.0335,3.0975,3.119,3.1207,3.1326,3.1769,3.2327,3.2446,3.2643,3.2911,3.3347,3.3697,3.3912,3.3829,3.4158,3.451,3.4175,3.427,3.4738,3.5717,3.6392,3.6994,3.7806,3.7978,3.8121,3.8608,3.8133,3.7368,3.6569,3.5926,3.5504,3.5504,3.5504,3.5504,3.5504,3.5504,3.5504,3.5504,3.5504,3.5504,3.5504,3.5504,3.5504,3.5504,3.5504,3.5504,3.5504,3.5504,3.5504,3.5504,3.4543,3.4394,3.5213,3.4428,3.4394,3.5246,3.5392,3.5504,3.5504,3.5504,3.5504,3.5504,3.5504,3.5504,3.5504,3.5504,3.5504,3.5504,3.5504,3.5504,3.5504,3.5504,3.5504,3.5392,3.4361,3.3415,3.25,2.7473,2.76,2.76,2.76,2.76,2.76,2.76,2.76,2.76,2.76,2.76,2.76,2.76,2.76,2.76,2.76,2.76,2.76,2.76,2.76,2.791,2.8606,2.9111,2.9717,3.0414,3.0918,3.119,3.119,3.119,3.119,3.119,3.119,3.1151,3.1089,3.1239,3.0882,3.0236,3.098,3.0909,3.0335,3.0975,3.119,3.1258,3.1921,3.2209,3.2378,3.3017,3.3668,3.4162,3.365,3.4316,3.5237,3.4725,3.4558,3.4835,3.5995,3.5483,3.4953,3.6949,3.7568,3.7835,3.858,3.8745,3.8608,3.8064,3.7322,3.6569,3.5814,3.5554,3.5504,3.5504,3.5504,3.5504,3.5504,3.5504,3.5504,3.5504,3.5504,3.5504,3.5504,3.5504,3.5504,3.5504,3.5504,3.5504,3.5504,3.5504,3.5504,3.5504,3.4543,3.4061,3.4211,3.4061,3.4061,3.4211,3.5067,3.5504,3.5504,3.5504,3.5504,3.5504,3.5504,3.5504,3.5504,3.5504,3.5504,3.5504,3.5504,3.5504,3.5504,3.5504,3.5504,3.5392,3.4361,3.3415,3.2558,2.6779,2.7331,2.76,2.76,2.76,2.7465,2.7106,2.736,2.7465,2.7091,2.736,2.76,2.76,2.76,2.745,2.7076,2.739,2.76,2.76,2.76,2.7885,2.8463,2.8756,2.918,2.9783,3.0059,3.0187,3.0187,3.0539,3.0858,3.1207,3.1277,3.1264,3.1224,3.1653,3.1466,3.0851,3.1566,3.1683,3.1441,3.1702,3.2053,3.2425,3.2327,3.2818,3.3647,3.437,3.4606,3.4505,3.4209,3.4785,3.5496,3.4845,3.5174,3.5902,3.6541,3.6535,3.6544,3.7523,3.7793,3.7777,3.7658,3.7613,3.7424,3.6677,3.6243,3.5894,3.5569,3.5504,3.5504,3.5504,3.5504,3.5504,3.5504,3.5504,3.5504,3.5504,3.5504,3.5504,3.5504,3.5504,3.5504,3.5504,3.5504,3.5504,3.5504,3.5504,3.5504,3.5504,3.51,3.4839,3.4839,3.5192,3.5207,3.4839,3.5636,3.5863,3.5504,3.5504,3.5504,3.5504,3.5504,3.5504,3.5504,3.5504,3.5504,3.5504,3.5504,3.5504,3.5504,3.5504,3.5504,3.5439,3.4986,3.4591,3.4158]}]]